[[{"header":{"parameterUnit":"m.s-1","parameterCategory":1,"la1":30.6,"la2":29.2853,"lo1":-89.7004,"lo2":-87.6739,"dy":0.0162,"dx":0.0183,"nx":112,"ny":82,"refTime":"2024-05-03T12:00:00:Z","depth":0,"parameterNumber":2,"parameterNumberName":"U-component_of_WINDS"},"data":[0.0,0.0,0.0,0.0,0.0,0.0,0.0,0.0,0.0,0.0,0.0,0.0,0.0,0.0,0.0,0.0,0.0,0.0,0.0,0.0,0.0,0.0,0.0,0.0,0.0,0.0,0.0,0.0,0.0,0.0,0.0,0.0,0.0,0.0,0.0,0.0,0.0,0.0,0.0,0.0,0.0,0.0,0.0,0.0,0.0,0.0,0.0,0.0,0.0,0.0,0.0,0.0,0.0,0.0,0.0,0.0,0.0,0.0,0.0,0.0,0.0,0.0,0.0,0.0,0.0,0.0,0.0,0.0,0.0,0.0,0.0,0.0,0.0,0.0,0.0,0.0,0.0,0.0,0.0,0.0,0.0,0.0,0.0,0.0,0.0,0.0,0.0,0.0,0.0,0.0,-5.0586,-5.4023,-5.5703,-5.6601,-5.6601,-5.6601,-5.5117,-5.1601,0.0,0.0,0.0,0.0,0.0,0.0,0.0,0.0,0.0,0.0,0.0,0.0,0.0,0.0,0.0,0.0,0.0,0.0,0.0,0.0,0.0,0.0,0.0,0.0,0.0,0.0,0.0,0.0,0.0,0.0,0.0,0.0,0.0,0.0,0.0,0.0,0.0,0.0,0.0,0.0,0.0,0.0,0.0,0.0,0.0,0.0,0.0,0.0,0.0,0.0,0.0,0.0,0.0,0.0,0.0,0.0,0.0,0.0,0.0,0.0,0.0,0.0,0.0,0.0,0.0,0.0,0.0,0.0,0.0,0.0,0.0,0.0,0.0,0.0,0.0,0.0,0.0,0.0,0.0,0.0,0.0,0.0,0.0,0.0,0.0,0.0,0.0,0.0,0.0,0.0,0.0,0.0,0.0,0.0,0.0,0.0,0.0,0.0,0.0,0.0,0.0,0.0,0.0,0.0,-5.2344,-5.582,-5.6445,-5.6601,-5.6601,-5.6601,-5.5117,-5.1601,0.0,0.0,0.0,0.0,0.0,0.0,0.0,0.0,0.0,0.0,0.0,0.0,0.0,0.0,0.0,0.0,0.0,0.0,0.0,0.0,0.0,0.0,0.0,0.0,0.0,0.0,0.0,0.0,0.0,0.0,0.0,0.0,0.0,0.0,0.0,0.0,0.0,0.0,0.0,0.0,0.0,0.0,0.0,0.0,0.0,0.0,0.0,0.0,0.0,0.0,0.0,0.0,0.0,0.0,0.0,0.0,0.0,0.0,0.0,0.0,0.0,0.0,0.0,0.0,0.0,0.0,0.0,0.0,0.0,0.0,0.0,0.0,0.0,0.0,0.0,0.0,0.0,0.0,0.0,0.0,0.0,0.0,0.0,0.0,0.0,0.0,0.0,0.0,0.0,0.0,0.0,0.0,0.0,0.0,0.0,0.0,0.0,0.0,0.0,0.0,0.0,0.0,0.0,-5.207,-5.4844,-5.6445,-5.6601,-5.6601,-5.6601,-5.6601,-5.5117,-5.1601,-5.1406,0.0,0.0,0.0,0.0,0.0,0.0,0.0,0.0,0.0,0.0,0.0,0.0,0.0,0.0,0.0,0.0,0.0,0.0,0.0,0.0,0.0,0.0,0.0,0.0,0.0,0.0,0.0,0.0,0.0,0.0,0.0,0.0,0.0,0.0,0.0,0.0,0.0,0.0,0.0,0.0,0.0,0.0,0.0,0.0,0.0,0.0,0.0,0.0,0.0,0.0,0.0,0.0,0.0,0.0,0.0,0.0,0.0,0.0,0.0,0.0,0.0,0.0,0.0,0.0,0.0,0.0,0.0,0.0,0.0,0.0,0.0,0.0,0.0,0.0,0.0,0.0,0.0,0.0,0.0,0.0,0.0,0.0,0.0,0.0,0.0,0.0,0.0,0.0,0.0,0.0,0.0,0.0,0.0,0.0,0.0,0.0,0.0,0.0,0.0,0.0,0.0,0.0,-5.4062,-5.6133,-5.6562,-5.6601,-5.6601,-5.6601,-5.6601,-5.5117,-5.1601,-5.1406,0.0,0.0,0.0,0.0,0.0,0.0,0.0,0.0,0.0,0.0,0.0,0.0,0.0,0.0,0.0,0.0,0.0,0.0,0.0,0.0,0.0,0.0,0.0,0.0,0.0,0.0,0.0,0.0,0.0,0.0,0.0,0.0,0.0,0.0,0.0,0.0,0.0,0.0,0.0,0.0,0.0,0.0,0.0,0.0,0.0,0.0,0.0,0.0,0.0,0.0,0.0,0.0,0.0,0.0,0.0,0.0,0.0,0.0,0.0,0.0,0.0,0.0,0.0,0.0,0.0,0.0,0.0,0.0,0.0,0.0,0.0,0.0,0.0,0.0,0.0,0.0,0.0,0.0,0.0,0.0,0.0,0.0,0.0,0.0,0.0,0.0,0.0,0.0,0.0,0.0,0.0,0.0,0.0,0.0,0.0,0.0,0.0,0.0,0.0,0.0,0.0,0.0,-5.3047,-5.4805,-5.6445,-5.6601,-5.6601,-5.6601,-5.6601,-5.5117,-5.1601,-5.1406,0.0,0.0,0.0,0.0,0.0,0.0,0.0,0.0,0.0,0.0,0.0,0.0,0.0,0.0,0.0,0.0,0.0,0.0,0.0,0.0,0.0,0.0,0.0,0.0,0.0,0.0,0.0,0.0,0.0,0.0,0.0,0.0,0.0,0.0,0.0,0.0,0.0,0.0,0.0,0.0,0.0,0.0,0.0,0.0,0.0,0.0,0.0,0.0,0.0,0.0,0.0,0.0,0.0,0.0,0.0,0.0,0.0,0.0,0.0,0.0,0.0,0.0,0.0,0.0,0.0,0.0,0.0,0.0,0.0,0.0,0.0,0.0,0.0,0.0,0.0,0.0,0.0,0.0,0.0,0.0,0.0,0.0,0.0,0.0,0.0,0.0,0.0,0.0,0.0,0.0,0.0,0.0,0.0,0.0,0.0,0.0,0.0,0.0,0.0,0.0,0.0,0.0,-5.3867,-5.5859,-5.6523,-5.6601,-5.6601,-5.6601,-5.6601,-5.5117,-5.1601,0.0,0.0,0.0,0.0,0.0,0.0,0.0,0.0,0.0,0.0,0.0,0.0,0.0,0.0,0.0,0.0,0.0,0.0,0.0,0.0,0.0,0.0,0.0,0.0,0.0,0.0,0.0,0.0,0.0,0.0,0.0,0.0,0.0,0.0,0.0,0.0,0.0,0.0,0.0,0.0,0.0,0.0,0.0,0.0,0.0,0.0,0.0,0.0,0.0,0.0,0.0,0.0,0.0,0.0,0.0,0.0,0.0,0.0,0.0,0.0,0.0,0.0,0.0,0.0,0.0,0.0,0.0,0.0,0.0,0.0,0.0,0.0,0.0,0.0,0.0,0.0,0.0,0.0,0.0,0.0,0.0,0.0,0.0,0.0,0.0,0.0,0.0,0.0,0.0,0.0,0.0,0.0,0.0,0.0,0.0,0.0,0.0,0.0,0.0,0.0,0.0,0.0,-5.1406,-5.4453,-5.6601,-5.6601,-5.6601,-5.6601,-5.6601,-5.6601,-5.5117,-5.1601,0.0,0.0,0.0,0.0,0.0,0.0,0.0,0.0,0.0,0.0,0.0,0.0,0.0,0.0,0.0,0.0,0.0,0.0,0.0,0.0,0.0,0.0,0.0,0.0,0.0,0.0,0.0,0.0,0.0,0.0,0.0,0.0,0.0,0.0,0.0,0.0,0.0,0.0,0.0,0.0,0.0,0.0,0.0,0.0,0.0,0.0,0.0,0.0,0.0,0.0,0.0,0.0,0.0,0.0,0.0,0.0,0.0,0.0,0.0,0.0,0.0,0.0,0.0,0.0,0.0,0.0,0.0,0.0,0.0,0.0,0.0,0.0,0.0,0.0,0.0,0.0,0.0,0.0,0.0,0.0,0.0,0.0,0.0,0.0,0.0,0.0,0.0,0.0,0.0,0.0,0.0,0.0,0.0,0.0,0.0,0.0,0.0,0.0,0.0,0.0,0.0,0.0,-5.1406,-5.4453,-5.6601,-5.6601,-5.6601,-5.6601,-5.6601,-5.6601,-5.5117,0.0,0.0,0.0,0.0,0.0,0.0,0.0,0.0,0.0,0.0,0.0,0.0,0.0,0.0,0.0,0.0,0.0,0.0,0.0,0.0,0.0,0.0,0.0,0.0,0.0,0.0,0.0,0.0,0.0,0.0,0.0,0.0,0.0,0.0,0.0,0.0,0.0,0.0,0.0,0.0,0.0,0.0,0.0,0.0,0.0,0.0,0.0,0.0,0.0,0.0,0.0,0.0,0.0,0.0,0.0,0.0,0.0,0.0,0.0,0.0,0.0,0.0,0.0,0.0,0.0,0.0,0.0,0.0,0.0,0.0,0.0,0.0,0.0,0.0,0.0,0.0,0.0,0.0,0.0,0.0,0.0,0.0,0.0,0.0,0.0,0.0,0.0,0.0,0.0,0.0,0.0,0.0,0.0,0.0,0.0,0.0,0.0,0.0,0.0,0.0,0.0,0.0,0.0,-5.1406,-5.4453,-5.6601,-5.6601,-5.6601,-5.6601,-5.6601,-5.6601,-5.4883,-5.082,0.0,0.0,0.0,0.0,0.0,0.0,0.0,0.0,0.0,0.0,0.0,0.0,0.0,0.0,0.0,0.0,0.0,0.0,0.0,0.0,0.0,0.0,0.0,0.0,0.0,0.0,0.0,0.0,0.0,0.0,0.0,0.0,0.0,0.0,0.0,0.0,0.0,0.0,0.0,0.0,0.0,0.0,0.0,0.0,0.0,0.0,0.0,0.0,0.0,0.0,0.0,0.0,0.0,0.0,0.0,0.0,0.0,0.0,0.0,0.0,0.0,0.0,0.0,0.0,0.0,0.0,0.0,0.0,0.0,0.0,0.0,0.0,0.0,0.0,0.0,0.0,0.0,0.0,0.0,0.0,0.0,0.0,0.0,0.0,0.0,0.0,0.0,0.0,0.0,0.0,0.0,0.0,0.0,0.0,0.0,0.0,0.0,0.0,0.0,0.0,0.0,0.0,-5.1361,-5.4361,-5.6507,-5.6556,-5.6557,-5.656,-5.6601,-5.6601,-5.5195,-5.1914,0.0,0.0,0.0,0.0,0.0,0.0,0.0,0.0,0.0,0.0,0.0,0.0,0.0,0.0,0.0,0.0,0.0,0.0,0.0,0.0,0.0,0.0,0.0,0.0,0.0,0.0,0.0,0.0,0.0,0.0,0.0,0.0,0.0,0.0,0.0,0.0,0.0,0.0,0.0,0.0,0.0,0.0,0.0,0.0,0.0,0.0,0.0,0.0,0.0,0.0,0.0,0.0,0.0,0.0,0.0,0.0,0.0,0.0,0.0,0.0,0.0,0.0,0.0,0.0,0.0,0.0,0.0,0.0,0.0,0.0,0.0,0.0,0.0,0.0,0.0,0.0,0.0,0.0,0.0,0.0,0.0,0.0,0.0,0.0,0.0,0.0,0.0,0.0,0.0,0.0,0.0,0.0,0.0,0.0,0.0,0.0,0.0,0.0,0.0,0.0,0.0,0.0,-5.1288,-5.4245,-5.634,-5.6477,-5.6482,-5.6499,-5.656,-5.6561,-5.5819,-5.3983,0.0,0.0,0.0,0.0,0.0,0.0,0.0,0.0,0.0,0.0,0.0,0.0,0.0,0.0,0.0,0.0,0.0,0.0,0.0,0.0,0.0,0.0,0.0,0.0,0.0,0.0,0.0,0.0,0.0,0.0,0.0,0.0,0.0,0.0,0.0,0.0,0.0,0.0,0.0,0.0,0.0,0.0,0.0,0.0,0.0,0.0,0.0,0.0,0.0,0.0,0.0,0.0,0.0,0.0,0.0,0.0,0.0,0.0,0.0,0.0,-5.1133,-4.9214,0.0,0.0,0.0,0.0,0.0,0.0,0.0,0.0,0.0,0.0,0.0,0.0,0.0,0.0,0.0,0.0,0.0,0.0,0.0,0.0,0.0,0.0,0.0,0.0,0.0,0.0,0.0,0.0,0.0,0.0,0.0,0.0,0.0,0.0,0.0,0.0,0.0,0.0,0.0,0.0,-5.1288,-5.4245,-5.6316,-5.6336,-5.6336,-5.6344,-5.6361,-5.6361,-5.5344,-5.2958,-5.2292,0.0,0.0,0.0,0.0,0.0,0.0,0.0,0.0,0.0,0.0,0.0,0.0,0.0,0.0,0.0,0.0,0.0,0.0,0.0,0.0,0.0,0.0,0.0,0.0,0.0,0.0,0.0,0.0,0.0,0.0,0.0,0.0,0.0,0.0,0.0,0.0,0.0,0.0,0.0,0.0,0.0,0.0,0.0,0.0,0.0,0.0,0.0,0.0,0.0,0.0,0.0,0.0,0.0,0.0,0.0,0.0,0.0,0.0,0.0,-5.2023,-5.1236,0.0,0.0,0.0,0.0,0.0,0.0,0.0,0.0,0.0,0.0,0.0,0.0,0.0,0.0,0.0,0.0,0.0,0.0,0.0,0.0,0.0,0.0,0.0,0.0,0.0,0.0,0.0,0.0,0.0,0.0,0.0,0.0,0.0,0.0,0.0,0.0,0.0,0.0,0.0,0.0,-5.1195,-5.4113,-5.6167,-5.6269,-5.6281,-5.6312,-5.6312,-5.6347,-5.5805,-5.4394,-5.3178,0.0,0.0,0.0,0.0,0.0,0.0,0.0,0.0,0.0,0.0,0.0,0.0,0.0,0.0,0.0,0.0,0.0,0.0,0.0,0.0,0.0,0.0,0.0,0.0,0.0,0.0,0.0,0.0,0.0,0.0,0.0,0.0,0.0,0.0,0.0,0.0,0.0,0.0,0.0,0.0,0.0,0.0,0.0,0.0,0.0,0.0,0.0,0.0,0.0,0.0,0.0,0.0,0.0,-5.2112,-5.2368,-5.2422,-5.2578,-5.2656,-5.2695,-5.3757,-5.4032,-5.3654,-5.2323,0.0,0.0,0.0,0.0,0.0,0.0,0.0,0.0,0.0,0.0,0.0,0.0,0.0,0.0,0.0,0.0,0.0,0.0,0.0,0.0,0.0,0.0,-5.0759,-5.3498,-5.2862,-5.1732,-5.2008,0.0,0.0,0.0,0.0,0.0,0.0,0.0,0.0,0.0,0.0,0.0,-5.1074,-5.3971,-5.6024,-5.616,-5.6197,-5.6256,-5.6256,-5.6367,-5.6379,-5.6261,-5.4261,-5.3288,0.0,0.0,0.0,0.0,0.0,0.0,0.0,0.0,0.0,0.0,0.0,0.0,0.0,0.0,0.0,0.0,0.0,0.0,0.0,0.0,0.0,0.0,0.0,0.0,0.0,0.0,0.0,0.0,0.0,0.0,0.0,0.0,-4.884,-5.0387,0.0,0.0,0.0,0.0,0.0,0.0,0.0,0.0,0.0,0.0,0.0,0.0,0.0,-5.0653,-5.0586,-5.2388,-5.3255,-5.3226,-5.5467,-5.6521,-5.6543,-5.7327,-5.7637,-5.7598,-5.6265,0.0,-5.394,-5.3741,0.0,0.0,0.0,0.0,0.0,0.0,0.0,0.0,0.0,0.0,0.0,0.0,0.0,0.0,0.0,0.0,0.0,0.0,0.0,0.0,0.0,0.0,-5.5493,-5.5877,-5.4702,-5.3892,-5.5262,-5.188,-4.906,-5.0576,-4.964,-4.8557,0.0,0.0,0.0,0.0,0.0,0.0,-5.0996,-5.3971,-5.602,-5.6007,-5.6024,-5.604,-5.604,-5.6064,-5.6064,-5.604,-5.5722,-5.4963,-5.3682,-5.4962,0.0,0.0,0.0,0.0,0.0,0.0,0.0,0.0,0.0,0.0,0.0,0.0,0.0,0.0,0.0,0.0,0.0,0.0,0.0,0.0,0.0,0.0,0.0,0.0,0.0,0.0,0.0,0.0,0.0,-4.8315,-4.9529,-5.0743,-5.0898,-5.0241,0.0,0.0,0.0,0.0,0.0,0.0,0.0,0.0,0.0,-5.1602,-5.2608,-5.3344,-5.376,-5.5513,-5.6187,-5.5726,-5.6805,-5.7126,-5.6753,-5.7142,-5.7298,-5.7298,-5.7025,-5.6562,-5.5964,-5.4987,-5.433,-5.3789,0.0,0.0,0.0,0.0,-4.9609,-5.0194,-5.0191,-5.1321,-5.2766,-5.2765,0.0,0.0,0.0,0.0,0.0,0.0,0.0,-5.1536,-5.2411,-5.3758,-5.5098,-5.6038,-5.5695,-5.539,-5.6054,-5.3689,-5.1664,-5.2456,-5.1211,-4.9551,-4.8164,-4.8807,0.0,0.0,0.0,-5.2077,-5.2471,-5.456,-5.6012,-5.6012,-5.6064,-5.6087,-5.6054,-5.6094,-5.6117,-5.6125,-5.6125,-5.58,-5.5091,-5.578,-5.5052,0.0,0.0,0.0,0.0,0.0,0.0,0.0,0.0,0.0,0.0,0.0,0.0,0.0,0.0,0.0,0.0,0.0,0.0,0.0,0.0,0.0,0.0,0.0,0.0,0.0,0.0,0.0,0.0,-4.932,-5.0403,-5.1439,-5.1942,-5.1556,0.0,0.0,0.0,0.0,0.0,0.0,-5.1865,-5.2097,-5.2724,-5.3815,-5.51,-5.6106,-5.6687,-5.7981,-5.8335,-5.7735,-5.7968,-5.7797,-5.7234,-5.7468,-5.7585,-5.7624,-5.8286,-5.8421,-5.8094,-5.6386,-5.533,-5.4786,-5.4177,-5.3125,-5.1914,-5.1482,-5.1596,-5.1947,-5.1946,-5.3079,-5.4524,-5.4523,-5.3628,-5.2496,-5.2032,0.0,0.0,0.0,0.0,-5.2239,-5.3636,-5.4352,-5.5034,-5.6502,-5.6869,-5.6869,-5.6869,-5.5511,-5.429,-5.4328,-5.2924,-5.1153,-4.9292,-5.0384,0.0,-4.8616,-5.1127,-5.3351,-5.3584,-5.5025,-5.6046,-5.6046,-5.6156,-5.6192,-5.6141,-5.6167,-5.6194,-5.6187,-5.6218,-5.6218,-5.6218,-5.6187,-5.5598,-5.4343,0.0,0.0,0.0,0.0,0.0,0.0,0.0,0.0,0.0,0.0,0.0,0.0,0.0,0.0,0.0,0.0,0.0,0.0,0.0,0.0,0.0,0.0,0.0,0.0,0.0,0.0,0.0,0.0,0.0,-5.3149,-5.4774,0.0,0.0,0.0,0.0,-5.0898,-5.1602,-5.284,-5.4503,-5.5316,-5.6515,-5.8226,-5.8415,-5.8518,-5.8557,-5.8637,-5.8661,-5.863,-5.9491,-5.9848,-5.9856,-6.0662,-6.105,-6.105,-6.1089,-6.0688,-5.9854,-5.8172,-5.7457,-5.7187,-5.4677,-5.3657,-5.3373,-5.174,-5.2113,-5.3488,-5.3412,-5.4483,-5.5915,-5.5915,-5.4294,-5.2018,-5.0415,-4.9922,0.0,0.0,-5.162,-5.379,-5.4628,-5.605,-5.754,-5.8453,-5.8654,-5.8654,-5.8654,-5.7313,-5.6082,-5.6078,-5.4682,-5.3448,-5.33,0.0,-5.1928,-5.1037,-5.1728,-5.2651,-5.3473,-5.5133,-5.6172,-5.6172,-5.618,-5.618,-5.6218,-5.6187,-5.6187,-5.6218,-5.6218,-5.6218,-5.6218,-5.6187,-5.6148,-5.6071,-5.4456,0.0,0.0,0.0,0.0,0.0,0.0,0.0,0.0,0.0,0.0,0.0,0.0,0.0,0.0,0.0,0.0,0.0,0.0,0.0,0.0,0.0,0.0,0.0,0.0,0.0,0.0,0.0,0.0,-5.3352,-5.4088,0.0,-5.4351,-5.4326,-5.431,-5.4186,-5.5509,-5.6824,-5.8023,-5.8333,-5.93,-6.1002,-6.1059,-6.1068,-6.1068,-6.1077,-6.0545,-5.9469,-5.9779,-5.9624,-5.9121,-5.9431,-5.9856,-6.0437,-6.0941,-6.1031,-6.0779,-6.0155,-5.9015,-5.7512,-5.6569,-5.5857,-5.5376,-5.5303,-5.5676,-5.6251,-5.6724,-5.7292,-5.7798,-5.7798,-5.7175,-5.631,-5.5758,-5.556,-5.5493,-5.5518,-5.6216,-5.6992,-5.728,-5.7823,-5.8335,-5.8653,-5.8738,-5.8746,-5.8775,-5.8309,-5.7875,-5.7882,-5.647,-5.495,-5.3863,-5.4808,-5.4854,-5.2311,-5.3585,-5.4904,-5.5215,-5.5807,-5.6218,-5.6218,-5.6218,-5.6187,-5.6216,-5.6216,-5.6231,-5.6251,-5.6251,-5.6251,-5.6251,-5.6231,-5.6216,-5.6216,-5.5552,-5.4141,0.0,0.0,0.0,0.0,0.0,0.0,0.0,0.0,0.0,0.0,0.0,0.0,0.0,0.0,0.0,0.0,0.0,0.0,0.0,0.0,0.0,0.0,0.0,0.0,0.0,-5.0431,-5.2422,-5.384,-5.4537,-5.5188,-5.5985,-5.6338,-5.6747,-5.7288,-5.8913,-6.0112,-6.0692,-6.0731,-6.1234,-6.2356,-6.2423,-6.2441,-6.2441,-6.2787,-6.2379,-6.1303,-6.1303,-6.0993,-6.0411,-6.0411,-6.0403,-6.0425,-6.1539,-6.1742,-6.1286,-6.1828,-6.0784,-5.8792,-5.8208,-5.7614,-5.7172,-5.7756,-5.7951,-5.8067,-5.8559,-5.8743,-5.8737,-5.8737,-5.8706,-5.8658,-5.8718,-5.8684,-5.8618,-5.8643,-5.869,-5.8729,-5.9016,-5.9094,-5.918,-5.9506,-5.9583,-5.9591,-5.9623,-5.9165,-5.894,-5.9551,-5.8238,-5.6537,-5.4867,-5.6013,-5.6175,-5.3275,-5.4278,-5.5365,-5.5365,-5.5617,-5.579,-5.579,-5.6061,-5.6231,-5.6219,-5.5708,-5.5637,-5.6253,-5.5741,-5.5702,-5.6291,-5.5417,-5.4938,-5.4938,-5.4294,-5.3296,-5.1953,0.0,0.0,0.0,0.0,0.0,0.0,0.0,0.0,0.0,0.0,0.0,0.0,0.0,0.0,0.0,0.0,0.0,0.0,0.0,0.0,0.0,0.0,0.0,-4.8703,-5.1534,-5.3962,-5.4808,-5.6427,-5.7804,-5.8613,-5.9464,-5.9996,-6.0035,-6.1505,-6.2433,-6.2472,-6.2394,-6.2394,-6.2433,-6.2525,-6.253,-6.2491,-6.3511,-6.4022,-6.3983,-6.3983,-6.3983,-6.3983,-6.3983,-6.3029,-6.1524,-6.3185,-6.2967,-6.153,-6.315,-6.2887,-6.122,-5.9475,-5.8738,-5.87,-5.8738,-5.8777,-5.8769,-5.8729,-5.8686,-5.869,-5.869,-5.869,-5.869,-5.869,-5.869,-5.869,-5.869,-5.869,-5.8892,-5.9702,-5.9951,-6.0154,-6.1095,-6.1297,-6.1297,-6.1297,-5.9979,-5.9281,-6.0948,-6.0002,-5.8344,-5.6719,-5.6408,-5.5825,-5.4122,-5.385,0.0,-5.385,-5.4582,-5.5126,-5.5087,-5.5786,-5.6253,-5.6291,-5.4712,-5.444,-5.6175,-5.4712,-5.4518,-5.6175,-5.3805,-5.2484,-5.2478,-5.0784,-5.1102,-5.3589,0.0,0.0,0.0,0.0,0.0,0.0,0.0,0.0,0.0,0.0,0.0,0.0,0.0,0.0,0.0,0.0,0.0,0.0,0.0,0.0,0.0,-5.1179,-5.3197,-5.3162,-5.3959,-5.5331,-5.745,-5.8692,-5.9685,-6.0489,-6.1307,-6.2016,-6.2597,-6.2511,-6.2955,-6.4232,-6.2491,-6.2065,-6.338,-6.3446,-6.3145,-6.2525,-6.402,-6.448,-6.3859,-6.3859,-6.3859,-6.3859,-6.3859,-6.3929,-6.4067,-6.4571,-6.4485,-6.4089,-6.4554,-6.4089,-6.2917,-6.1259,-5.9824,-5.8777,-5.9405,-6.0026,-6.0406,-5.9149,-5.9528,-6.0566,-6.0566,-6.0502,-6.0476,-6.0476,-6.0449,-6.0422,-6.0422,-6.0422,-6.046,-6.0711,-6.0788,-6.0827,-6.1077,-6.1155,-6.1164,-6.1238,-6.0859,-6.0674,-6.122,-6.0934,-6.0298,-5.9233,-5.9068,-5.8661,-5.7573,-5.7418,-5.7418,-5.7418,-5.7612,-5.7535,-5.6952,-5.5961,-5.5612,-5.6253,-5.4653,-5.4361,-5.6135,-5.5797,-5.5426,-5.5285,-5.4587,-5.4185,-5.4156,-5.2464,-5.2225,0.0,0.0,0.0,0.0,0.0,0.0,0.0,0.0,0.0,0.0,0.0,0.0,0.0,0.0,0.0,0.0,0.0,0.0,0.0,0.0,0.0,0.0,-5.2919,-5.5598,-5.7363,-5.73,-5.7772,-5.9614,-6.0623,-6.1462,-6.2267,-6.3094,-6.3765,-6.4241,-6.4454,-6.5035,-6.6032,-6.4629,-6.3952,-6.43,-6.5015,-6.4792,-6.3562,-6.5652,-6.6454,-6.595,-6.595,-6.5765,-6.5442,-6.5442,-6.5131,-6.4627,-6.5355,-6.5231,-6.4593,-6.533,-6.5136,-6.4197,0.0,0.0,0.0,0.0,-6.088,-6.1166,-6.0158,-6.046,-6.1297,-6.1297,-6.1281,-6.1255,-6.1255,-6.0696,-6.0089,-6.0089,-5.9585,-5.916,-5.9895,-6.0089,-6.0282,-6.1027,-6.1182,-6.1182,-6.1182,-6.0648,-6.0377,-6.1083,-6.0674,0.0,-6.0522,-5.998,-5.9078,-5.7875,-5.7681,-5.7681,-5.7681,-5.7991,-5.803,-5.7564,-5.6619,-5.6223,-5.671,-5.4798,0.0,0.0,0.0,-5.4033,-5.2806,-5.2768,0.0,0.0,0.0,-5.1407,-5.2949,-5.2353,0.0,0.0,-5.0232,-4.8491,0.0,0.0,0.0,0.0,0.0,0.0,0.0,0.0,0.0,0.0,0.0,0.0,0.0,0.0,0.0,0.0,-5.4408,-5.7068,-6.0868,-6.0992,-6.09,-6.1524,-6.2377,-6.3216,-6.4028,-6.4873,-6.5416,-6.5523,-6.6805,-6.7668,-6.7745,-6.7425,0.0,0.0,0.0,-6.669,-6.515,-6.7628,-6.8887,-6.8887,-6.8887,-6.8527,-6.7834,-6.7834,-6.6561,-6.4396,-6.5902,-6.5605,-6.4214,-6.5765,-6.5959,-6.5136,-6.4158,-6.3369,-6.2595,-6.1624,-6.1352,-6.1399,-6.1128,0.0,0.0,-6.1314,-6.1314,-6.1306,-6.1306,-6.0212,-5.9002,-5.9002,-5.7878,-5.7025,-5.8575,-5.9002,-5.939,-6.091,-6.1297,-6.1289,-6.1208,-6.0029,-5.9401,-6.0827,-5.9955,-5.9439,-6.0949,-5.9977,-5.8459,-5.6909,-5.6668,-5.6668,-5.6668,-5.7374,-5.78,-5.7684,-5.7412,0.0,-5.7374,-5.5056,-5.4312,-5.6094,-5.3816,-5.1756,-5.0273,-5.004,-4.9251,-4.7777,-4.8551,-5.0131,-5.25,-5.3343,-5.4542,-5.5926,-5.2128,-5.0301,0.0,0.0,0.0,0.0,0.0,0.0,0.0,0.0,0.0,0.0,0.0,0.0,0.0,0.0,0.0,-5.4408,-5.7683,-6.0441,-6.1296,-6.3005,-6.4015,-6.3549,-6.4202,-6.5002,-6.5816,-6.67,-6.7467,-6.813,-6.785,-6.7957,-6.8607,-6.6632,-6.5674,-6.6022,-6.638,-6.638,-6.6032,-6.7938,-6.8887,-6.8887,-6.8887,0.0,-6.8673,-6.8673,-6.8041,-6.6988,-6.7299,-6.6864,-6.5924,-6.6273,-6.6295,-6.5989,-6.439,-6.3701,-6.3283,-6.1081,-6.1167,-6.2059,-5.9993,-6.0194,-6.1391,-6.1391,-6.1337,-6.1306,-6.1306,-6.105,0.0,-6.0793,-6.0561,-6.0367,-6.0716,-6.0793,-6.0871,-6.122,-6.1297,-6.1297,-6.1289,-6.0984,-6.0795,-6.1134,-6.0875,-6.074,-6.105,-6.0928,-6.0677,-6.0367,-6.0289,-6.0289,-6.0289,-6.0444,-6.0289,-5.9583,-5.7629,-5.6653,-5.7335,-5.5025,-5.4265,-5.6009,-5.4312,-5.3127,-5.2787,-5.1432,-5.0844,-5.1231,-5.2082,-5.308,-5.431,-5.5122,-5.5677,-5.595,-5.4503,-5.3823,0.0,0.0,0.0,0.0,0.0,0.0,0.0,0.0,0.0,0.0,0.0,-5.1563,-5.1617,0.0,-5.4861,-5.6634,-5.87,-6.083,-6.3005,-6.4403,-6.5064,-6.4644,-6.5732,-6.6656,-6.706,-6.7875,-6.8566,-6.8968,-6.8989,-6.9157,-6.9517,-6.8694,-6.7997,-6.7541,-6.8354,-6.8393,-6.758,-6.9226,-7.0098,-7.0098,-7.0098,-6.9876,-6.9508,-6.9508,-6.9072,-6.8273,-6.7873,-6.7454,-6.7027,-6.66,-6.6389,-6.6295,-6.5455,-6.4826,-6.4244,-6.2516,-6.2446,-6.2959,-6.1291,-6.1267,-6.1934,-6.1522,-6.1366,-6.1352,-6.1352,-6.0755,-6.0041,-6.0041,-5.9459,-5.8993,-5.9847,-6.0041,-6.0274,-6.1128,-6.1361,-6.1353,-6.1299,-6.1275,-6.1242,-6.1191,-6.1164,-6.1146,-6.1118,-6.1155,-6.1191,-6.1191,-6.1191,-6.1191,-6.1191,-6.1191,-6.1036,-6.061,-5.9005,-5.7998,-5.8015,-5.5999,-5.4937,-5.5426,-5.421,-5.3304,-5.2879,-5.2028,-5.1757,-5.219,-5.3459,-5.434,-5.474,-5.559,-5.5989,-5.5933,-5.5537,-5.5139,0.0,0.0,0.0,0.0,0.0,0.0,0.0,-5.1212,-5.1626,-5.1481,-5.2378,-5.3298,-5.3499,-5.4445,-5.6097,-5.8855,-5.971,-6.1264,-6.4714,-6.5336,-6.553,-6.5693,-6.6936,-6.7868,-6.8024,-6.8839,-6.9422,-6.9578,-7.0205,-7.0511,-7.0466,-7.1078,-7.0805,-6.9389,-7.0617,-7.0655,-6.9329,-7.0645,-7.1291,-7.1291,-7.1291,-7.0965,-7.0349,-7.0349,-6.9876,-6.9072,-6.8127,-6.7687,-6.7609,-6.6764,-6.6414,-6.6414,-6.6411,-6.5967,-6.5261,-6.436,-6.4041,-6.3917,-6.3114,-6.2742,-6.2486,-6.1857,-6.1522,-6.1412,-6.1412,-6.0402,-5.9322,-5.9322,-5.835,-5.7612,-5.8933,-5.9322,-5.9671,-6.1063,-6.1412,-6.1405,-6.1337,-6.1322,-6.1299,-6.1217,-6.1191,-6.1173,-6.1127,-6.1118,-6.1118,-6.1118,-6.1118,-6.1118,-6.1118,-6.1118,-6.1118,-6.1118,-6.0383,-5.9493,-5.8449,-5.6902,-5.5741,-5.5084,-5.4233,-5.342,-5.2724,-5.2539,-5.2453,-5.2445,-5.3992,-5.474,-5.4687,-5.5575,-5.5933,-5.5885,-5.5895,-5.5538,-4.6624,-4.5163,-4.5432,-4.7817,-4.9548,-5.0702,0.0,-5.3031,-5.5016,-5.4227,-5.5534,-5.7063,-5.7839,-5.9381,-6.0674,-6.1063,-6.3005,-6.4636,-6.5141,-6.5887,-6.6625,-6.7402,-6.7674,-6.8101,-6.8878,-6.9694,-7.0471,-7.1248,-7.1403,-7.1456,-7.1443,-7.1511,-7.1445,-7.1204,-7.1319,-7.1288,-7.1095,-7.1246,-7.1291,-7.1291,-7.1291,-7.1264,-7.1186,-7.1186,-7.0754,-6.9876,-6.8342,-6.7687,-6.7656,-6.6835,-6.6501,-6.6493,-6.6414,-6.6359,-6.6157,-6.5269,-6.4915,-6.4763,-6.3955,-6.3183,-6.2595,-6.2486,-6.1966,-6.1412,-6.1412,-6.1257,-6.1102,-6.1102,-6.0985,-6.0868,-6.1063,-6.1102,-6.114,-6.1335,-6.1412,-6.1412,-6.1373,-6.1344,-6.1306,-6.1297,-6.1255,-6.1173,-6.1127,-6.1118,-6.1118,-6.1118,-6.1118,-6.1118,-6.1118,-6.1118,-6.1118,-6.1118,-6.0383,-5.9223,-5.7589,-5.6545,-5.5973,-5.5857,-5.5084,-5.4619,-5.4503,-5.3768,-5.3326,-5.3284,-5.4211,-5.4687,-5.4593,-5.548,-5.5885,-5.5797,-5.5875,-5.5866,-4.8903,-4.9009,-4.974,-5.0818,-5.2356,-5.3741,-5.422,-5.5091,-5.5835,-5.603,-5.7137,-5.838,-5.9281,-6.0126,-6.1303,-6.3277,-6.3711,-6.4255,-6.577,-6.6275,-6.6819,-6.7713,-6.7363,-6.7402,-6.8257,-7.0005,-7.0782,-7.0199,-7.1054,-7.1564,-7.1523,-7.1589,-7.1571,-7.1455,-7.1425,-7.1415,-7.1415,-7.1324,-7.1291,-7.1291,-7.1291,-7.1291,-7.1291,-7.1291,-7.0859,-7.0049,-6.9401,-6.8566,-6.7648,-6.7354,-6.6912,-6.6508,-6.6485,-6.6422,-6.6359,-6.5932,-6.5779,-6.5644,-6.4772,-6.4286,-6.3848,-6.2889,-6.2377,-6.2004,-6.1522,-6.1412,-6.1412,-6.1412,-6.1412,-6.1412,-6.1412,-6.1412,-6.1412,-6.1412,-6.1412,-6.1412,-6.1412,-6.1366,-6.1337,-6.1314,-6.1281,-6.1208,-6.1127,-6.1118,-6.1118,-6.1118,-6.1118,-6.1118,-6.1118,-6.1118,-6.1118,-6.1118,-5.9919,-5.8836,-5.8101,-5.6786,-5.6012,-5.6012,-5.5238,-5.4813,-5.4813,-5.4401,-5.4181,-5.4164,-5.4977,-5.5364,-5.5316,-5.5663,-5.5797,-5.5745,-5.5766,-5.5776,-5.0048,-5.1048,-5.2087,-5.328,-5.4626,-5.5972,-5.7088,-5.689,-5.675,-5.7698,-5.8442,-5.9276,-6.0459,-6.0926,-6.2027,-6.4738,-6.4364,-6.4372,-6.6237,-6.6508,-6.6742,-6.7363,-6.6897,-6.6586,-6.6742,-6.9267,-7.0588,-6.9849,-7.0898,-7.1573,-7.1541,-7.155,-7.1571,-7.1465,-7.1425,-7.1415,-7.1415,-7.1324,-7.1291,-7.1291,-7.1291,-7.1291,-7.1291,-7.1291,-7.0965,-7.0416,-7.0204,-6.9295,-6.8019,-6.7803,-6.7246,-6.6508,-6.6508,-6.6485,-6.6414,-6.6338,-6.6331,-6.6225,-6.5548,-6.5199,-6.4802,-6.3624,-6.2967,-6.2486,-6.1895,-6.156,-6.1412,-6.1412,-6.1412,-6.1412,-6.1412,-6.1412,-6.1412,-6.1412,-6.1412,-6.1412,-6.1412,-6.1412,-6.1391,-6.1314,-6.1297,-6.1272,-6.1137,-6.1118,-6.1118,-6.1118,-6.1118,-6.1118,-6.1118,-6.1118,-6.1118,-6.1118,-5.9609,-5.8613,-5.8613,-5.7018,-5.6012,-5.6012,-5.5453,-5.5144,-5.5144,-5.5053,-5.5025,-5.5007,-5.5586,-5.5855,-5.5766,-5.5766,-5.5745,-5.5703,-5.5703,-5.5703,-4.8971,-4.8856,-4.924,-5.3433,-5.5088,-5.6165,-5.7857,-5.8242,-5.8506,-5.9444,-5.9698,-6.0307,-6.2111,-6.3167,-6.4116,-6.5056,-6.5864,-6.6392,-6.6508,-6.6508,-6.6508,-6.6547,-6.6508,-6.5887,-6.4255,-6.7169,-6.9849,-7.1403,-7.1559,-7.1598,-7.1598,-7.1594,-7.1598,-7.1598,-7.1465,-7.1415,-7.1415,-7.1324,-7.1291,-7.1291,-7.1291,-7.1291,-7.1291,-7.1291,-7.1291,-7.1225,-7.0455,-6.9614,-6.878,-6.8019,-6.7246,-6.6508,-6.6508,-6.6508,-6.6501,-6.6414,-6.6346,-6.6303,-6.6205,-6.5635,-6.4977,-6.4947,-6.3886,-6.2595,-6.2556,-6.2004,-6.1412,-6.1412,-6.1412,-6.1412,-6.1412,-6.1412,-6.1412,-6.1412,-6.1412,-6.1412,-6.1412,-6.1412,-6.1391,-6.1314,-6.1297,-6.1272,-6.1137,-6.1118,-6.1118,-6.1118,-6.1118,-6.1118,-6.1118,-6.1118,-6.1118,-6.1118,-5.9609,-5.8613,-5.8613,-5.7018,-5.6012,-5.6012,-5.5968,-5.598,-5.598,-5.5885,-5.5837,-5.5758,-5.5797,-5.5766,-5.5714,-5.5714,-5.5714,-5.5703,-5.5703,-5.5703,-4.924,-5.0856,-5.2818,-5.478,-5.6357,-5.7703,-5.8858,-5.8688,-5.8539,-5.9468,-5.8838,-5.8508,-5.9675,-5.9722,-6.0445,-6.3037,-6.2773,-6.3254,-6.6112,-6.4566,-6.4411,-6.7829,-6.6237,-6.5965,-6.8762,-6.9072,-6.8839,-6.8257,-7.0316,-7.1589,-7.1594,-7.1616,-7.1589,-7.1552,-7.1455,-7.1415,-7.1415,-7.1324,-7.1291,-7.1291,-7.1291,-7.1291,-7.1291,-7.1291,-7.1291,-7.1291,-7.1004,-7.0455,-6.9614,-6.8819,-6.8019,-6.7246,-6.6687,-6.6508,-6.6501,-6.6422,-6.6403,-6.6349,-6.6303,-6.607,-6.5712,-6.5161,-6.4617,-6.3994,-6.2928,-6.2409,-6.2082,-6.156,-6.1412,-6.1412,-6.1412,-6.1412,-6.1412,-6.1412,-6.1412,-6.1412,-6.1412,-6.1412,-6.1391,-6.1314,-6.1297,-6.1272,-6.1137,-6.1118,-6.1118,-6.1118,-6.1118,-6.1118,-6.1118,-6.1118,-6.1118,-6.1118,-5.9609,-5.8613,-5.8613,-5.7018,-5.5995,-5.5998,-5.5989,-5.6,-5.5924,-5.5875,-5.5807,-5.5797,-5.5756,-5.5724,-5.5703,-5.5703,-5.5703,-5.5703,-5.5703,-5.5703,-5.0356,-5.2818,-5.528,-5.6703,-5.8127,-5.9319,-5.9858,-5.9573,-5.9337,-5.9937,-5.9482,-5.9022,-5.9012,-5.8833,-5.9567,-6.212,-6.1656,-6.2269,-6.5942,-6.4862,-6.4799,-6.7829,-6.6508,-6.6508,-6.95,-6.9383,-6.8645,-6.7519,-6.9461,-7.0688,-7.0693,-7.0675,-7.092,-7.1494,-7.1445,-7.1405,-7.1345,-7.1313,-7.1291,-7.1291,-7.1291,-7.1291,-7.1291,-7.1291,-7.0789,-6.9976,-7.0905,-7.0318,-6.8743,-6.8868,-6.842,-6.7618,-6.6804,-6.6508,-6.6501,-6.6439,-6.6428,-6.6376,-6.6322,-6.6274,-6.6118,-6.5606,-6.5238,-6.4763,-6.3438,-6.2812,-6.2447,-6.1638,-6.1412,-6.1412,-6.1412,-6.1412,-6.1412,-6.1412,-6.1412,-6.1412,-6.1412,-6.1412,-6.1391,-6.1314,-6.1297,-6.1272,-6.1137,-6.1118,-6.1118,-6.1118,-6.1118,-6.1118,-6.1118,-6.1118,-6.1118,-6.1118,-5.9609,-5.8604,-5.8586,-5.6991,-5.5998,-5.5952,-5.5933,-5.5914,-5.5875,-5.5787,-5.5766,-5.5766,-5.5724,-5.5703,-5.5703,-5.5703,-5.5703,-5.5703,-5.5703,-5.5703,-5.2125,-5.4511,-5.6472,-5.8934,-6.0204,-6.0781,-6.0781,-6.0781,-6.0804,-6.0784,-6.1257,-6.1241,-5.9598,-5.9969,-6.0886,-6.1958,-6.2228,-6.3193,-6.5902,-6.7029,-6.7285,-6.6586,-6.7285,-6.7519,-6.6819,-6.8257,-6.9189,-6.9111,-6.9189,-6.9228,-6.9228,-6.9179,-6.9873,-7.1455,-7.1445,-7.1394,-7.1291,-7.1291,-7.1291,-7.1291,-7.1291,-7.1291,-7.1291,-7.1291,-6.9976,-6.7849,-7.0247,-6.9505,-6.669,-6.8248,-6.8458,-6.7687,-6.6843,-6.6508,-6.6508,-6.6508,-6.6453,-6.6376,-6.6331,-6.6274,-6.6185,-6.6185,-6.5674,-6.4909,-6.4063,-6.3261,-6.2486,-6.1638,-6.1412,-6.1412,-6.1412,-6.1412,-6.1412,-6.1412,-6.1412,-6.1412,-6.1412,-6.1412,-6.1391,-6.1314,-6.1297,-6.1264,-6.1137,-6.1118,-6.1118,-6.1109,-6.107,-6.1118,-6.1118,-6.1118,-6.107,-6.107,-5.9609,-5.8547,-5.85,-5.6946,-5.5991,-5.5895,-5.5855,-5.5787,-5.5787,-5.5735,-5.5703,-5.5703,-5.5703,-5.5703,-5.5703,-5.5703,-5.5703,-5.5703,-5.5703,-5.5703,-5.2895,-5.5818,-5.8858,-6.0127,-6.0627,-6.0781,-6.0781,-6.0781,-6.0446,-5.9226,-5.7643,-5.5941,-5.4265,-5.3193,-5.3868,-5.8015,-5.8188,-5.9405,-6.3961,-6.4248,-6.4605,-6.6314,-6.7285,-6.8451,-7.0121,-7.0704,-7.0432,-6.9189,-7.0277,-7.0976,-7.0976,-7.0934,-7.1114,-7.1494,-7.1445,-7.1394,-7.1291,-7.1291,-7.1291,-7.1291,-7.1291,-7.1291,-7.1291,-7.1291,-7.0943,-7.0363,-7.1021,-7.0838,-6.9969,-6.9208,-6.878,-6.8458,-6.706,-6.6508,-6.6508,-6.6508,-6.6453,-6.6385,-6.6367,-6.6303,-6.6185,-6.6185,-6.6079,-6.5635,-6.4209,-6.3662,-6.3183,-6.1786,-6.1412,-6.1412,-6.1412,-6.1412,-6.1412,-6.1412,-6.1412,-6.1412,-6.1412,-6.1412,-6.1391,-6.1314,-6.1208,-6.1146,-6.1118,-6.1118,-6.107,-6.1032,-6.1022,-6.1041,-6.107,-6.1051,-6.1022,-6.1022,-5.9476,-5.8442,-5.8432,-5.6879,-5.5895,-5.5817,-5.5797,-5.5776,-5.5735,-5.5714,-5.5703,-5.5703,-5.5703,-5.5703,-5.5703,-5.5703,-5.5703,-5.5703,-5.5703,-5.5703,-5.5665,-5.7973,-6.0204,-6.0666,-6.0781,-6.0512,-5.9396,-5.9138,-5.855,-5.6511,-5.5224,-5.3859,-5.1828,-5.1325,-5.2571,-5.667,-5.7295,-5.8839,-6.3301,-6.4194,-6.4916,-6.6314,-6.7596,-6.9228,-7.1403,-7.1598,-7.1209,-7.0277,-7.0393,-7.051,-7.051,-7.0485,-7.0822,-7.1494,-7.1465,-7.1415,-7.1291,-7.1291,-7.1291,-7.1291,-7.1291,-7.1291,-7.1291,-7.1291,-7.0672,-6.9705,-7.0789,-7.0672,-6.96,-6.9082,-6.8887,-6.8751,-6.7129,-6.6508,-6.6508,-6.6508,-6.6453,-6.6385,-6.6385,-6.6312,-6.6185,-6.6185,-6.6185,-6.5896,-6.4286,-6.3809,-6.3477,-6.1857,-6.1412,-6.1412,-6.1412,-6.1412,-6.1412,-6.1412,-6.1412,-6.1412,-6.1412,-6.1366,-6.1329,-6.1281,-6.1155,-6.1051,-6.1051,-6.106,-6.1041,-6.101,-6.1,-6.101,-6.1041,-6.1021,-6.0856,-6.047,-5.9204,-5.8238,-5.788,-5.6598,-5.5845,-5.5756,-5.5756,-5.5745,-5.5703,-5.5703,-5.5703,-5.5703,-5.5703,-5.5703,-5.5703,-5.5703,-5.5703,-5.5703,-5.5703,-5.5703,-5.8627,-5.9973,-6.0781,-6.0781,-6.0781,-6.0204,-5.8022,-5.7253,-5.6329,-5.3857,-5.3626,-5.3203,-5.1241,-5.2098,-5.4014,-5.6744,-5.8136,-5.9824,-6.2577,-6.5017,-6.6423,-6.6198,-6.7907,-6.9772,-7.1442,-7.1403,-7.1365,-7.1559,-7.0238,-6.9422,-6.9422,-6.9422,-7.008,-7.1465,-7.1494,-7.1445,-7.1313,-7.1313,-7.1313,-7.1313,-7.1313,-7.1302,-7.1302,-7.1302,-7.0092,-6.8119,-7.0324,-7.0054,-6.8052,-6.8656,-6.8887,-6.8751,-6.7129,-6.6508,-6.6508,-6.6508,-6.6453,-6.6385,-6.6385,-6.6312,-6.6185,-6.6185,-6.6185,-6.5896,-6.4286,-6.3809,-6.3477,-6.1857,-6.1412,-6.1412,-6.1412,-6.1412,-6.1412,-6.1412,-6.1412,-6.1412,-6.1412,-6.1344,-6.1291,-6.1199,-6.1109,-6.1002,-6.0992,-6.099,-6.0987,-6.0987,-6.0976,-6.0976,-6.0976,-6.0976,-6.064,-5.9801,-5.8893,-5.8024,-5.7174,-5.6287,-5.5756,-5.5714,-5.5703,-5.5703,-5.5703,-5.5703,-5.5703,-5.5703,-5.5703,-5.5703,-5.5703,-5.5703,-5.5703,-5.5703,-5.5703,-5.5703,-5.7692,-5.9088,-6.0781,-6.0781,-6.0781,-6.0666,-6.0242,-5.8523,-5.6483,-5.4664,-5.2164,-5.0587,-5.151,-5.203,-5.3386,-5.6666,-5.8592,-5.942,-5.8707,-6.3154,-6.6011,-6.4605,-6.7208,-6.9772,-7.1442,-7.0354,-7.0121,-7.1481,-7.1326,-7.117,-7.117,-7.117,-7.1301,-7.155,-7.1513,-7.1485,-7.1465,-7.1465,-7.1465,-7.1465,-7.1425,-7.1366,-7.1366,-7.1313,-7.1059,-7.0672,-7.1098,-7.1059,-7.0567,-6.9392,-6.8887,-6.8751,-6.7129,-6.6508,-6.6508,-6.6508,-6.6453,-6.6385,-6.6385,-6.6312,-6.6185,-6.6185,-6.6185,-6.5896,-6.4286,-6.3809,-6.3477,-6.1857,-6.1412,-6.1412,-6.1412,-6.1412,-6.1412,-6.1412,-6.1412,-6.1412,-6.1412,-6.1361,-6.1242,-6.1146,-6.1041,-6.0992,-6.1018,-6.0997,-6.0976,-6.0933,-6.0922,-6.0911,-6.0816,-6.09,-6.0575,-5.9689,-5.8836,-5.7956,-5.7071,-5.6225,-5.5714,-5.5703,-5.5703,-5.5703,-5.5703,-5.5703,-5.5703,-5.5703,-5.5703,-5.5703,-5.5703,-5.5703,-5.5703,-5.5703,-5.5703,-5.5703,-5.7588,-5.8858,-6.0781,-6.0781,-6.0781,-6.0089,-5.7434,-5.5895,-5.4049,-5.0587,-4.8548,-4.7663,-4.8471,-4.9044,-5.0966,-5.5759,-5.7666,-5.9069,-6.0577,-6.4061,-6.6151,-6.5374,-6.7557,-6.9422,-7.0238,-6.915,-6.8956,-7.0199,-6.9888,-7.0199,-7.152,-7.1611,-7.1586,-7.1607,-7.1513,-7.1494,-7.1494,-7.1494,-7.1494,-7.1494,-7.1435,-7.1415,-7.1415,-7.1324,-7.1291,-7.1291,-7.1258,-7.0512,-6.9248,-6.8942,-6.8006,-6.6777,-6.6456,-6.6329,-6.6329,-6.6329,-6.6283,-6.6225,-6.6225,-6.6165,-6.6091,-6.6091,-6.6134,-6.5896,-6.4286,-6.3809,-6.3477,-6.1857,-6.1352,-6.1314,-6.1314,-6.1314,-6.1306,-6.1259,-6.125,-6.1242,-6.1186,-6.1182,-6.1127,-6.1051,-6.099,-6.0948,-6.0955,-6.0922,-6.09,-6.0866,-6.0866,-6.0854,-6.0793,-6.0843,-6.0519,-5.9634,-5.8792,-5.7934,-5.706,-5.6214,-5.5703,-5.5703,-5.5703,-5.5703,-5.5703,-5.5703,-5.5703,-5.5703,-5.5703,-5.5703,-5.5703,-5.5703,-5.5703,-5.5703,-5.5703,-5.5703,-5.8215,-5.9281,-6.0781,-6.0781,-6.0781,-5.9627,-5.5049,-5.3587,-5.1895,-4.7355,-4.5979,-4.5825,-4.6556,-4.7246,-4.9572,-5.5258,-5.65,-5.8213,-6.2405,-6.4511,-6.5793,-6.6423,-6.8024,-6.9228,-6.9616,-6.8684,-6.8529,-6.9578,-6.8995,-6.95,-7.1481,-7.1603,-7.1616,-7.1616,-7.1541,-7.1523,-7.1523,-7.1523,-7.1523,-7.1523,-7.1465,-7.1425,-7.1415,-7.1302,-7.1269,-7.1247,-7.1201,-6.9722,-6.7443,-6.8342,-6.7183,-6.5002,-6.5856,-6.6185,-6.6185,-6.6185,-6.6155,-6.6102,-6.6102,-6.6058,-6.6001,-6.6001,-6.6069,-6.5856,-6.4241,-6.3765,-6.3434,-6.1811,-6.1244,-6.1195,-6.1195,-6.1195,-6.1178,-6.1098,-6.1118,-6.106,-6.1012,-6.1002,-6.0982,-6.0987,-6.0944,-6.0911,-6.09,-6.0816,-6.0781,-6.0781,-6.0781,-6.0781,-6.0781,-6.0781,-6.055,-5.9858,-5.8896,-5.7934,-5.706,-5.6214,-5.5703,-5.5703,-5.5703,-5.5703,-5.5703,-5.5703,-5.5703,-5.5703,-5.5703,-5.5703,-5.5703,-5.5703,-5.5703,-5.5703,-5.5703,-5.5703,-5.9896,-6.0627,-6.0781,-6.0781,-6.0781,-6.005,-5.7269,-5.4846,-5.2395,-4.9625,-4.721,-4.6556,-4.9673,-5.0336,-5.1885,-5.6368,-5.5884,-5.6205,-5.9855,-6.1857,-6.3829,-6.6229,-6.8024,-6.9694,-7.1209,-6.9927,-6.9655,-7.1248,-7.1287,-7.1365,-7.1598,-7.1598,-7.1598,-7.1598,-7.1589,-7.1589,-7.1589,-7.1589,-7.1589,-7.1589,-7.1532,-7.1465,-7.1415,-7.1269,-7.1178,-7.1118,-7.1118,-6.9652,-6.7386,-6.832,-6.7183,-6.5002,-6.5856,-6.6185,-6.6185,-6.6185,-6.6155,-6.6102,-6.6102,-6.6058,-6.6001,-6.6001,-6.6013,-6.5727,-6.4093,-6.3611,-6.3273,-6.1592,-6.1137,-6.1089,-6.1089,-6.1089,-6.1127,-6.1118,-6.1118,-6.106,-6.1012,-6.1002,-6.0972,-6.0944,-6.0911,-6.0888,-6.0804,-6.0793,-6.0781,-6.0781,-6.0781,-6.0781,-6.0781,-6.0781,-6.0781,-6.0704,-5.9242,-5.7934,-5.706,-5.6214,-5.5703,-5.5703,-5.5703,-5.5703,-5.5703,-5.5703,-5.5703,-5.5703,-5.5703,-5.5703,-5.5703,-5.5703,-5.5703,-5.5703,-5.5703,-5.5703,-5.6357,-5.8473,-6.0781,-6.0781,-6.0781,-5.9742,-5.5626,-5.3933,-5.2049,-4.7932,-4.6326,-4.6018,-4.7364,-4.7652,-4.8929,-5.2741,-5.2807,-5.4306,-5.993,-6.1793,-6.3929,-6.7556,-6.9095,-6.9888,-7.0083,-6.9034,-6.8606,-6.9267,-6.9811,-7.0549,-7.1559,-7.1598,-7.1598,-7.1598,-7.1598,-7.1589,-7.1594,-7.1594,-7.1568,-7.1474,-7.1396,-7.1334,-7.1269,-7.119,-7.113,-7.1093,-7.1056,-6.8743,-6.5118,-6.7523,-6.6097,-6.2678,-6.508,-6.6017,-6.6017,-6.6017,-6.5993,-6.5982,-6.5982,-6.5958,-6.5933,-6.5933,-6.5587,-6.4956,-6.3934,-6.359,-6.3253,-6.1563,-6.1032,-6.0982,-6.0982,-6.0931,-6.0938,-6.0962,-6.0931,-6.0916,-6.0894,-6.0894,-6.0883,-6.0827,-6.0854,-6.0816,-6.0793,-6.0781,-6.0781,-6.0781,-6.0781,-6.0781,-6.0781,-6.0781,-6.0781,-6.0781,-5.9319,-5.8165,-5.7819,-5.6511,-5.5703,-5.5703,-5.5703,-5.5703,-5.5703,-5.5703,-5.5703,-5.5703,-5.5703,-5.5703,-5.5703,-5.5703,-5.5703,-5.5703,-5.5703,-5.5703,-5.4857,-5.7703,-6.0781,-6.0781,-6.0242,-5.855,-5.4203,-5.2433,-5.0471,-4.6124,-4.5017,-4.494,-4.5171,-4.521,-4.6429,-5.0168,-5.1005,-5.3267,-5.919,-6.1303,-6.3602,-6.7415,-6.8846,-6.96,-6.9811,-6.9267,-6.8909,-6.8885,-6.9459,-7.0305,-7.1443,-7.152,-7.1547,-7.1598,-7.1598,-7.1611,-7.158,-7.158,-7.1494,-7.1355,-7.1291,-7.0849,-7.0035,-7.0746,-7.0632,-6.9939,-7.0684,-6.836,-6.4354,-6.7218,-6.5705,-6.182,-6.4743,-6.5897,-6.5897,-6.5897,-6.5897,-6.5897,-6.5897,-6.5897,-6.5897,-6.5897,-6.532,-6.446,-6.3742,-6.3362,-6.2871,-6.1397,-6.0931,-6.0867,-6.0867,-6.085,-6.0804,-6.0845,-6.0839,-6.0781,-6.0781,-6.0781,-6.0781,-6.0781,-6.0781,-6.0781,-6.0781,-6.0781,-6.0781,-6.0781,-6.0781,-6.0781,-6.0781,-6.0781,-6.0781,-6.0781,-5.9511,-5.855,-5.8319,-5.6934,-5.5972,-5.5703,-5.5703,-5.5703,-5.5703,-5.5703,-5.5703,-5.5703,-5.5703,-5.5703,-5.5703,-5.5703,-5.5703,-5.5703,-5.5703,-5.5703,-5.7088,-5.9511,-6.0781,-6.0781,-5.8907,-5.6368,-5.378,-5.0587,-4.7432,-4.4855,-4.3662,-4.3355,-4.4162,-4.4316,-4.5727,-5.0094,-5.1536,-5.3305,-5.6833,-5.9585,-6.2203,-6.4939,-6.6694,-6.8721,-7.1326,-7.1559,-7.1525,-7.1465,-7.1455,-7.1406,-7.1302,-7.1302,-7.1396,-7.1598,-7.1598,-7.1556,-7.1494,-7.1494,-7.1445,-7.1291,-7.1236,-6.9803,-6.7331,-6.9849,-6.9553,-6.7203,-6.9756,-6.8975,-6.6013,-6.7705,-6.6359,-6.3474,-6.5205,-6.5897,-6.5897,-6.5897,-6.5897,-6.5897,-6.5897,-6.5897,-6.5897,-6.5897,-6.532,-6.4436,-6.3589,-6.2743,-6.1947,-6.1062,-6.0793,-6.0781,-6.0781,-6.0781,-6.0781,-6.0781,-6.0781,-6.0781,-6.0781,-6.0781,-6.0781,-6.0781,-6.0781,-6.0781,-6.0781,-6.0781,-6.0781,-6.0781,-6.0781,-6.0781,-6.0781,-6.0781,-6.0781,-6.0781,-6.0012,-5.9165,-5.8357,-5.7473,-5.6637,-5.5742,-5.5703,-5.5703,-5.5703,-5.5703,-5.5703,-5.5703,-5.5703,-5.5703,-5.5703,-5.5703,-5.5703,-5.5703,-5.5703,-5.5703,-5.0971,-5.3433,-5.5626,-5.5626,-5.5011,-5.3587,-5.0433,-4.8894,-4.724,-4.4124,-4.3278,-4.3355,-4.4162,-4.4316,-4.5719,-5.0046,-5.0951,-5.3195,-5.9003,-6.0539,-6.2694,-6.7145,-6.913,-7.0495,-7.1319,-7.0312,-7.0108,-7.1268,-7.0261,-7.0085,-7.1253,-7.1291,-7.1324,-7.1396,-7.1396,-7.1366,-7.1291,-7.1291,-7.1224,-7.1093,-7.1081,-6.9682,-6.7205,-6.9784,-6.9527,-6.7218,-6.9783,-6.9013,-6.6013,-6.7705,-6.6397,-6.3462,-6.5205,-6.5897,-6.5897,-6.5897,-6.5897,-6.5897,-6.5897,-6.5897,-6.5897,-6.5897,-6.4897,-6.3666,-6.3397,-6.2743,-6.1908,-6.105,-6.0781,-6.0781,-6.0781,-6.0781,-6.0781,-6.0781,-6.0781,-6.0781,-6.0781,-6.0781,-6.0781,-6.0781,-6.0781,-6.0781,-6.0781,-6.0781,-6.0781,-6.0781,-6.0781,-6.0781,-6.0781,-6.0781,-6.0781,-6.0781,-6.055,-6.005,-5.9204,-5.7819,-5.6868,-5.6599,-5.6011,-5.5703,-5.5703,-5.5703,-5.5703,-5.5703,-5.5703,-5.5703,-5.5703,-5.5703,-5.5703,-5.5703,-5.5703,-5.5703,-4.7663,-5.0125,-5.2318,-5.2626,-5.201,-5.0741,-4.8586,-4.7124,-4.5547,-4.3124,-4.3355,-4.4008,-4.3855,-4.4893,-4.6402,-4.844,-5.0923,-5.3803,-5.7149,-5.9562,-6.245,-6.6387,-6.8622,-7.0258,-7.1214,-7.0324,-7.0109,-7.1147,-7.022,-7.0081,-7.1077,-7.1154,-7.1154,-7.1154,-7.1247,-7.1258,-7.1166,-7.1166,-7.1106,-7.0965,-7.0965,-6.9578,-6.7141,-6.9731,-6.95,-6.7218,-6.9769,-6.936,0.0,-6.7975,-6.6782,-6.4397,-6.5474,-6.5897,-6.5897,-6.5897,-6.5897,-6.5897,-6.5897,-6.5897,-6.5859,-6.5513,-6.4243,-6.2781,-6.2474,-6.2012,-6.1512,-6.0935,-6.0781,-6.0781,-6.0781,-6.0781,-6.0781,-6.0781,-6.0781,-6.0781,-6.0781,-6.0781,-6.0781,-6.0781,-6.0781,-6.0781,-6.0781,-6.0781,-6.0781,-6.0781,-6.0781,-6.0781,-6.0781,-6.0781,-6.0781,-6.0781,-6.0781,-6.0589,-6.005,-5.8742,-5.7676,-5.706,-5.6483,-5.6049,-5.5703,-5.5703,-5.5703,-5.5703,-5.5703,-5.5703,-5.5703,-5.5703,-5.5703,-5.5703,-5.5703,-5.5703,0.0,-4.8817,-5.0317,-5.1077,-4.95,-4.774,-4.7663,-4.524,0.0,-4.22,-4.4008,-4.5248,-4.3739,-4.624,-4.8009,-4.6249,-5.1482,-5.4978,-5.2589,-5.7408,-6.1741,-6.3232,-6.5961,-6.8612,-7.0805,-7.1153,-7.1224,-7.1093,-7.1081,-7.103,-7.0912,-7.0898,-7.0898,-7.0898,-7.1142,-7.1213,-7.1081,-7.1081,-7.0953,-7.0629,-7.0821,-6.9448,-6.6819,-6.964,-6.9487,-6.7165,-6.9717,-6.9898,-6.8385,-6.8321,-6.7359,-6.5897,-6.5897,-6.5897,-6.5897,-6.5897,-6.5897,-6.5897,-6.5897,-6.5897,-6.5743,-6.482,-6.3435,-6.1947,-6.105,-6.0781,-6.0781,-6.0781,-6.0781,-6.0781,-6.0781,-6.0781,-6.0781,-6.0781,-6.0781,-6.0781,-6.0781,-6.0781,-6.0781,-6.0781,-6.0781,-6.0781,-6.0781,-6.0781,-6.0781,-6.0781,-6.0781,-6.0781,-6.0781,-6.0781,-6.0781,-6.0781,-6.0781,-6.0781,-6.0781,-6.0012,-5.8858,-5.7291,-5.7137,-5.6753,-5.5934,-5.5818,-5.578,-5.578,-5.5742,-5.5703,-5.5703,-5.5703,-5.5703,-5.5703,-5.5703,-5.5703,-4.2016,0.0,-4.4932,-4.5124,-4.4739,-4.4085,0.0,-4.2654,-4.2585,-4.4355,-4.5701,-4.6663,-4.6894,-5.024,-5.2241,-4.9865,-5.2992,-5.5514,-5.4978,-5.9496,-6.2502,-6.1554,-6.6562,-6.9579,-6.8231,-6.9849,-7.0979,-7.0952,-7.0952,-7.0939,-7.0898,-7.0898,-7.0898,-7.0898,-7.0965,-7.0979,-7.0952,-7.0952,-6.9938,-6.8013,-6.9975,-6.8538,-6.4334,-6.8846,-6.9513,-6.7192,-6.9129,-6.9398,-6.8359,-6.7667,-6.6821,-6.5897,-6.5897,-6.5897,-6.5897,-6.5897,-6.5897,-6.5897,-6.5897,-6.5897,-6.5628,-6.4128,-6.2935,-6.1947,-6.105,-6.0781,-6.0781,-6.0781,-6.0781,-6.0781,-6.0781,-6.0781,-6.0781,-6.0781,-6.0781,-6.0781,-6.0781,-6.0781,-6.0781,-6.0781,-6.0781,-6.0781,-6.0781,-6.0781,-6.0781,-6.0781,-6.0781,-6.0781,-6.0781,-6.0781,-6.0781,-6.0781,-6.0781,-6.0781,-6.0781,-6.0012,-5.9319,-5.8934,-5.8319,-5.7896,-5.7703,-5.7049,-5.6676,-5.6676,-5.6049,-5.5703,-5.5703,-5.5703,-5.5703,-5.5703,-5.5703,-5.5703,-4.0516,-4.1208,-4.2393,-4.4355,-4.3662,-4.2777,-4.3885,-4.2923,-4.2508,-4.5056,-4.6278,-4.7154,-4.7971,-5.0317,-5.1856,-5.0866,-5.2212,-5.4213,-5.6592,-5.9991,-6.2021,-6.1447,-6.4974,-6.7321,-6.7128,-6.9398,-7.0898,-7.0898,-7.0898,-7.0898,-7.0898,-7.0898,-7.0898,-7.0898,-7.0898,-7.0898,-7.0898,-7.0898,-6.9629,-6.7128,-6.9667,-6.8821,-6.5166,-6.9129,-7.0167,-6.8821,-6.859,-6.8475,-6.8282,-6.6628,-6.5936,-6.5897,-6.5897,-6.5897,-6.5897,-6.5897,-6.5897,-6.5897,-6.5897,-6.5397,-6.4551,-6.3628,-6.2474,-6.1408,-6.0935,-6.0781,-6.0781,-6.0781,-6.0781,-6.0781,-6.0781,-6.0781,-6.0781,-6.0781,-6.0781,-6.0793,-6.0854,-6.0866,-6.0827,-6.09,-6.09,-6.09,-6.09,-6.09,-6.09,-6.09,-6.0877,-6.0866,-6.0866,-6.0804,-6.0781,-6.0781,-6.0781,-6.0781,-6.0781,-6.0358,-5.9935,-5.9511,-5.9088,-5.8704,-5.8319,-5.7473,-5.683,-5.6406,-5.5934,-5.5703,-5.5703,-5.5703,-5.5703,-5.5703,-5.5703,-5.5703,-4.0516,-4.0593,-4.1662,-4.5701,-4.4124,-4.2508,-4.5932,-4.4047,-4.2547,-4.5893,-4.7278,-4.8125,-4.8933,-5.0625,-5.1664,-5.0827,-5.1135,-5.2972,-5.7319,-5.9704,-6.1166,-6.1639,-6.3243,-6.5013,-6.6898,-6.9398,-7.0898,-7.0898,-7.0898,-7.0898,-7.0898,-7.0898,-7.0898,-7.0898,-7.0898,-7.0898,-7.0898,-7.0898,-6.9629,-6.7128,-6.9667,-6.9552,-6.7167,-6.9744,-7.0821,-7.0591,-6.8282,-6.7628,-6.8013,-6.5743,-6.5243,-6.5897,-6.5897,-6.5897,-6.5897,-6.5897,-6.5897,-6.5859,-6.5743,-6.4666,-6.3281,-6.3166,-6.2089,-6.0781,-6.0781,-6.0781,-6.0781,-6.0781,-6.0781,-6.0781,-6.0781,-6.0781,-6.0781,-6.0781,-6.0781,-6.0843,-6.09,-6.0911,-6.0922,-6.0976,-6.0987,-6.0987,-6.0987,-6.0987,-6.0987,-6.0987,-6.0944,-6.0911,-6.0911,-6.0816,-6.0781,-6.0781,-6.0781,-6.0781,-6.0781,-6.0781,-6.0473,-5.9742,-5.9704,-5.9281,-5.8357,-5.7588,-5.6753,-5.5703,-5.5703,-5.5703,-5.5703,-5.5703,-5.5703,-5.5703,-5.5703,-5.5703,-4.0516,-4.1046,-4.2277,-4.5086,-4.3247,-4.1593,-4.5017,-4.317,-4.2662,-4.951,-5.1625,-5.251,-5.3356,-5.8896,-6.0589,-5.2097,-5.3097,-5.5203,-5.5972,-5.9435,-6.1408,-6.005,-6.5128,-6.8282,-6.7205,-6.9398,-7.0898,-7.0898,-7.0898,-7.0898,-7.0898,-7.0898,-7.0898,-7.0898,-7.0898,-7.0898,-7.0898,-7.0898,-6.9629,-6.7128,-6.9667,-6.9552,-6.7167,-6.9744,-7.0514,-6.9821,-6.8706,-6.7859,-6.7205,-6.6128,-6.5782,-6.5897,-6.5897,-6.5897,-6.5897,-6.5897,-6.5897,-6.5782,-6.5051,-6.4128,-6.3205,-6.2512,-6.1589,-6.0781,-6.0781,-6.0781,-6.0781,-6.0781,-6.0781,-6.0781,-6.0781,-6.0781,-6.0781,-6.0781,-6.0781,-6.0843,-6.09,-6.0911,-6.0922,-6.0976,-6.0987,-6.0987,-6.0987,-6.0987,-6.0987,-6.0987,-6.0944,-6.0911,-6.0911,-6.0816,-6.0781,-6.0781,-6.0781,-6.0781,-6.0781,-6.0781,-6.0742,-6.0589,-6.0589,-5.9896,-5.8357,-5.8165,-5.7357,-5.5742,-5.5703,-5.5703,-5.5703,-5.5703,-5.5703,-5.5703,-5.5703,-5.5703,-4.0516,-4.0785,-4.2277,-4.7134,-4.5441,-4.4171,-5.0366,-4.7364,-4.5556,-5.3703,-5.201,-5.0317,-5.4395,-5.6549,-5.6742,-5.3857,-5.778,-6.0396,-5.8088,-6.0254,-6.1947,-6.1589,-6.4743,-6.6987,-6.7141,-6.9451,-7.0965,-7.1005,-7.1005,-7.1005,-7.1005,-7.0979,-7.0952,-7.0952,-7.0912,-7.0912,-7.0952,-7.0912,-6.9629,-6.7128,-6.9667,-6.9552,-6.7167,-6.9744,-7.0475,-6.959,-6.7821,-6.7051,-6.6974,-6.5205,-6.5051,-6.5897,-6.5897,-6.5897,-6.5897,-6.5897,-6.5897,-6.5782,-6.4897,-6.4051,-6.3166,-6.2367,-6.1509,-6.0831,-6.0827,-6.0843,-6.0781,-6.0781,-6.0781,-6.0793,-6.0827,-6.0827,-6.0827,-6.0827,-6.09,-6.0922,-6.0944,-6.0938,-6.098,-6.1031,-6.1041,-6.1041,-6.1041,-6.1041,-6.1041,-6.1041,-6.1,-6.0969,-6.0969,-6.0916,-6.09,-6.0877,-6.0827,-6.0854,-6.0793,-6.0781,-6.0781,-6.0781,-6.0781,-6.005,-5.8357,-5.8319,-5.7473,-5.5742,-5.5703,-5.5703,-5.5703,-5.5703,-5.5703,-5.5703,-5.5703,-5.5703,-4.0516,-4.0669,-4.2247,-4.8279,-4.674,-4.6047,-5.4983,-5.0943,-4.7817,-5.6742,-5.2933,-4.9788,-5.578,-5.4126,-5.2982,-5.6357,-6.1281,-6.3705,-6.0819,-6.1704,-6.282,-6.3231,-6.4436,-6.5807,-6.7345,-6.9618,-7.103,-7.1093,-7.1081,-7.1081,-7.1093,-7.1043,-7.1005,-7.103,-7.0979,-7.0979,-7.103,-7.0952,-6.9925,-6.8039,-6.9988,-6.9783,-6.7782,-6.9758,-7.0079,-6.9001,-6.7051,-6.6474,-6.6692,-6.473,-6.4717,-6.5897,-6.5897,-6.5897,-6.5897,-6.5923,-6.5795,-6.5474,-6.4626,-6.378,-6.2882,-6.2105,-6.14,-6.0877,-6.0911,-6.0888,-6.0843,-6.0816,-6.0854,-6.0854,-6.09,-6.0922,-6.0933,-6.0933,-6.0965,-6.0997,-6.1008,-6.101,-6.1022,-6.1109,-6.1118,-6.1118,-6.1118,-6.1118,-6.1118,-6.1118,-6.1032,-6.1002,-6.1002,-6.099,-6.0976,-6.0933,-6.0933,-6.0911,-6.0816,-6.0793,-6.0781,-6.0781,-6.0781,-6.005,-5.8357,-5.8319,-5.7473,-5.5742,-5.5703,-5.5703,-5.5703,-5.5703,-5.5703,-5.5703,-5.5703,-5.5703,-4.0516,-4.1085,-4.2577,-4.6278,-4.4547,-4.4624,-5.4713,-5.0481,-4.724,-5.7357,-5.7049,-5.6088,-5.9742,-5.7627,-5.6472,-5.9858,-6.0858,-6.1589,-6.2858,-6.382,-6.4128,-6.3397,-6.5436,-6.7321,-6.8308,-6.9964,-7.103,-7.1093,-7.1043,-7.103,-7.1093,-7.1043,-7.103,-7.1093,-7.1093,-7.1093,-7.1093,-7.103,-7.0915,-7.0722,-7.0848,-7.0398,-6.9513,-6.9772,-6.895,-6.7371,-6.7239,-6.6776,-6.6073,-6.5881,-6.5844,-6.5897,-6.5897,-6.5897,-6.591,-6.5972,-6.5459,-6.4602,-6.3835,-6.2948,-6.2066,-6.1312,-6.1025,-6.0976,-6.0987,-6.0944,-6.0911,-6.0965,-6.0944,-6.09,-6.0911,-6.0944,-6.0987,-6.0987,-6.0987,-6.1008,-6.0982,-6.1002,-6.1022,-6.1109,-6.1118,-6.1118,-6.1118,-6.1118,-6.1118,-6.1118,-6.1032,-6.1002,-6.1002,-6.099,-6.0987,-6.0987,-6.0987,-6.0965,-6.0911,-6.0854,-6.0781,-6.0781,-6.0781,-6.005,-5.8357,-5.8319,-5.7473,-5.5742,-5.5703,-5.5703,-5.5703,-5.5703,-5.5703,-5.5703,-5.5703,-5.5703,-4.0516,-4.1546,-4.3816,-4.8769,-4.7462,-4.7355,-5.6472,-5.401,-5.2433,-6.1589,-5.8511,-5.4549,-5.5857,-5.805,-6.01,-6.1408,-6.2935,-6.382,-6.3346,-6.3589,-6.3666,-6.3346,-6.4166,-6.5524,-6.7559,-6.8844,-6.9767,-7.0363,-7.0892,-7.1201,-7.1224,-7.1166,-7.1142,-7.1166,-7.1118,-7.0848,-7.0343,-7.0285,-6.9977,-6.9514,-6.9951,-6.9732,-6.8963,-6.8989,-6.8359,-6.7239,-6.7313,-6.6827,-6.6008,-6.6008,-6.596,-6.5897,-6.5897,-6.5897,-6.591,-6.5984,-6.5445,-6.4535,-6.378,-6.2905,-6.2007,-6.126,-6.098,-6.0997,-6.1,-6.0969,-6.0965,-6.0987,-6.0969,-6.0941,-6.0941,-6.099,-6.101,-6.101,-6.1031,-6.1051,-6.1002,-6.1032,-6.106,-6.1109,-6.1118,-6.1118,-6.1118,-6.1118,-6.1118,-6.1118,-6.106,-6.1051,-6.1051,-6.107,-6.1041,-6.101,-6.0948,-6.0933,-6.0911,-6.0854,-6.0781,-6.0781,-6.0781,-6.005,-5.8357,-5.8319,-5.7473,-5.5742,-5.5703,-5.5703,-5.5703,-5.5703,-5.5703,-5.5703,-5.5703,-5.5703,-4.1247,-4.2393,-4.4778,-5.0164,-4.9202,-4.9202,-5.7934,-5.6434,-5.5395,-6.3089,-6.0704,-5.6896,-5.5818,-5.8934,-6.1678,-6.1678,-6.3128,-6.4051,-6.3397,-6.3308,-6.3089,-6.2589,-6.2974,-6.4138,-6.6322,-6.7529,-6.8579,-6.954,-7.0159,-7.0496,-7.0518,-7.0463,-7.0401,-7.0463,-7.0417,-7.0096,-6.954,-6.9435,-6.9012,-6.8212,-6.8668,-6.8604,-6.8077,-6.8114,-6.7699,-6.6923,-6.6946,-6.6614,-6.6017,-6.6017,-6.597,-6.5935,-6.5935,-6.5935,-6.5947,-6.597,-6.5288,-6.4259,-6.372,-6.2815,-6.1723,-6.1205,-6.1041,-6.101,-6.1012,-6.1031,-6.099,-6.1039,-6.1021,-6.1012,-6.1022,-6.1032,-6.1032,-6.1032,-6.1051,-6.1109,-6.1032,-6.1051,-6.1118,-6.1118,-6.1118,-6.1118,-6.1118,-6.1118,-6.1118,-6.1118,-6.1118,-6.1118,-6.1118,-6.1118,-6.106,-6.1032,-6.098,-6.0927,-6.0927,-6.0861,-6.0816,-6.0816,-6.0793,-6.0165,-5.8742,-5.8434,-5.7627,-5.6126,-5.5818,-5.5703,-5.5703,-5.5703,-5.5703,-5.5703,-5.5703,-5.5703,-4.2893,-4.3739,-4.5355,-4.9634,-4.8817,-4.9394,-5.8627,-5.6857,-5.4934,-6.087,-6.4089,-6.482,-6.1396,-6.0819,-6.0819,-6.0819,-6.0819,-6.1435,-6.3077,-6.3308,-6.2666,-6.1012,-6.2281,-6.3676,-6.4701,-6.6294,-6.7691,-6.8689,-6.8723,-6.8712,-6.8805,-6.8762,-6.8712,-6.8805,-6.8816,-6.8745,-6.8701,-6.8633,-6.8135,-6.7298,-6.7227,-6.7178,-6.7191,-6.7321,-6.6913,-6.6102,-6.6165,-6.6155,-6.6102,-6.6102,-6.6074,-6.6008,-6.6008,-6.6008,-6.6008,-6.599,-6.4921,-6.3516,-6.3641,-6.252,-6.1012,-6.106,-6.1118,-6.1118,-6.1118,-6.1041,-6.1012,-6.106,-6.1041,-6.1012,-6.107,-6.1118,-6.1118,-6.1118,-6.1118,-6.1118,-6.1118,-6.1118,-6.1118,-6.1118,-6.1118,-6.1118,-6.1118,-6.1118,-6.1118,-6.1118,-6.1118,-6.1118,-6.1118,-6.1118,-6.1118,-6.1118,-6.1032,-6.1002,-6.1002,-6.0938,-6.0911,-6.0911,-6.0854,-6.0396,-5.955,-5.8742,-5.7896,-5.7022,-5.6126,-5.5703,-5.5703,-5.5703,-5.5703,-5.5703,-5.5703,-5.5703,-4.6471,-4.6855,-4.7009,-5.0625,-5.1895,-5.2972,-5.5742,-5.6088,-5.7049,-6.1254,-6.2716,-6.2358,-5.955,-6.1973,-6.3782,-6.2024,-6.3205,-6.4359,-6.4243,-6.3705,-6.2897,-6.182,-6.1589,-6.1932,-6.286,-6.4524,-6.5942,-6.6829,-6.8038,-6.8794,-6.8816,-6.8794,-6.8794,-6.8816,-6.8816,-6.8496,-6.7866,-6.7802,-6.7305,-6.6466,-6.6444,-6.6433,-6.6433,-6.6466,-6.6333,-6.6102,-6.6165,-6.6134,-6.6036,-6.6029,-6.6032,-6.5996,-6.5947,-6.596,-6.5931,-6.5373,-6.4492,-6.3492,-6.2984,-6.2037,-6.106,-6.107,-6.1118,-6.1118,-6.1118,-6.1109,-6.106,-6.107,-6.1109,-6.106,-6.107,-6.1118,-6.1118,-6.1118,-6.1118,-6.1118,-6.1118,-6.1118,-6.1118,-6.1118,-6.1118,-6.1118,-6.1118,-6.1118,-6.1118,-6.1118,-6.1118,-6.1118,-6.1118,-6.1118,-6.1118,-6.1118,-6.1032,-6.1002,-6.1002,-6.0969,-6.0965,-6.0965,-6.0955,-6.0525,-5.955,-5.8742,-5.7896,-5.7022,-5.6126,-5.5703,-5.5703,-5.5703,-5.5703,-5.5703,-5.5703,-5.5703,-4.9471,-4.9894,-5.0471,-5.4857,-5.5203,-5.478,-5.578,-5.678,-5.8665,-6.2793,-6.3601,-6.3128,-6.1589,-6.382,-6.5397,-6.3871,-6.4897,-6.559,-6.4705,-6.4166,-6.3512,-6.2666,-6.2127,-6.2151,-6.3107,-6.4177,-6.5159,-6.6024,-6.7121,-6.7771,-6.7771,-6.7771,-6.7771,-6.7771,-6.7771,-6.749,-6.6966,-6.6885,-6.6643,-6.6102,-6.6102,-6.6112,-6.6134,-6.6112,-6.6091,-6.6069,-6.6123,-6.6123,-6.608,-6.6063,-6.6017,-6.5993,-6.5958,-6.5958,-6.5928,-6.5137,-6.4342,-6.3515,-6.2694,-6.1814,-6.1118,-6.1118,-6.1118,-6.1118,-6.1118,-6.1118,-6.1118,-6.1118,-6.1118,-6.1118,-6.1118,-6.1118,-6.1118,-6.1118,-6.1118,-6.1118,-6.1118,-6.1118,-6.1118,-6.1118,-6.1118,-6.1118,-6.1118,-6.1118,-6.1118,-6.1118,-6.1118,-6.1118,-6.1118,-6.1118,-6.1118,-6.1118,-6.1051,-6.1032,-6.1032,-6.1021,-6.099,-6.099,-6.1008,-6.0723,-6.0084,-5.9276,-5.8418,-5.7511,-5.6665,-5.6049,-5.5703,-5.5703,-5.5703,-5.5703,-5.5703,-5.5703,-5.2049,-5.2769,-5.4511,-6.0023,-5.7934,-5.528,-5.8319,-5.8819,-6.0012,-6.4897,-6.5705,-6.5628,-6.5859,-6.5897,-6.5897,-6.5897,-6.5897,-6.5628,-6.482,-6.4666,-6.432,-6.3512,-6.3346,-6.3652,-6.4482,-6.4706,-6.512,-6.5936,-6.6116,-6.6185,-6.6185,-6.6185,-6.6185,-6.6185,-6.6185,-6.6165,-6.6112,-6.6102,-6.6102,-6.6102,-6.6102,-6.6134,-6.6165,-6.6123,-6.6069,-6.6013,-6.6069,-6.6123,-6.6185,-6.6123,-6.6069,-6.6013,-6.6013,-6.5974,-6.5831,-6.5076,-6.4289,-6.3449,-6.2588,-6.1776,-6.1118,-6.1118,-6.1118,-6.1118,-6.1118,-6.1118,-6.1118,-6.1118,-6.1118,-6.1118,-6.1118,-6.1118,-6.1118,-6.1118,-6.1118,-6.1118,-6.1118,-6.1118,-6.1118,-6.1118,-6.1118,-6.1118,-6.1118,-6.1118,-6.1118,-6.1118,-6.1118,-6.1118,-6.1118,-6.1118,-6.1118,-6.1118,-6.1118,-6.1118,-6.1118,-6.1041,-6.1012,-6.1012,-6.1,-6.0987,-6.0933,-6.0063,-5.9221,-5.8434,-5.7484,-5.6637,-5.5818,-5.5752,-5.5714,-5.5703,-5.5703,-5.5703,-5.478,-5.4587,-5.3664,-5.5626,-5.5318,-5.6203,-6.2781,-6.2704,-6.2166,-6.5243,-6.432,-6.3524,-6.5513,-6.5897,-6.5897,-6.5897,-6.5897,-6.582,-6.5628,-6.5013,-6.4551,-6.4359,-6.3743,-6.3397,-6.3563,-6.4336,-6.4867,-6.5071,-6.5786,-6.6185,-6.6185,-6.6185,-6.6185,-6.6185,-6.6185,-6.6175,-6.6165,-6.6165,-6.6165,-6.6165,-6.6165,-6.6123,-6.6047,-6.608,-6.6091,-6.608,-6.6047,-6.6091,-6.6185,-6.6123,-6.6091,-6.6069,-6.6024,-6.565,-6.5037,-6.4209,-6.3351,-6.2549,-6.1698,-6.1273,-6.1118,-6.1118,-6.1118,-6.1118,-6.1118,-6.1118,-6.1118,-6.1118,-6.1118,-6.1118,-6.1118,-6.1118,-6.1118,-6.1118,-6.1118,-6.1118,-6.1118,-6.1118,-6.1118,-6.1118,-6.1118,-6.1118,-6.1118,-6.1118,-6.1118,-6.1118,-6.1118,-6.1118,-6.1118,-6.1118,-6.1118,-6.1118,-6.1118,-6.1118,-6.1118,-6.1109,-6.106,-6.106,-6.109,-6.106,-6.0972,-6.0068,-5.9491,-5.9242,-5.7824,-5.6939,-5.6714,-5.6102,-5.5756,-5.5703,-5.5703,-5.5703,-5.4357,-5.5088,-5.5511,-5.7627,-5.905,-6.0666,-6.3435,-6.4012,-6.4294,-6.5628,-6.482,-6.432,-6.5667,-6.5897,-6.5897,-6.5897,-6.5897,-6.5897,-6.5897,-6.5513,-6.5205,-6.5205,-6.482,-6.4563,-6.46,-6.5068,-6.5368,-6.5402,-6.5912,-6.6185,-6.6185,-6.6185,-6.6123,-6.5913,-6.6112,-6.6123,-6.5901,-6.6084,-6.6185,-6.6185,-6.6185,-6.6144,-6.6047,-6.604,-6.6001,-6.6058,-6.6024,-6.608,-6.6185,-6.6123,-6.6102,-6.6091,-6.6069,-6.5567,-6.4788,-6.3969,-6.311,-6.2278,-6.1389,-6.1118,-6.1118,-6.1118,-6.1118,-6.1118,-6.1118,-6.1118,-6.1118,-6.1118,-6.1118,-6.1118,-6.1118,-6.1118,-6.1118,-6.1118,-6.1118,-6.1118,-6.1118,-6.1118,-6.1118,-6.1118,-6.1118,-6.1118,-6.1118,-6.1118,-6.1118,-6.1118,-6.1118,-6.1118,-6.1118,-6.1118,-6.1118,-6.1118,-6.1118,-6.1118,-6.1118,-6.1118,-6.1118,-6.1118,-6.1118,-6.106,-6.1002,-6.0527,-6.0029,-5.9557,-5.871,-5.7863,-5.7054,-5.6624,-5.62,-5.5745,-5.5745,-5.5735,-5.2587,-5.4857,-5.7819,-6.1254,-6.3358,-6.4282,-6.3063,-6.4051,-6.5359,-6.582,-6.5897,-6.5897,-6.5897,-6.5897,-6.5897,-6.5897,-6.5897,-6.5897,-6.5897,-6.5897,-6.5897,-6.5897,-6.5897,-6.5923,-6.5984,-6.6005,-6.6024,-6.608,-6.6144,-6.6165,-6.6123,-6.6112,-6.5901,-6.5496,-6.5792,-6.5804,-6.5482,-6.5792,-6.5958,-6.5958,-6.6041,-6.6102,-6.6091,-6.597,-6.5958,-6.6024,-6.6024,-6.6091,-6.6185,-6.6134,-6.6112,-6.6112,-6.5958,-6.5417,-6.4577,-6.3777,-6.2936,-6.2085,-6.135,-6.1118,-6.1118,-6.1118,-6.1118,-6.1118,-6.1118,-6.1118,-6.1118,-6.1118,-6.1118,-6.1118,-6.1118,-6.1118,-6.1118,-6.1118,-6.1118,-6.1118,-6.1118,-6.1118,-6.1118,-6.1118,-6.1118,-6.1118,-6.1118,-6.1118,-6.1118,-6.1118,-6.1118,-6.1118,-6.1118,-6.1118,-6.1118,-6.1118,-6.1118,-6.1118,-6.1118,-6.1118,-6.1118,-6.1118,-6.1118,-6.1099,-6.1022,-6.1012,-6.0614,-5.9864,-5.9645,-5.8875,-5.7531,-5.7261,-5.676,-5.6038,-5.5884,-5.5776,-5.102,-5.3944,-5.783,-6.1254,-6.0704,-6.0396,-6.4474,-6.3948,-6.3217,-6.5436,-6.5897,-6.5897,-6.5897,-6.5897,-6.5897,-6.5897,-6.5897,-6.5897,-6.5897,-6.5897,-6.5897,-6.5897,-6.5897,-6.591,-6.591,-6.5982,-6.6013,-6.6013,-6.6123,-6.6041,-6.5692,-6.568,-6.5482,-6.4991,-6.5038,-6.5038,-6.4975,-6.5038,-6.5054,-6.507,-6.5427,-6.5769,-6.6091,-6.6013,-6.6024,-6.6091,-6.6091,-6.6123,-6.6185,-6.6175,-6.6175,-6.6136,-6.5402,-6.4628,-6.3748,-6.2897,-6.2008,-6.1273,-6.1157,-6.1118,-6.1118,-6.1118,-6.1118,-6.1118,-6.1118,-6.1118,-6.1118,-6.1118,-6.1118,-6.1118,-6.1118,-6.1118,-6.1118,-6.1118,-6.1118,-6.1118,-6.1118,-6.1118,-6.1118,-6.1118,-6.1118,-6.1118,-6.1118,-6.1118,-6.1118,-6.1118,-6.1118,-6.1118,-6.1118,-6.1118,-6.1118,-6.1118,-6.1118,-6.1118,-6.1118,-6.1118,-6.1118,-6.1118,-6.1118,-6.1118,-6.1109,-6.1032,-6.0963,-6.0828,-6.0071,-5.9588,-5.9338,-5.7901,-5.7129,-5.6985,-5.6242,-5.5885,-5.2482,-5.4164,-5.6395,-6.2666,-6.1243,-5.9627,-6.4743,-6.3935,-6.2832,-6.5359,-6.5897,-6.5897,-6.5897,-6.5897,-6.5897,-6.5897,-6.5897,-6.5897,-6.5897,-6.5897,-6.5897,-6.5897,-6.5897,-6.5923,-6.596,-6.597,-6.6029,-6.6058,-6.5978,-6.5844,-6.5615,-6.5412,-6.5077,-6.4572,-6.4761,-6.4778,-6.4554,-6.4799,-6.5023,-6.5288,-6.5454,-6.5781,-6.6144,-6.6123,-6.6102,-6.6102,-6.6102,-6.6134,-6.6185,-6.6185,-6.5915,-6.5489,-6.5141,-6.4174,-6.2936,-6.2549,-6.1853,-6.1118,-6.1118,-6.1118,-6.1118,-6.1118,-6.1118,-6.1118,-6.1118,-6.1118,-6.1118,-6.1118,-6.1118,-6.1118,-6.1118,-6.1118,-6.1118,-6.1118,-6.1118,-6.1118,-6.1118,-6.1118,-6.1118,-6.1118,-6.1118,-6.1118,-6.1118,-6.1118,-6.1118,-6.1118,-6.1118,-6.1118,-6.1118,-6.1118,-6.1118,-6.1118,-6.1118,-6.1118,-6.1118,-6.1118,-6.1118,-6.1118,-6.1118,-6.1118,-6.1118,-6.106,-6.1041,-6.1041,-6.0622,-6.0166,-5.9736,-5.8963,-5.8384,-5.7921,-5.7535,-5.7323,-5.2818,-5.351,-5.4357,-6.1781,-6.0281,-5.8242,-6.2897,-6.2512,-6.1858,-6.4397,-6.5436,-6.5897,-6.5897,-6.5897,-6.5897,-6.5897,-6.5897,-6.5897,-6.5897,-6.5897,-6.5897,-6.5897,-6.5897,-6.5923,-6.5972,-6.5996,-6.6005,-6.6069,-6.5858,-6.5638,-6.5441,-6.5092,-6.4681,-6.4151,-6.4426,-6.4445,-6.4131,-6.4426,-6.4816,-6.5244,-6.5384,-6.5654,-6.6041,-6.6155,-6.6165,-6.6123,-6.6123,-6.6144,-6.6185,-6.6185,-6.5721,-6.4986,-6.4764,-6.3748,-6.2356,-6.2162,-6.166,-6.1118,-6.1118,-6.1118,-6.1118,-6.1118,-6.1118,-6.1118,-6.1118,-6.1118,-6.1118,-6.1118,-6.1118,-6.1118,-6.1118,-6.1118,-6.1118,-6.1118,-6.1118,-6.1118,-6.1118,-6.1118,-6.1118,-6.1118,-6.1118,-6.1118,-6.1118,-6.1118,-6.1118,-6.1118,-6.1118,-6.1118,-6.1118,-6.1118,-6.1118,-6.1118,-6.1118,-6.1118,-6.1118,-6.1118,-6.1118,-6.1118,-6.1118,-6.1118,-6.1118,-6.1118,-6.1118,-6.1118,-6.099,-6.0661,-6.0133,-5.9852,-5.9427,-5.8867,-5.8635,-5.85,-4.9981,-5.0904,-5.1905,-5.6368,-5.5434,-5.4395,-5.7896,-5.8588,-5.9204,-6.1793,-6.4205,-6.5897,-6.5897,-6.5897,-6.5897,-6.5897,-6.5897,-6.5897,-6.5897,-6.5897,-6.5897,-6.5897,-6.5897,-6.5897,-6.591,-6.5972,-6.5993,-6.6001,-6.5833,-6.5489,-6.4943,-6.4608,-6.4194,-6.3669,-6.3669,-6.3669,-6.3647,-6.3669,-6.3899,-6.4388,-6.4765,-6.5184,-6.5654,-6.603,-6.6185,-6.6185,-6.6185,-6.6185,-6.6185,-6.6185,-6.5721,-6.4919,-6.4106,-6.3207,-6.2317,-6.1466,-6.1157,-6.1118,-6.1118,-6.1118,-6.1118,-6.1118,-6.1118,-6.1118,-6.1118,-6.1118,-6.1118,-6.1118,-6.1118,-6.1118,-6.1118,-6.1118,-6.1118,-6.1118,-6.1118,-6.1118,-6.1118,-6.1118,-6.1118,-6.1118,-6.1118,-6.1118,-6.1118,-6.1118,-6.1118,-6.1118,-6.1118,-6.1118,-6.1118,-6.1118,-6.1118,-6.1118,-6.1118,-6.1118,-6.1118,-6.1118,-6.1118,-6.1118,-6.1118,-6.1118,-6.1118,-6.1118,-6.1118,-6.1118,-6.1022,-6.1022,-6.1031,-6.022,-5.9795,-5.9803,-5.899,-5.8604,-4.9788,-4.951,-4.9548,-5.4818,-5.3433,-5.1933,-5.6434,-5.7896,-5.855,-5.9473,-6.2974,-6.5397,-6.3743,-6.4782,-6.5897,-6.5897,-6.5897,-6.5897,-6.5897,-6.5897,-6.5897,-6.5897,-6.5897,-6.5897,-6.5897,-6.5923,-6.5871,-6.5769,-6.3925,-6.3328,-6.4514,-6.271,-6.2234,-6.3565,-6.3602,-6.3602,-6.3602,-6.3602,-6.3814,-6.4311,-6.4713,-6.5154,-6.5628,-6.6019,-6.6185,-6.6175,-6.5913,-6.5854,-6.5827,-6.5051,-6.4256,-6.3451,-6.2606,-6.1897,-6.1263,-6.0944,-6.0962,-6.1118,-6.1118,-6.1118,-6.1118,-6.1118,-6.1118,-6.1118,-6.1118,-6.1118,-6.1118,-6.1118,-6.1118,-6.1118,-6.1118,-6.0982,-6.0828,-6.0828,-6.0982,-6.1118,-6.1118,-6.1118,-6.1118,-6.1118,-6.1118,-6.1118,-6.1118,-6.1118,-6.1118,-6.1118,-6.1118,-6.1118,-6.1118,-6.1118,-6.1118,-6.1118,-6.1118,-6.1118,-6.1118,-6.1118,-6.1118,-6.1118,-6.1118,-6.1118,-6.1118,-6.1118,-6.1118,-6.1118,-6.106,-6.1099,-6.1118,-6.0761,-6.0606,-6.0654,-6.0344,-6.019,-4.8365,-4.774,-4.7471,-5.1702,-5.0856,-4.9933,-5.3598,-5.6434,-5.8319,-5.8319,-6.2358,-6.5359,-6.3678,-6.4743,-6.5897,-6.5897,-6.5897,-6.5897,-6.5897,-6.5897,-6.5897,-6.5897,-6.5897,-6.5897,-6.5897,-6.5897,-6.5808,-6.5635,-6.3657,-6.3078,-6.4332,-6.2493,-6.2045,-6.3565,-6.3602,-6.3602,-6.3602,-6.3602,-6.3764,-6.407,-6.4519,-6.4949,-6.5398,-6.5792,-6.6008,-6.5947,-6.555,-6.5342,-6.5231,-6.425,-6.3253,-6.2257,-6.1721,-6.1106,-6.0533,-6.0533,-6.0642,-6.0779,-6.0779,-6.0871,-6.0972,-6.0972,-6.1022,-6.1118,-6.1118,-6.1118,-6.1118,-6.1118,-6.1118,-6.106,-6.0992,-6.0828,-6.0704,-6.0704,-6.0882,-6.1118,-6.1118,-6.1118,-6.1118,-6.1118,-6.1118,-6.1118,-6.1118,-6.1118,-6.1118,-6.1118,-6.1118,-6.1118,-6.1118,-6.1118,-6.1118,-6.1118,-6.1118,-6.1118,-6.1118,-6.1118,-6.1118,-6.1118,-6.1118,-6.1118,-6.1118,-6.1118,-6.1118,-6.1118,-6.1118,-6.1118,-6.1118,-6.1041,-6.1051,-6.1118,-6.1118,-6.1118,0.0,0.0,0.0,-4.6663,-4.7471,-4.8279,-4.9163,-5.3933,-5.8165,-5.8165,-6.2243,-6.5782,-6.5782,-6.5859,-6.5897,-6.5897,-6.5897,-6.5897,-6.5897,-6.5897,-6.5897,-6.5897,-6.5897,-6.5897,-6.5897,-6.5897,-6.5808,-6.5622,-6.5199,-6.4803,-6.4407,-6.405,-6.3786,-6.3602,-6.3602,-6.3602,-6.3602,-6.3602,-6.3602,-6.3602,-6.407,-6.4519,-6.4894,-6.5384,-6.5601,-6.5536,-6.507,-6.4664,-6.4372,-6.3915,-6.2841,-6.1464,-6.1464,-6.0929,-6.0203,-6.0203,-6.0203,-6.0217,-6.0217,-6.0406,-6.0692,-6.0692,-6.086,-6.1109,-6.1109,-6.107,-6.1118,-6.1118,-6.1118,-6.1032,-6.0762,-6.0692,-6.0692,-6.0681,-6.086,-6.106,-6.106,-6.106,-6.1109,-6.1118,-6.1118,-6.1118,-6.1118,-6.1118,-6.1118,-6.1118,-6.1118,-6.1118,-6.1118,-6.1118,-6.1118,-6.1118,-6.1118,-6.1118,-6.1118,-6.1118,-6.1118,-6.1118,-6.1118,-6.1118,-6.1118,-6.1118,-6.1118,-6.1118,-6.1118,-6.1118,-6.1118,-6.1118,-6.1118,-6.1118,-6.1118,-6.1118,-4.5594,0.0,0.0,0.0,0.0,0.0,-4.8279,-5.1664,-5.478,-5.5434,-5.9588,-6.314,-6.314,-6.4666,-6.5897,-6.5897,-6.5897,-6.5897,-6.5897,-6.5897,-6.5897,-6.5897,-6.5897,-6.5897,-6.5897,-6.5897,-6.5715,-6.526,-6.3404,-6.279,-6.3975,-6.3808,-6.3669,-6.3602,-6.3602,-6.3602,-6.3602,-6.3602,-6.3602,-6.3602,-6.407,-6.4369,-6.4482,-6.4916,-6.507,-6.5054,-6.4069,-6.3352,-6.2721,-6.2332,-6.1657,-6.0783,-6.0141,-5.9933,-5.9915,-5.9915,-6.003,-6.0217,-6.0217,-6.0272,-6.034,-6.034,-6.0558,-6.0806,-6.0806,-6.0962,-6.1118,-6.1118,-6.1118,-6.0992,-6.0457,-6.034,-6.0286,-6.0097,-6.0245,-6.0457,-6.0457,-6.0642,-6.085,-6.1051,-6.1118,-6.1118,-6.1118,-6.1118,-6.1118,-6.1118,-6.1118,-6.1118,-6.1118,-6.1118,-6.1118,-6.1118,-6.1118,-6.1118,-6.1118,-6.1118,-6.1118,-6.1118,-6.1118,-6.1118,-6.1118,-6.1118,-6.1118,-6.1118,-6.1118,-6.1118,-6.1118,-6.1118,-6.1118,-6.1118,-6.1118,-6.1118,-4.5594,-4.5594,-4.5594,-4.5594,0.0,0.0,-4.8009,-5.1856,-5.5472,-5.5972,-6.0127,-6.3371,-6.2293,-6.3332,-6.432,-6.432,-6.4012,-6.4128,-6.5205,-6.5359,-6.5205,-6.4859,-6.482,-6.482,-6.482,-6.5128,-6.5191,-6.478,-6.3572,-6.3134,-6.3846,-6.378,-6.3647,-6.3602,-6.3602,-6.3602,-6.3602,-6.3602,-6.3602,-6.3602,-6.3878,-6.4111,-6.4311,-6.4518,-6.4489,-6.4165,-6.3499,-6.2484,-6.1355,-6.1126,-6.0638,-6.0004,-5.9515,-5.9436,-5.9592,-5.9592,-5.9689,-5.9814,-5.9814,-5.9908,-6.003,-6.003,-6.0231,-6.052,-6.0669,-6.0806,-6.0962,-6.1051,-6.0892,-6.0556,-6.0065,-5.9931,-5.9939,-5.982,-5.9985,-6.0217,-6.0217,-6.0353,-6.0582,-6.086,-6.1022,-6.1118,-6.1118,-6.1118,-6.1118,-6.1118,-6.1118,-6.1118,-6.1118,-6.1118,-6.1118,-6.1118,-6.1118,-6.1118,-6.1118,-6.1118,-6.1118,-6.1118,-6.1118,-6.1109,-6.1051,-6.1051,-6.107,-6.1051,-6.1051,-6.106,-6.1051,-6.1109,-6.1118,-6.1118,-6.1118,-6.1118,-4.5633,-4.5594,-4.5594,-4.5594,-4.6778,0.0,-4.8086,-5.2895,-5.7434,-5.7819,-6.1473,-6.4012,-6.1908,-6.1601,-6.1639,-6.1562,-6.0973,-6.1396,-6.3974,-6.4397,-6.4089,-6.3128,-6.3192,-6.3308,-6.3308,-6.4012,-6.4372,-6.4149,-6.4638,-6.4649,-6.392,-6.3845,-6.3736,-6.3602,-6.3602,-6.3602,-6.3602,-6.3602,-6.3602,-6.3602,-6.3602,-6.383,-6.4214,-6.4158,-6.3746,-6.3088,-6.2937,-6.192,-6.0374,-6.0281,-5.9871,-5.929,-5.929,-5.929,-5.929,-5.929,-5.929,-5.929,-5.929,-5.9525,-5.976,-5.976,-5.9946,-6.0217,-6.0508,-6.0606,-6.0704,-6.0913,-6.0519,-5.9985,-5.9685,-5.9568,-5.9605,-5.9689,-5.9908,-6.0103,-6.0103,-6.0118,-6.0217,-6.052,-6.0806,-6.1022,-6.1109,-6.1051,-6.1041,-6.107,-6.1118,-6.1118,-6.1118,-6.1118,-6.1118,-6.1118,-6.1118,-6.1118,-6.1118,-6.107,-6.1109,-6.1109,-6.1109,-6.1051,-6.0992,-6.1002,-6.101,-6.0997,-6.0987,-6.1018,-6.0992,-6.1041,-6.107,-6.1118,-6.1118,-6.1118,-4.5787,-4.5594,-4.5594,-4.5594,-4.6355,0.0,-4.7971,-4.9663,-5.1933,-5.4664,-5.6011,-5.6973,-5.783,-5.855,-5.8819,-5.8099,-5.8434,-5.9665,-6.2243,-6.3166,-6.3012,-6.1473,-6.2474,-6.3308,-6.3308,-6.3474,-6.3589,-6.3698,-6.3993,-6.4083,-6.3915,-6.3845,-6.3736,-6.3602,-6.3602,-6.3602,-6.3602,-6.3602,-6.3602,-6.3602,-6.3602,-6.3647,-6.3742,-6.3121,-6.2705,-6.2352,-6.1218,-6.0513,-6.0116,-5.9507,-5.9289,-5.929,-5.929,-5.929,-5.929,-5.929,-5.929,-5.929,-5.929,-5.9345,-5.94,-5.94,-5.9626,-5.9884,-5.9946,-6.0118,-6.03,-6.03,-5.9985,-5.9601,-5.9601,-5.9432,-5.929,-5.9382,-5.94,-5.94,-5.94,-5.952,-5.9652,-5.9717,-6.0059,-6.0469,-6.1012,-6.0822,-6.0745,-6.1051,-6.1118,-6.1118,-6.1118,-6.1118,-6.1118,-6.1118,-6.1118,-6.1118,-6.1118,-6.1041,-6.1022,-6.1022,-6.1022,-6.0992,-6.1008,-6.1021,-6.101,-6.0997,-6.0987,-6.0997,-6.1008,-6.0992,-6.1041,-6.1118,-6.1118,-6.1118,-4.6355,-4.5932,-4.5594,-4.5594,-4.6547,0.0,0.0,-5.0087,-5.2433,-5.4164,-5.5511,-5.6242,-5.5818,-5.5742,-5.578,-5.5742,-5.5395,-5.5857,-5.8011,-6.0089,-6.1243,-6.0858,-6.155,-6.205,-6.205,-6.2435,-6.2975,-6.3628,-6.3779,-6.3877,-6.3899,-6.3851,-6.378,-6.3602,-6.3602,-6.3602,-6.3602,-6.3534,-6.3511,-6.3511,-6.3511,-6.3465,-6.3382,-6.268,-6.2131,-6.1685,-6.0444,-5.9748,-5.9502,-5.9031,-5.8965,-5.9159,-5.9253,-5.929,-5.929,-5.929,-5.929,-5.929,-5.929,-5.929,-5.929,-5.929,-5.9418,-5.9575,-5.976,-5.9939,-6.0118,-5.9877,-5.9618,-5.9359,-5.929,-5.9178,-5.9119,-5.914,-5.9177,-5.9177,-5.9119,-5.9197,-5.9289,-5.9467,-5.9502,-5.9717,-6.0393,-6.0316,-6.0263,-6.0468,-6.0673,-6.08,-6.08,-6.1002,-6.1118,-6.1118,-6.1118,-6.1118,-6.1118,-6.1051,-6.1041,-6.1041,-6.1041,-6.1041,-6.0997,-6.098,-6.0959,-6.0911,-6.0911,-6.0922,-6.0955,-6.0948,-6.0962,-6.1041,-6.1041,-6.1041,-4.674,-4.6278,-4.5864,-4.5864,-4.6962,-4.8135,0.0,0.0,0.0,-5.371,-5.5363,-5.6143,-5.3933,-5.3087,-5.2856,-5.3203,-5.2356,-5.2202,-5.378,-5.6472,-5.855,-5.9242,-5.9627,-5.9819,-5.9819,-6.0849,-6.2015,-6.3236,-6.3557,-6.3686,-6.3659,-6.3841,-6.3786,-6.3602,-6.3602,-6.3602,-6.3602,-6.3488,-6.3382,-6.3382,-6.3359,-6.3215,-6.2936,-6.2262,-6.1597,-6.0874,-5.9848,-5.9213,-5.8845,-5.8698,-5.876,-5.8945,-5.9159,-5.9253,-5.929,-5.929,-5.929,-5.929,-5.929,-5.929,-5.929,-5.929,-5.929,-5.9345,-5.9626,-5.9804,-5.983,-5.9502,-5.9307,-5.914,-5.8942,-5.8922,-5.8965,-5.8984,-5.9081,-5.91,-5.9022,-5.8945,-5.9024,-5.9289,-5.9082,-5.9064,-5.9785,-5.9847,-5.9817,-5.9908,-6.0196,-6.0418,-6.0418,-6.0734,-6.0933,-6.1012,-6.1022,-6.1032,-6.1109,-6.1109,-6.106,-6.106,-6.106,-6.106,-6.0997,-6.0987,-6.0933,-6.0781,-6.0781,-6.0843,-6.0888,-6.0888,-6.0916,-6.0992,-6.0992,-6.0992,-4.6163,-4.624,-4.674,-4.674,-4.7405,-4.8181,-4.89,0.0,-4.9865,-5.0768,0.0,-5.109,-5.0144,0.0,0.0,-4.9048,-4.9971,-5.1164,-5.2077,-5.3203,-5.3972,-5.4049,-5.5357,-5.628,-5.628,-5.8132,-5.997,-6.1469,-6.2639,-6.3163,-6.2853,-6.3521,-6.3786,-6.3602,-6.3602,-6.3602,-6.3602,-6.3488,-6.3382,-6.3382,-6.3265,-6.2825,-6.211,-6.1448,-6.0589,-5.9559,-5.8777,-5.8437,-5.8385,-5.8363,-5.8492,-5.876,-5.8945,-5.914,-5.929,-5.929,-5.929,-5.929,-5.929,-5.929,-5.929,-5.929,-5.929,-5.9309,-5.9345,-5.9272,-5.9102,-5.9082,-5.8905,-5.8801,-5.8879,-5.8899,-5.894,-5.8965,-5.8962,-5.892,-5.892,-5.8838,-5.8739,-5.8801,-5.876,-5.8967,-5.977,-5.9592,-5.9496,-5.9863,-6.005,-6.0161,-6.0161,-6.0259,-6.0418,-6.0727,-6.075,-6.0828,-6.106,-6.1041,-6.1012,-6.1012,-6.1012,-6.1021,-6.0997,-6.0944,-6.0888,-6.0781,-6.0781,-6.0793,-6.0793,-6.0793,-6.09,-6.0997,-6.0997,-6.0997,-4.9255,-4.931,-4.9308,-4.97,-5.0242,-5.0799,-5.1283,-5.0621,-4.9964,-5.0325,0.0,0.0,0.0,0.0,0.0,0.0,-4.9586,-5.0029,-5.0947,-5.1418,-5.2361,-5.4423,-5.528,-5.6088,-5.7126,-5.714,-5.7851,-5.965,-6.0329,-6.0823,-6.1164,-6.2454,-6.3301,-6.3602,-6.3534,-6.3488,-6.3488,-6.3265,-6.3171,-6.3171,-6.262,-6.2166,-6.1726,-6.0614,-5.9862,-5.9471,-5.8532,-5.8186,-5.8297,-5.8164,-5.8253,-5.8471,-5.8577,-5.8825,-5.914,-5.9253,-5.929,-5.929,-5.929,-5.929,-5.929,-5.929,-5.929,-5.929,-5.929,-5.9159,-5.9004,-5.9004,-5.8862,-5.8698,-5.8777,-5.8838,-5.8879,-5.8842,-5.8842,-5.8879,-5.8818,-5.8719,-5.8698,-5.8698,-5.8698,-5.8805,-5.914,-5.9065,-5.9045,-5.9289,-5.9568,-5.9766,-5.9776,-6.0021,-6.0259,-6.0379,-6.0582,-6.0692,-6.0568,-6.0882,-6.0992,-6.0828,-6.0951,-6.1021,-6.0997,-6.0944,-6.0877,-6.0781,-6.0781,-6.0781,-6.0781,-6.0781,-6.0843,-6.09,-6.0933,-6.0944,-5.225,-5.2349,-5.2031,-5.184,-5.212,-5.2359,-5.2106,-5.0982,-5.0038,-5.0197,-5.0262,0.0,0.0,0.0,-4.9507,-4.9889,0.0,-4.9541,-5.0013,-5.0303,-5.1382,-5.3958,-5.466,-5.5467,-5.6736,-5.6143,-5.6225,-5.7543,-5.8334,-5.9055,-5.9743,-6.1587,-6.2901,-6.3519,-6.3442,-6.3336,-6.3336,-6.3123,-6.2892,-6.2671,-6.2034,-6.147,-6.0896,-5.9816,-5.9283,-5.9116,-5.8345,-5.8051,-5.8209,-5.8065,-5.8111,-5.8231,-5.8297,-5.8513,-5.8845,-5.9043,-5.9159,-5.9215,-5.9215,-5.9253,-5.929,-5.929,-5.929,-5.929,-5.929,-5.9178,-5.9024,-5.9004,-5.8882,-5.8777,-5.8698,-5.8777,-5.8818,-5.8719,-5.8777,-5.8777,-5.8698,-5.8635,-5.8614,-5.8677,-5.8656,-5.8656,-5.8719,-5.8739,-5.8797,-5.8879,-5.9197,-5.9452,-5.9485,-5.9766,-6.0,-6.0089,-6.0324,-6.0405,-6.0231,-6.058,-6.0757,-6.057,-6.0689,-6.0806,-6.0883,-6.085,-6.0816,-6.0843,-6.0843,-6.0843,-6.0843,-6.0793,-6.0793,-6.0843,-6.0877,-6.0888,-5.3959,-5.4333,-5.4406,-5.2078,-5.17,-5.154,-4.9956,-4.9153,-4.8997,-4.9911,-5.0127,-5.0164,-5.0298,-5.0283,-4.9977,-4.9163,-4.9736,0.0,0.0,-4.9786,-5.0417,-5.0653,-5.2121,-5.3119,-5.3157,-5.4715,-5.5497,-5.5057,-5.7248,-5.8723,-5.894,-6.114,-6.274,-6.3405,-6.3265,-6.3231,-6.3231,-6.3075,-6.2597,-6.1861,-6.1667,-6.0786,-5.9258,-5.9245,-5.8767,-5.8056,-5.7997,-5.7997,-5.802,-5.7997,-5.7997,-5.8042,-5.8231,-5.8319,-5.8363,-5.8635,-5.8862,-5.9004,-5.9004,-5.914,-5.929,-5.929,-5.929,-5.929,-5.929,-5.9253,-5.9158,-5.9024,-5.8942,-5.8859,-5.8719,-5.8698,-5.8698,-5.8698,-5.8614,-5.8572,-5.8656,-5.8566,-5.848,-5.8656,-5.8593,-5.8593,-5.8859,-5.8879,-5.8879,-5.8899,-5.9098,-5.9196,-5.9215,-5.9272,-5.9434,-5.9793,-5.9842,-5.9931,-6.0189,-6.0231,-6.0245,-6.0231,-6.0231,-6.034,-6.0621,-6.0621,-6.0719,-6.09,-6.0911,-6.0911,-6.0911,-6.0816,-6.0816,-6.0911,-6.0816,-6.0793,-5.7286,-5.7756,-5.7777,-5.7417,-5.5976,-5.4522,-5.4158,-5.1569,-4.9239,-4.9234,-4.9646,-4.9906,-4.9755,-4.9893,-4.9949,-4.9645,-4.9835,-4.9974,0.0,-4.9998,-5.0163,-5.0212,-5.0791,-5.1653,-5.2774,-5.2195,-5.2093,-5.2981,-5.3569,-5.4121,-5.4555,-5.7909,-6.0144,-6.0862,-6.2298,-6.3075,-6.3075,-6.2438,-6.1924,-6.1667,-6.0553,-5.9735,-5.9184,-5.8657,-5.8253,-5.7997,-5.7997,-5.7997,-5.7997,-5.7997,-5.7997,-5.7997,-5.8088,-5.8074,-5.8156,-5.8551,-5.8739,-5.8821,-5.8945,-5.9043,-5.912,-5.9253,-5.929,-5.929,-5.929,-5.9272,-5.9158,-5.9024,-5.8942,-5.8859,-5.8719,-5.8698,-5.8698,-5.8698,-5.8656,-5.8614,-5.8593,-5.8529,-5.8486,-5.8572,-5.8513,-5.8593,-5.8859,-5.896,-5.9002,-5.9098,-5.9176,-5.9215,-5.9272,-5.9272,-5.9345,-5.9472,-5.9677,-5.976,-5.9605,-5.982,-6.0,-6.0203,-6.0217,-6.0231,-6.0335,-6.0335,-6.0335,-6.0373,-6.0373,-6.0373,-6.0373,-6.0346,-6.0346,-6.0373,-6.0346,-6.0387,-6.0176,-6.0515,-6.0294,-5.9865,-5.8471,-5.701,-5.6283,-5.3941,-5.1782,-5.1435,-5.1734,-5.1759,-5.0646,-5.0754,-5.068,-4.9877,-4.9824,-4.992,0.0,-5.0012,-5.0012,-5.0012,-5.0672,-5.1292,-5.1801,-5.1218,-5.0882,-5.1073,-5.1442,-5.1835,-5.2266,-5.6166,-5.8747,-5.9493,-6.175,-6.2929,-6.2929,-6.2047,-6.1447,-6.1153,-5.9832,-5.9038,-5.8767,-5.8253,-5.7997,-5.7997,-5.7997,-5.7997,-5.7997,-5.7997,-5.7997,-5.7997,-5.7997,-5.7997,-5.8042,-5.8334,-5.8508,-5.8614,-5.8842,-5.8885,-5.8942,-5.912,-5.9178,-5.9197,-5.9272,-5.929,-5.9215,-5.9043,-5.9002,-5.896,-5.8739,-5.8756,-5.8777,-5.8698,-5.8656,-5.8614,-5.8492,-5.8465,-5.8422,-5.8508,-5.8492,-5.8614,-5.8882,-5.9022,-5.9119,-5.9177,-5.9215,-5.9253,-5.929,-5.929,-5.929,-5.929,-5.947,-5.9523,-5.9309,-5.9488,-5.9689,-5.9861,-5.9877,-5.9946,-6.0061,-6.0061,-6.0228,-6.0548,-6.0296,-6.0296,-6.0548,-6.0251,-6.0114,-6.0144,-6.0114,-6.0045]},{"header":{"parameterUnit":"m.s-1","parameterCategory":1,"la1":30.6,"la2":29.2853,"lo1":-89.7004,"lo2":-87.6739,"dy":0.0162,"dx":0.0183,"nx":112,"ny":82,"refTime":"2024-05-03T12:00:00:Z","depth":0,"parameterNumber":3,"parameterNumberName":"V-component_of_WINDS"},"data":[0.0,0.0,0.0,0.0,0.0,0.0,0.0,0.0,0.0,0.0,0.0,0.0,0.0,0.0,0.0,0.0,0.0,0.0,0.0,0.0,0.0,0.0,0.0,0.0,0.0,0.0,0.0,0.0,0.0,0.0,0.0,0.0,0.0,0.0,0.0,0.0,0.0,0.0,0.0,0.0,0.0,0.0,0.0,0.0,0.0,0.0,0.0,0.0,0.0,0.0,0.0,0.0,0.0,0.0,0.0,0.0,0.0,0.0,0.0,0.0,0.0,0.0,0.0,0.0,0.0,0.0,0.0,0.0,0.0,0.0,0.0,0.0,0.0,0.0,0.0,0.0,0.0,0.0,0.0,0.0,0.0,0.0,0.0,0.0,0.0,0.0,0.0,0.0,0.0,0.0,0.0,0.0,0.0,0.0,0.0,0.0,0.0,0.0,0.0,0.0,0.0,0.0,0.0,0.0,0.0,0.0,0.0,0.0,0.0,0.0,0.0,0.0,0.0,0.0,0.0,0.0,0.0,0.0,0.0,0.0,0.0,0.0,0.0,0.0,0.0,0.0,0.0,0.0,0.0,0.0,0.0,0.0,0.0,0.0,0.0,0.0,0.0,0.0,0.0,0.0,0.0,0.0,0.0,0.0,0.0,0.0,0.0,0.0,0.0,0.0,0.0,0.0,0.0,0.0,0.0,0.0,0.0,0.0,0.0,0.0,0.0,0.0,0.0,0.0,0.0,0.0,0.0,0.0,0.0,0.0,0.0,0.0,0.0,0.0,0.0,0.0,0.0,0.0,0.0,0.0,0.0,0.0,0.0,0.0,0.0,0.0,0.0,0.0,0.0,0.0,0.0,0.0,0.0,0.0,0.0,0.0,0.0,0.0,0.0,0.0,0.0,0.0,0.0,0.0,0.0,0.0,0.0,0.0,0.0,0.0,0.0,0.0,0.0,0.0,0.0,0.0,0.0,0.0,0.0,0.0,0.0,0.0,0.0,0.0,0.0,0.0,0.0,0.0,0.0,0.0,0.0,0.0,0.0,0.0,0.0,0.0,0.0,0.0,0.0,0.0,0.0,0.0,0.0,0.0,0.0,0.0,0.0,0.0,0.0,0.0,0.0,0.0,0.0,0.0,0.0,0.0,0.0,0.0,0.0,0.0,0.0,0.0,0.0,0.0,0.0,0.0,0.0,0.0,0.0,0.0,0.0,0.0,0.0,0.0,0.0,0.0,0.0,0.0,0.0,0.0,0.0,0.0,0.0,0.0,0.0,0.0,0.0,0.0,0.0,0.0,0.0,0.0,0.0,0.0,0.0,0.0,0.0,0.0,0.0,0.0,0.0,0.0,0.0,0.0,0.0,0.0,0.0,0.0,0.0,0.0,0.0,0.0,0.0,0.0,0.0,0.0,0.0,0.0,0.0,0.0,0.0,0.0,0.0112,0.0,0.0,0.0,0.0,0.0,0.0,0.0,0.0,0.0,0.0,0.0,0.0,0.0,0.0,0.0,0.0,0.0,0.0,0.0,0.0,0.0,0.0,0.0,0.0,0.0,0.0,0.0,0.0,0.0,0.0,0.0,0.0,0.0,0.0,0.0,0.0,0.0,0.0,0.0,0.0,0.0,0.0,0.0,0.0,0.0,0.0,0.0,0.0,0.0,0.0,0.0,0.0,0.0,0.0,0.0,0.0,0.0,0.0,0.0,0.0,0.0,0.0,0.0,0.0,0.0,0.0,0.0,0.0,0.0,0.0,0.0,0.0,0.0,0.0,0.0,0.0,0.0,0.0,0.0,0.0,0.0,0.0,0.0,0.0,0.0,0.0,0.0,0.0,0.0,0.0,0.0,0.0,0.0,0.0,0.0,0.0,0.0,0.0,0.0,0.0,0.0,0.0,0.0,0.0,0.0,0.0,0.0,0.0,0.0,0.0,0.0,0.0,0.0,0.0,0.0,0.0,0.0,0.0,0.0,0.0,0.0,0.0,0.0,0.0,0.0,0.0,0.0,0.0,0.0,0.0,0.0,0.0,0.0,0.0,0.0,0.0,0.0,0.0,0.0,0.0,0.0,0.0,0.0,0.0,0.0,0.0,0.0,0.0,0.0,0.0,0.0,0.0,0.0,0.0,0.0,0.0,0.0,0.0,0.0,0.0,0.0,0.0,0.0,0.0,0.0,0.0,0.0,0.0,0.0,0.0,0.0,0.0,0.0,0.0,0.0,0.0,0.0,0.0,0.0,0.0,0.0,0.0,0.0,0.0,0.0,0.0,0.0,0.0,0.0,0.0,0.0,0.0,0.0,0.0,0.0,0.0,0.0,0.0,0.0,0.0,0.0,0.0,0.0,0.0,0.0,0.0,0.0,0.0,0.0,0.0,0.0,0.0,0.0,0.0,0.0,0.0,0.0,0.0,0.0,0.0,0.0,0.0,0.0,0.0,0.0,0.0,0.0,0.0,0.0,0.0,0.0,0.0,0.0,0.0,0.0,0.0,0.0,0.0,0.0,0.0,0.0,0.0,0.0,0.0,0.0,0.0,0.0,0.0,0.0,0.0,0.0,0.0,0.0,0.0,0.0,0.0,0.0,0.0,0.0,0.0,0.0,0.0,0.0,0.0,0.0,0.0,0.0,0.0,0.0,0.0,0.0,0.0,0.0,0.0,0.0,0.0,0.0,0.0,0.0,0.0,0.0,0.0,0.0,0.0,0.0,0.0,0.0,0.0,0.0,0.0,0.0,0.0,0.0,0.0,0.0,0.0,0.0,0.0,0.0,0.0,0.0,0.0,0.0,0.0,0.0,0.0,0.0,0.0,0.0,0.0,0.0,0.0,0.0,0.0,0.0,0.0,0.0,0.0,0.0,0.0,0.0,0.0,0.0,0.0,0.0,0.0,0.0,0.0,0.0,0.0,0.0,0.0,0.0,0.0,0.0,0.0,0.0,0.0,0.0,0.0,0.0,0.0,0.0,0.0,0.0,0.0,0.0,0.0,0.0,0.0,0.0,0.0,0.0,0.0,0.0,0.0,0.0,0.0,0.0,0.0,0.0,0.0,0.0,0.0,0.0,0.0,0.0,0.0,0.0,0.0,0.0,0.0,0.0,0.0,0.0,0.0,0.0,0.0,0.0,0.0,0.0,0.0,0.0,0.0,0.0,0.0,0.0,0.0,0.0,0.0,0.0,0.0,0.0,0.0,0.0,0.0,0.0,0.0,0.0,0.0,0.0,0.0,0.0,0.0,0.0,0.0,0.0,0.0,0.0,0.0,0.0,0.0,0.0,0.0,0.0,0.0,0.0,0.0,0.0,0.0,0.0,0.0,0.0,0.0,0.0,0.0,0.0,0.0,0.0,0.0,0.0,0.0,0.0,0.0,0.0,0.0,0.0,0.0,0.0,0.0,0.0,0.0,0.0,0.0,0.0,0.0,0.0,0.0,0.0,0.0,0.0,0.0,0.0,0.0,0.0,0.0,0.0,0.0,0.0,0.0,0.0,0.0,0.0,0.0,0.0,0.0,0.0,0.0,0.0,0.0,0.0,0.0,0.0,0.0,0.0,0.0,0.0,0.0,0.0,0.0,0.0,0.0,0.0,0.0,0.0,0.0,0.0,0.0,0.0,0.0,0.0,0.0,0.0,0.0,0.0,0.0,0.0,0.0,0.0,0.0,0.0,0.0,0.0,0.0,0.0,0.0,0.0,0.0,0.0,0.0,0.0,0.0,0.0,0.0,0.0,0.0,0.0,0.0,0.0,0.0,0.0,0.0,0.0,0.0,0.0,0.0,0.0,0.0,0.0,0.0,0.0,0.0,0.0,0.0,0.0,0.0,0.0,0.0,0.0,0.0,0.0,0.0,0.0,0.0,0.0,0.0,0.0,0.0,0.0,0.0,0.0,0.0,0.0,0.0,0.0,0.0,0.0,0.0,0.0,0.0,0.0,0.0,0.0,0.0,0.0,0.0,0.0,0.0,0.0,0.0,0.0,0.0,0.0,0.0,0.0,0.0,0.0,0.0,0.0,0.0,0.0,0.0,0.0,0.0,0.0,0.0,0.0,0.0,0.0,0.0,0.0,0.0,0.0,0.0,0.0,0.0,0.0,0.0,0.0,0.0,0.0,0.0,0.0,0.0,0.0,0.0,0.0,0.0,0.0,0.0,0.0,0.0,0.0,0.0,0.0,0.0,0.0,0.0,0.0,0.0,0.0,0.0,0.0,0.0,0.0,0.0,0.0,0.0,0.0,0.0,0.0,0.0,0.0,0.0,0.0,0.0,0.0,0.0,0.0,0.0,0.0,0.0,0.0,0.0,0.0,0.0,0.0,0.0,0.0,0.0,0.0,0.0,0.0,0.0,0.0,0.0,0.0,0.0,0.0,0.0,0.0,0.0,0.0,0.0,0.0,0.0,0.0,0.0,0.0,0.0,0.0,0.0,0.0,0.0,0.0,0.0,0.0,0.0,0.0,0.0,0.0,0.0,0.0,0.0,0.0,0.0,0.0,0.0,0.0,0.0,0.0,0.0,0.0,0.0,0.0,0.0,0.0,0.0,0.0,0.0,0.0,0.0,0.0,0.0,0.0,0.0,0.0,0.0,0.0,0.0,0.0,0.0,0.0,0.0,0.0,0.0,0.0,0.0,0.0,0.0,0.0,0.0,0.0,0.0,0.0,0.0,0.0,0.0,0.0,0.0,0.0,0.0,0.0,0.0,0.0,0.0,0.0,0.0,0.0,0.0,0.0,0.0,0.0,0.0,0.0,0.0,0.0,0.0,0.0,0.0,0.0,0.0,0.0,0.0,0.0,0.0,0.0,0.0,0.0,0.0,0.0,0.0,0.0,0.0,0.0,0.0,0.0,0.0,0.0,0.0,0.0,0.0,0.0,0.0784,0.1245,0.1356,0.0864,0.0802,0.0555,0.0062,0.0,0.0,0.0,0.0,0.0,0.0,0.0,0.0,0.0,0.0,0.0,0.0,0.0,0.0,0.0,0.0,0.0,0.0,0.0,0.0,0.0,0.0,0.0,0.0,0.0,0.0,0.0,0.0,0.0,0.0,0.0,0.0,0.0,0.0,0.0,0.0,0.0,0.0,0.0,0.0,0.0,0.0,0.0,0.0,0.0,0.0,0.0,0.0,0.0,0.0,0.0,0.0,0.0,0.0,0.0,0.0,0.0,0.0,0.0,0.0,0.0,0.0,0.0,0.0,0.0,0.0,0.0,0.0,0.0,0.0,0.0,0.0,0.0,0.0,0.0,0.0,0.0,0.0,0.0,0.0,0.0,0.0,0.0,0.0,0.0,0.0,0.0,0.0,0.0,0.0,0.0,0.0,0.0,0.0,0.0,0.0,0.0,0.0,0.0,0.0,0.0,0.0,0.0,0.0,0.0,0.2015,0.314,0.3446,0.2281,0.2157,0.1665,0.0494,0.037,0.0365,0.0353,0.0,0.0,0.0,0.0,0.0,0.0,0.0,0.0,0.0,0.0,0.0,0.0,0.0,0.0,0.0,0.0,0.0,0.0,0.0,0.0,0.0,0.0,0.0,0.0,0.0,0.0,0.0,0.0,0.0,0.0,0.0,0.0,0.0,0.0,0.0,0.0,0.0,0.0,0.0,0.0,0.0,0.0,0.0,0.0,0.0,0.0,0.0,0.0,0.0,0.0,0.0,0.0,0.0,0.0,0.0,0.0,0.0,0.0,0.0,0.0,0.0056,-0.0644,0.0,0.0,0.0,0.0,0.0,0.0,0.0,0.0,0.0,0.0,0.0,0.0,0.0,0.0,0.0,0.0,0.0,0.0,0.0,0.0,0.0,0.0,0.0,0.0,0.0,0.0,0.0,0.0,0.0,0.0,0.0,0.0,0.0,0.0,0.0,0.0,0.0,0.0,0.0,0.0,0.2015,0.314,0.3815,0.3507,0.3507,0.3384,0.3077,0.3077,0.3082,0.3065,0.3084,0.0,0.0,0.0,0.0,0.0,0.0,0.0,0.0,0.0,0.0,0.0,0.0,0.0,0.0,0.0,0.0,0.0,0.0,0.0,0.0,0.0,0.0,0.0,0.0,0.0,0.0,0.0,0.0,0.0,0.0,0.0,0.0,0.0,0.0,0.0,0.0,0.0,0.0,0.0,0.0,0.0,0.0,0.0,0.0,0.0,0.0,0.0,0.0,0.0,0.0,0.0,0.0,0.0,0.0,0.0,0.0,0.0,0.0,0.0,0.0908,0.1174,0.0,0.0,0.0,0.0,0.0,0.0,0.0,0.0,0.0,0.0,0.0,0.0,0.0,0.0,0.0,0.0,0.0,0.0,0.0,0.0,0.0,0.0,0.0,0.0,0.0,0.0,0.0,0.0,0.0,0.0,0.0,0.0,0.0,0.0,0.0,0.0,0.0,0.0,0.0,0.0,0.3692,0.4913,0.5594,0.4923,0.4306,0.3876,0.3876,0.3323,0.323,0.3863,0.3893,0.0,0.0,0.0,0.0,0.0,0.0,0.0,0.0,0.0,0.0,0.0,0.0,0.0,0.0,0.0,0.0,0.0,0.0,0.0,0.0,0.0,0.0,0.0,0.0,0.0,0.0,0.0,0.0,0.0,0.0,0.0,0.0,0.0,0.0,0.0,0.0,0.0,0.0,0.0,0.0,0.0,0.0,0.0,0.0,0.0,0.0,0.0,0.0,0.0,0.0,0.0,0.0,0.0,0.1934,0.1257,-0.0057,-0.0057,-0.0057,0.0115,0.2759,0.3423,0.246,0.1484,0.0,0.0,0.0,0.0,0.0,0.0,0.0,0.0,0.0,0.0,0.0,0.0,0.0,0.0,0.0,0.0,0.0,0.0,0.0,0.0,0.0,0.0,0.2494,0.38,0.3928,0.3844,0.4322,0.0,0.0,0.0,0.0,0.0,0.0,0.0,0.0,0.0,0.0,0.0,0.5481,0.6926,0.75,0.6399,0.5287,0.4613,0.4613,0.3633,0.3448,0.4551,0.4568,0.4486,0.0,0.0,0.0,0.0,0.0,0.0,0.0,0.0,0.0,0.0,0.0,0.0,0.0,0.0,0.0,0.0,0.0,0.0,0.0,0.0,0.0,0.0,0.0,0.0,0.0,0.0,0.0,0.0,0.0,0.0,0.0,0.0,0.7245,0.7194,0.0,0.0,0.0,0.0,0.0,0.0,0.0,0.0,0.0,0.0,0.0,0.0,0.0,0.538,0.6604,0.568,0.5656,0.6594,0.6933,0.7002,0.6817,0.6848,0.6886,0.6881,0.7158,0.0,-0.0765,-0.0997,0.0,0.0,0.0,0.0,0.0,0.0,0.0,0.0,0.0,0.0,0.0,0.0,0.0,0.0,0.0,0.0,0.0,0.0,0.0,0.0,0.0,0.0,0.3212,0.4459,0.3945,0.3768,0.5991,0.4881,0.3431,0.3592,0.3526,0.3342,0.0,0.0,0.0,0.0,0.0,0.0,0.5472,0.6926,0.7811,0.7622,0.75,0.7378,0.7378,0.7194,0.7194,0.7378,0.7398,0.687,0.5701,0.5474,0.0,0.0,0.0,0.0,0.0,0.0,0.0,0.0,0.0,0.0,0.0,0.0,0.0,0.0,0.0,0.0,0.0,0.0,0.0,0.0,0.0,0.0,0.0,0.0,0.0,0.0,0.0,0.0,0.0,0.7059,0.7126,0.7188,0.721,0.7117,0.0,0.0,0.0,0.0,0.0,0.0,0.0,0.0,0.0,0.7252,0.6809,0.6905,0.7615,0.7185,0.6837,0.6411,0.6598,0.6193,0.5215,0.5251,0.5265,0.5265,0.524,0.3645,0.116,0.12,0.077,0.0059,0.0,0.0,0.0,0.0,0.0216,0.0383,0.0657,0.084,0.0863,0.0921,0.0,0.0,0.0,0.0,0.0,0.0,0.0,0.2588,0.3665,0.3995,0.4397,0.5705,0.5608,0.5516,0.6634,0.5998,0.5088,0.4589,0.448,0.4172,0.3368,0.368,0.0,0.0,0.0,0.6337,0.6327,0.7244,0.7872,0.7872,0.7194,0.7011,0.7566,0.695,0.6766,0.7327,0.7327,0.7099,0.646,0.5924,0.5362,0.0,0.0,0.0,0.0,0.0,0.0,0.0,0.0,0.0,0.0,0.0,0.0,0.0,0.0,0.0,0.0,0.0,0.0,0.0,0.0,0.0,0.0,0.0,0.0,0.0,0.0,0.0,0.0,0.6931,0.7084,0.7287,0.7358,0.7303,0.0,0.0,0.0,0.0,0.0,0.0,0.7347,0.738,0.741,0.7503,0.7621,0.776,0.7841,0.7891,0.7292,0.6005,0.6029,0.5374,0.4128,0.4145,0.4153,0.4156,0.4204,0.3957,0.3553,0.3325,0.2597,0.1435,0.0473,0.0116,0.017,0.0505,0.0732,0.0793,0.085,0.0869,0.0892,0.0952,0.0702,0.063,0.1988,0.0,0.0,0.0,0.0,0.3882,0.4987,0.5293,0.5542,0.65,0.6731,0.6731,0.6731,0.657,0.6246,0.553,0.5446,0.5094,0.3988,0.4519,0.0,0.4949,0.6051,0.6846,0.6876,0.7305,0.7627,0.7627,0.6771,0.6464,0.7204,0.6337,0.6092,0.6837,0.6903,0.6903,0.6903,0.6154,0.5782,0.5772,0.0,0.0,0.0,0.0,0.0,0.0,0.0,0.0,0.0,0.0,0.0,0.0,0.0,0.0,0.0,0.0,0.0,0.0,0.0,0.0,0.0,0.0,0.0,0.0,0.0,0.0,0.0,0.0,0.0,0.747,0.7698,0.0,0.0,0.0,0.0,0.721,0.7252,0.7426,0.766,0.7774,0.7943,0.8118,0.7885,0.7704,0.7709,0.7395,0.7203,0.7134,0.7173,0.715,0.7084,0.7247,0.7293,0.7293,0.7298,0.6312,0.4711,0.3558,0.3074,0.2997,0.3105,0.3164,0.3323,0.4697,0.5305,0.5681,0.6677,0.7233,0.7423,0.7423,0.6546,0.5467,0.5021,0.4422,0.0,0.0,0.5141,0.5416,0.6043,0.6324,0.6365,0.6273,0.623,0.623,0.623,0.6277,0.639,0.6761,0.6593,0.6385,0.6308,0.0,0.6261,0.6154,0.6294,0.6465,0.6506,0.6769,0.6959,0.6959,0.6898,0.6898,0.6903,0.6837,0.6837,0.6903,0.6903,0.6903,0.6903,0.6837,0.6832,0.6823,0.6506,0.0,0.0,0.0,0.0,0.0,0.0,0.0,0.0,0.0,0.0,0.0,0.0,0.0,0.0,0.0,0.0,0.0,0.0,0.0,0.0,0.0,0.0,0.0,0.0,0.0,0.0,0.0,0.0,0.7142,0.7241,0.0,0.7336,0.7514,0.7633,0.7676,0.7801,0.7986,0.8155,0.8198,0.8334,0.8573,0.8446,0.8379,0.8379,0.8312,0.8172,0.7961,0.8003,0.7982,0.7915,0.7956,0.8013,0.8091,0.8158,0.7764,0.6925,0.6522,0.4904,0.2762,0.2841,0.2988,0.3205,0.3746,0.4015,0.418,0.4651,0.4886,0.493,0.493,0.5317,0.5732,0.5369,0.5778,0.6384,0.651,0.6591,0.6682,0.6906,0.6972,0.6969,0.6942,0.6887,0.6823,0.6567,0.6515,0.653,0.6467,0.6434,0.6321,0.6196,0.6184,0.6129,0.6018,0.6224,0.6377,0.6413,0.6729,0.6903,0.6903,0.6903,0.6837,0.6591,0.6591,0.6469,0.6285,0.6285,0.6285,0.6285,0.6469,0.6591,0.6591,0.6882,0.6828,0.0,0.0,0.0,0.0,0.0,0.0,0.0,0.0,0.0,0.0,0.0,0.0,0.0,0.0,0.0,0.0,0.0,0.0,0.0,0.0,0.0,0.0,0.0,0.0,0.0,0.6583,0.6727,0.7028,0.7119,0.7266,0.7495,0.7793,0.7975,0.8051,0.828,0.8448,0.853,0.8535,0.8606,0.8764,0.8565,0.8429,0.8429,0.8196,0.8005,0.7799,0.7799,0.7759,0.7685,0.7685,0.7751,0.7888,0.8102,0.806,0.7932,0.8003,0.6523,0.424,0.4198,0.4281,0.4437,0.4482,0.4497,0.4506,0.4737,0.4881,0.4945,0.4945,0.5717,0.6554,0.6366,0.7011,0.7847,0.7655,0.7596,0.7601,0.7508,0.7518,0.7463,0.7372,0.7382,0.7317,0.7057,0.6937,0.6846,0.6653,0.6442,0.6192,0.6009,0.5949,0.5904,0.5835,0.6004,0.6125,0.6125,0.6337,0.6541,0.6541,0.6573,0.6469,0.6219,0.6224,0.6155,0.5912,0.592,0.5916,0.5916,0.6008,0.6077,0.6077,0.6546,0.6662,0.6379,0.0,0.0,0.0,0.0,0.0,0.0,0.0,0.0,0.0,0.0,0.0,0.0,0.0,0.0,0.0,0.0,0.0,0.0,0.0,0.0,0.0,0.0,0.0,0.5926,0.6271,0.6685,0.7155,0.7429,0.7738,0.8172,0.8291,0.8432,0.8437,0.8644,0.8774,0.878,0.8769,0.8769,0.8774,0.8093,0.7747,0.7742,0.7096,0.6729,0.6725,0.6725,0.6725,0.6725,0.6725,0.6833,0.6942,0.7199,0.7383,0.7555,0.7824,0.7722,0.7517,0.7303,0.7212,0.7207,0.7212,0.7217,0.7281,0.7601,0.7922,0.8183,0.8183,0.8183,0.8183,0.8183,0.8183,0.8183,0.8183,0.8183,0.8146,0.7992,0.7893,0.7853,0.7569,0.7526,0.7526,0.7526,0.7365,0.7279,0.7484,0.6836,0.6197,0.5961,0.5929,0.5867,0.5629,0.56,0.0,0.56,0.5737,0.5794,0.579,0.5863,0.5912,0.5916,0.5992,0.5962,0.5904,0.5992,0.5971,0.5904,0.5655,0.5516,0.5574,0.5618,0.5935,0.6521,0.0,0.0,0.0,0.0,0.0,0.0,0.0,0.0,0.0,0.0,0.0,0.0,0.0,0.0,0.0,0.0,0.0,0.0,0.0,0.0,0.0,0.5944,0.6179,0.6469,0.6386,0.6426,0.68,0.6947,0.7196,0.7695,0.8071,0.8371,0.8728,0.8785,0.8708,0.8599,0.8644,0.8585,0.8485,0.8282,0.8173,0.8093,0.779,0.756,0.7488,0.7488,0.7488,0.7488,0.7488,0.7566,0.7725,0.7785,0.7846,0.7869,0.7926,0.7869,0.7795,0.7522,0.7345,0.7217,0.7228,0.7304,0.7417,0.7394,0.7507,0.7705,0.7705,0.7898,0.8096,0.8096,0.8294,0.8492,0.8492,0.8492,0.8497,0.8397,0.8408,0.8413,0.8312,0.8323,0.8256,0.7994,0.7877,0.7786,0.7517,0.7279,0.7003,0.6683,0.6404,0.6166,0.6051,0.6035,0.6035,0.6035,0.6055,0.6047,0.5986,0.6067,0.6029,0.5912,0.6167,0.6314,0.6272,0.6481,0.6621,0.6482,0.64,0.6473,0.671,0.6384,0.6412,0.0,0.0,0.0,0.0,0.0,0.0,0.0,0.0,0.0,0.0,0.0,0.0,0.0,0.0,0.0,0.0,0.0,0.0,0.0,0.0,0.0,0.0,0.5854,0.615,0.6536,0.6402,0.6391,0.6792,0.6907,0.7139,0.7645,0.7957,0.8253,0.8529,0.87,0.8779,0.8693,0.8867,0.8917,0.8679,0.8632,0.853,0.8298,0.8279,0.816,0.8098,0.8098,0.8002,0.7746,0.7746,0.7709,0.7649,0.7808,0.7865,0.7931,0.8021,0.7998,0.7953,0.0,0.0,0.0,0.0,0.7071,0.7307,0.7187,0.729,0.7526,0.7526,0.766,0.7861,0.7861,0.7923,0.8044,0.8044,0.7977,0.792,0.8018,0.8044,0.807,0.8102,0.8123,0.8123,0.8123,0.7985,0.7949,0.7974,0.7786,0.0,0.7431,0.7033,0.6666,0.653,0.6508,0.6508,0.6508,0.6543,0.6548,0.6495,0.6513,0.653,0.6399,0.6607,0.0,0.0,0.0,0.6754,0.6484,0.6479,0.0,0.0,0.0,0.6654,0.7206,0.6951,0.0,0.0,0.6892,0.6653,0.0,0.0,0.0,0.0,0.0,0.0,0.0,0.0,0.0,0.0,0.0,0.0,0.0,0.0,0.0,0.0,0.5899,0.5998,0.6465,0.6411,0.6535,0.6942,0.7038,0.7272,0.772,0.7894,0.796,0.8045,0.8499,0.8834,0.8844,0.9176,0.0,0.0,0.0,0.878,0.8505,0.8528,0.8535,0.8535,0.8535,0.8262,0.7804,0.7804,0.7584,0.7266,0.7509,0.7692,0.7813,0.8002,0.8026,0.7998,0.7949,0.764,0.7201,0.6749,0.6719,0.6996,0.6965,0.0,0.0,0.7393,0.7393,0.7459,0.7459,0.7393,0.731,0.731,0.7171,0.7065,0.7257,0.731,0.7358,0.7479,0.7526,0.7593,0.7922,0.7903,0.7886,0.8413,0.816,0.7891,0.8092,0.7697,0.7243,0.7051,0.7084,0.7084,0.7084,0.7108,0.7161,0.7147,0.7113,0.0,0.7108,0.7065,0.703,0.695,0.6906,0.6699,0.6284,0.6255,0.6266,0.6396,0.65,0.6767,0.732,0.7497,0.7665,0.7922,0.6863,0.6678,0.0,0.0,0.0,0.0,0.0,0.0,0.0,0.0,0.0,0.0,0.0,0.0,0.0,0.0,0.0,0.5899,0.6126,0.6419,0.651,0.6692,0.6799,0.6749,0.689,0.7119,0.7571,0.7747,0.7911,0.829,0.8331,0.8419,0.8576,0.8624,0.8719,0.8765,0.8739,0.8739,0.8693,0.8568,0.8535,0.8535,0.8535,0.0,0.8356,0.8356,0.8053,0.7632,0.7668,0.7692,0.7657,0.7697,0.7847,0.8102,0.7977,0.7822,0.77,0.7027,0.6969,0.7071,0.657,0.6526,0.6723,0.6723,0.6853,0.7121,0.7121,0.7293,0.0,0.7464,0.7436,0.7412,0.7455,0.7464,0.7474,0.7517,0.7526,0.7526,0.7593,0.7826,0.8071,0.8184,0.8352,0.8469,0.8512,0.7954,0.745,0.7412,0.7403,0.7403,0.7403,0.7422,0.7403,0.7382,0.7268,0.7207,0.7103,0.7305,0.7385,0.7312,0.7331,0.7348,0.7243,0.7057,0.7033,0.7086,0.7204,0.7401,0.7633,0.7747,0.8011,0.8299,0.766,0.7445,0.0,0.0,0.0,0.0,0.0,0.0,0.0,0.0,0.0,0.0,0.0,0.7247,0.6853,0.0,0.6069,0.6015,0.617,0.6461,0.6692,0.684,0.691,0.6794,0.6909,0.7079,0.7344,0.7434,0.7585,0.7858,0.8013,0.8262,0.8536,0.8815,0.9027,0.9192,0.9303,0.9308,0.9197,0.9267,0.9229,0.9229,0.9229,0.9122,0.892,0.892,0.8634,0.8081,0.7808,0.7685,0.7637,0.7588,0.7711,0.7847,0.7964,0.796,0.7888,0.7538,0.746,0.7452,0.6915,0.6777,0.6783,0.6602,0.6585,0.6719,0.6719,0.6788,0.6841,0.6841,0.6774,0.6721,0.6819,0.6841,0.6867,0.6965,0.6991,0.7058,0.7187,0.7388,0.7655,0.8056,0.8256,0.839,0.859,0.8323,0.8056,0.8056,0.8056,0.8056,0.8056,0.8056,0.8035,0.7979,0.7899,0.7764,0.7638,0.7683,0.766,0.7543,0.7498,0.7491,0.7432,0.7312,0.7274,0.7277,0.7513,0.7697,0.7937,0.806,0.8305,0.8671,0.8424,0.8179,0.0,0.0,0.0,0.0,0.0,0.0,0.0,0.8972,0.8871,0.8557,0.7886,0.7253,0.6925,0.6263,0.5896,0.6186,0.6276,0.6439,0.6873,0.6939,0.696,0.6905,0.7035,0.7133,0.715,0.7235,0.7297,0.7313,0.7689,0.8112,0.8496,0.8963,0.9243,0.9521,0.9767,0.9773,0.9666,0.985,1.0019,1.0019,1.0019,0.9816,0.9418,0.9418,0.9122,0.8634,0.7988,0.7712,0.7703,0.7533,0.7494,0.7494,0.786,0.7954,0.7941,0.7902,0.7934,0.799,0.747,0.7287,0.7119,0.6774,0.6602,0.6522,0.6522,0.6415,0.6235,0.6235,0.6133,0.6055,0.6194,0.6235,0.6272,0.6485,0.6522,0.6589,0.6853,0.6987,0.7187,0.7856,0.8056,0.8189,0.8523,0.859,0.859,0.859,0.859,0.859,0.859,0.859,0.859,0.859,0.8486,0.8361,0.8214,0.7997,0.7834,0.7741,0.7622,0.7508,0.741,0.7325,0.7372,0.7429,0.7648,0.7937,0.8295,0.843,0.8671,0.8976,0.8915,0.8672,0.8221,0.7963,0.8011,0.8431,0.8737,0.894,0.0,0.9231,0.9207,0.8953,0.8176,0.7386,0.7166,0.6766,0.6444,0.6485,0.6692,0.6865,0.6918,0.6925,0.7003,0.7084,0.7113,0.7158,0.7239,0.7325,0.7407,0.7488,0.7505,0.7747,0.8219,0.8306,0.8535,0.89,0.9231,0.9464,0.9439,0.9775,1.0019,1.0019,1.0019,0.9936,0.9925,0.9925,0.9629,0.9122,0.8164,0.7712,0.7634,0.7246,0.7063,0.7135,0.7494,0.7634,0.7684,0.787,0.8186,0.8454,0.7994,0.7548,0.7201,0.7119,0.6855,0.6522,0.6522,0.6506,0.6489,0.6489,0.6477,0.6465,0.6485,0.6489,0.6494,0.6514,0.6522,0.6522,0.6518,0.6786,0.7121,0.7526,0.7861,0.8189,0.8523,0.859,0.859,0.859,0.859,0.859,0.859,0.859,0.859,0.859,0.8486,0.8323,0.8158,0.801,0.7867,0.785,0.7741,0.7676,0.766,0.7557,0.7613,0.7904,0.8041,0.8295,0.8647,0.8787,0.8976,0.9275,0.9037,0.8848,0.8568,0.8642,0.8771,0.896,0.9232,0.9476,0.9683,0.9466,0.9281,0.9062,0.8284,0.7556,0.7279,0.6784,0.6443,0.672,0.6696,0.6754,0.6913,0.6966,0.7023,0.7117,0.708,0.7084,0.7174,0.7358,0.7439,0.7378,0.7468,0.7838,0.8544,0.8315,0.8471,0.909,0.9324,0.9402,0.9402,0.9786,1.0019,1.0019,1.0019,1.0019,1.0019,1.0019,0.9722,0.93,0.8829,0.8267,0.7708,0.7525,0.7254,0.699,0.7208,0.7421,0.7634,0.8241,0.8514,0.8642,0.8384,0.8178,0.791,0.7374,0.7038,0.6859,0.6602,0.6522,0.6522,0.6522,0.6522,0.6522,0.6522,0.6522,0.6522,0.6522,0.6522,0.6522,0.6522,0.6585,0.6853,0.7393,0.766,0.7922,0.8523,0.859,0.859,0.859,0.859,0.859,0.859,0.859,0.859,0.859,0.8421,0.8269,0.8166,0.7981,0.7872,0.7872,0.7763,0.7703,0.7703,0.7827,0.7977,0.8095,0.8462,0.8769,0.9071,0.9128,0.9275,0.9579,0.9457,0.9396,0.8825,0.9001,0.9184,0.9395,0.9632,0.9869,1.0066,0.9839,0.9497,0.9268,0.8539,0.7935,0.7624,0.7009,0.6656,0.7018,0.6836,0.6766,0.6962,0.699,0.7015,0.708,0.7031,0.6998,0.7015,0.728,0.7419,0.7341,0.7452,0.7759,0.8388,0.831,0.8471,0.9012,0.9324,0.9402,0.9402,0.9786,1.0019,1.0019,1.0019,1.0019,1.0019,1.0019,0.9816,0.9505,0.932,0.8739,0.79,0.7725,0.7439,0.699,0.699,0.7208,0.7494,0.8145,0.8512,0.8719,0.8775,0.8728,0.8459,0.7812,0.7383,0.7119,0.6779,0.6606,0.6522,0.6522,0.6522,0.6522,0.6522,0.6522,0.6522,0.6522,0.6522,0.6522,0.6522,0.6522,0.6723,0.7393,0.7526,0.7727,0.8456,0.859,0.859,0.859,0.859,0.859,0.859,0.859,0.859,0.859,0.8378,0.8172,0.8172,0.8013,0.7872,0.7872,0.7917,0.7873,0.7873,0.8228,0.8408,0.8528,0.8866,0.9159,0.9457,0.9457,0.9579,0.9822,0.9822,0.9822,0.8635,0.8615,0.8682,0.9422,0.9713,0.9903,1.0202,1.027,1.0119,0.9481,0.9122,0.8744,0.8246,0.7686,0.7305,0.734,0.7141,0.6978,0.699,0.699,0.699,0.6994,0.699,0.6925,0.6754,0.706,0.7341,0.7505,0.7521,0.7525,0.7525,0.792,0.8237,0.8237,0.9012,0.9402,0.9402,0.9786,1.0019,1.0019,1.0019,1.0019,1.0019,1.0019,1.0019,0.9931,0.951,0.901,0.8445,0.79,0.7439,0.699,0.699,0.699,0.7063,0.7494,0.8073,0.8729,0.9157,0.9005,0.8626,0.855,0.7915,0.7201,0.7196,0.6859,0.6522,0.6522,0.6522,0.6522,0.6522,0.6522,0.6522,0.6522,0.6522,0.6522,0.6522,0.6522,0.6723,0.7393,0.7526,0.7727,0.8456,0.859,0.859,0.859,0.859,0.859,0.859,0.859,0.859,0.859,0.8378,0.8172,0.8172,0.8013,0.7872,0.7872,0.8177,0.8366,0.8366,0.8726,0.9031,0.9268,0.9275,0.9457,0.9761,0.9761,0.9761,0.9822,0.9822,0.9822,0.8682,0.8967,0.9313,0.9659,0.9937,1.0175,1.0378,1.0216,0.9927,0.9818,0.9056,0.8353,0.8188,0.7531,0.7087,0.7113,0.7013,0.6927,0.7022,0.6786,0.677,0.7129,0.6962,0.6933,0.7227,0.726,0.7235,0.7174,0.739,0.7603,0.792,0.808,0.8315,0.8627,0.909,0.9402,0.9402,0.9786,1.0019,1.0019,1.0019,1.0019,1.0019,1.0019,1.0019,1.0019,0.9821,0.951,0.901,0.845,0.79,0.7439,0.7156,0.699,0.7063,0.7421,0.7933,0.8367,0.8729,0.8992,0.9016,0.8723,0.8364,0.7999,0.7378,0.7111,0.6868,0.6606,0.6522,0.6522,0.6522,0.6522,0.6522,0.6522,0.6522,0.6522,0.6522,0.6522,0.6723,0.7393,0.7526,0.7727,0.8456,0.859,0.859,0.859,0.859,0.859,0.859,0.859,0.859,0.859,0.8378,0.8172,0.8172,0.8013,0.7994,0.8244,0.8305,0.8494,0.8732,0.9037,0.9214,0.9275,0.9518,0.97,0.9822,0.9822,0.9822,0.9822,0.9822,0.9822,0.8879,0.9313,0.9747,0.9998,1.0249,1.046,1.0555,1.037,1.0129,1.0097,0.9488,0.8887,0.8688,0.8007,0.7512,0.7559,0.7161,0.6957,0.7149,0.696,0.6811,0.7129,0.699,0.699,0.7305,0.7292,0.7215,0.7096,0.7301,0.7586,0.7898,0.8052,0.8316,0.8778,0.9168,0.948,0.963,0.9864,1.0019,1.0019,1.0019,1.0019,1.0019,1.0019,0.9949,0.9835,0.9965,0.9648,0.905,0.8685,0.8174,0.7629,0.7169,0.699,0.7063,0.7276,0.7715,0.815,0.8584,0.8946,0.9219,0.8929,0.8734,0.8454,0.7719,0.7365,0.7115,0.6614,0.6522,0.6522,0.6522,0.6522,0.6522,0.6522,0.6522,0.6522,0.6522,0.6522,0.6723,0.7393,0.7526,0.7727,0.8456,0.859,0.859,0.859,0.859,0.859,0.859,0.859,0.859,0.859,0.8378,0.8236,0.8364,0.82,0.8244,0.8549,0.8671,0.8793,0.9037,0.9335,0.9457,0.9457,0.97,0.9822,0.9822,0.9822,0.9822,0.9822,0.9822,0.9822,0.9191,0.9612,0.9958,1.0392,1.0616,1.0717,1.0717,1.0717,1.0585,1.024,1.0251,1.0111,0.9506,0.8896,0.8557,0.8501,0.7641,0.713,0.7509,0.7267,0.7072,0.6998,0.7072,0.7096,0.7023,0.7174,0.7272,0.7264,0.7272,0.7276,0.7276,0.7729,0.8193,0.8774,0.9168,0.9558,1.0019,1.0019,1.0019,1.0019,1.0019,1.0019,1.0019,1.0019,0.9835,0.9536,0.9873,0.9536,0.878,0.8607,0.8178,0.7712,0.7173,0.699,0.699,0.699,0.7498,0.815,0.8512,0.8946,0.9302,0.9302,0.9011,0.8545,0.8079,0.7557,0.7119,0.6614,0.6522,0.6522,0.6522,0.6522,0.6522,0.6522,0.6522,0.6522,0.6522,0.6522,0.6723,0.7393,0.7526,0.7794,0.8456,0.859,0.859,0.8656,0.8651,0.859,0.859,0.859,0.8651,0.8651,0.8378,0.8359,0.8678,0.8511,0.8555,0.8915,0.9159,0.9335,0.9335,0.964,0.9822,0.9822,0.9822,0.9822,0.9822,0.9822,0.9822,0.9822,0.9822,0.9822,0.9327,0.9842,1.0378,1.0602,1.069,1.0717,1.0717,1.0717,1.059,1.031,0.984,0.9361,0.8959,0.8247,0.769,0.7638,0.7209,0.69,0.6934,0.6824,0.679,0.697,0.7072,0.7194,0.737,0.7431,0.7403,0.7272,0.7386,0.746,0.746,0.7847,0.8338,0.8778,0.9168,0.9558,1.0019,1.0019,1.0019,1.0019,1.0019,1.0019,1.0019,1.0019,0.997,0.9889,0.9981,0.9877,0.96,0.8804,0.8445,0.8178,0.7344,0.699,0.699,0.699,0.7498,0.8078,0.8222,0.8729,0.9302,0.9302,0.9213,0.9005,0.8168,0.7817,0.7548,0.6698,0.6522,0.6522,0.6522,0.6522,0.6522,0.6522,0.6522,0.6522,0.6522,0.6522,0.6723,0.7393,0.7922,0.839,0.859,0.859,0.8651,0.8917,0.8984,0.8851,0.8651,0.8784,0.8984,0.8984,0.9021,0.906,0.9124,0.8945,0.8915,0.9153,0.9275,0.9396,0.964,0.9761,0.9822,0.9822,0.9822,0.9822,0.9822,0.9822,0.9822,0.9822,0.9822,0.9822,0.9815,1.0222,1.0616,1.0697,1.0717,1.067,1.0473,1.0361,1.0324,0.9964,0.9613,0.9255,0.8848,0.8301,0.7915,0.7964,0.7416,0.7029,0.7212,0.696,0.6823,0.697,0.7105,0.7276,0.7505,0.7525,0.7484,0.7386,0.7399,0.7411,0.7411,0.7642,0.8147,0.8778,0.9012,0.9402,1.0019,1.0019,1.0019,1.0019,1.0019,1.0019,1.0019,1.0019,0.9932,0.9796,0.9949,0.9932,0.9704,0.8865,0.8535,0.8365,0.7426,0.699,0.699,0.699,0.7498,0.8078,0.8078,0.8657,0.9302,0.9302,0.9302,0.9115,0.8178,0.7905,0.7724,0.6774,0.6522,0.6522,0.6522,0.6522,0.6522,0.6522,0.6522,0.6522,0.6522,0.6585,0.692,0.766,0.8323,0.8784,0.8784,0.8989,0.9123,0.9322,0.9389,0.9322,0.9123,0.9256,0.9299,0.924,0.9245,0.9354,0.9362,0.9218,0.922,0.9518,0.9518,0.9579,0.9822,0.9822,0.9822,0.9822,0.9822,0.9822,0.9822,0.9822,0.9822,0.9822,0.9822,0.9822,1.0337,1.0575,1.0717,1.0717,1.0717,1.0616,1.0166,1.0031,0.9869,0.9496,0.9456,0.9381,0.9035,0.866,0.8555,0.8797,0.7912,0.7345,0.7683,0.7336,0.7055,0.6958,0.7137,0.7333,0.7509,0.7505,0.7501,0.7521,0.7382,0.7297,0.7297,0.7297,0.7752,0.8696,0.8778,0.9168,0.9864,0.9864,0.9864,0.9864,0.9864,0.9942,0.9942,0.9942,0.9851,0.9574,0.9883,0.9845,0.9488,0.881,0.8535,0.8365,0.7426,0.699,0.699,0.699,0.7498,0.8078,0.8078,0.8657,0.9302,0.9302,0.9302,0.9115,0.8178,0.7905,0.7724,0.6774,0.6522,0.6522,0.6522,0.6522,0.6522,0.6522,0.6522,0.6522,0.6522,0.6786,0.7254,0.7989,0.8656,0.9117,0.9183,0.9455,0.9728,0.9728,0.9794,0.9794,0.9794,0.9794,0.9672,0.9472,0.946,0.945,0.9568,0.9419,0.9518,0.9761,0.9822,0.9822,0.9822,0.9822,0.9822,0.9822,0.9822,0.9822,0.9822,0.9822,0.9822,0.9822,0.9822,0.9822,1.0238,1.0419,1.0717,1.0717,1.0717,1.0697,1.0622,1.0253,0.9896,0.9639,0.9198,0.892,0.9083,0.859,0.8276,0.8532,0.8039,0.7428,0.6819,0.7126,0.7229,0.679,0.7064,0.7333,0.7509,0.7395,0.737,0.7513,0.7497,0.748,0.748,0.748,0.773,0.831,0.8622,0.8856,0.9012,0.9012,0.9012,0.9012,0.9324,0.9475,0.9475,0.9864,0.9987,0.9932,0.9992,0.9987,0.9839,0.8905,0.8535,0.8365,0.7426,0.699,0.699,0.699,0.7498,0.8078,0.8078,0.8657,0.9302,0.9302,0.9302,0.9115,0.8178,0.7905,0.7724,0.6774,0.6522,0.6522,0.6522,0.6522,0.6522,0.6522,0.6522,0.6522,0.6522,0.6991,0.7655,0.839,0.8851,0.9183,0.9528,0.9661,0.9794,1.006,1.0127,1.0193,1.0518,1.0259,1.0069,0.9922,1.0044,1.0089,0.9935,0.9787,0.9761,0.9822,0.9822,0.9822,0.9822,0.9822,0.9822,0.9822,0.9822,0.9822,0.9822,0.9822,0.9822,0.9822,0.9822,0.9822,1.0154,1.0378,1.0717,1.0717,1.0717,1.0595,1.0127,0.9856,0.953,0.892,0.856,0.8404,0.8547,0.8207,0.8072,0.852,0.8169,0.7711,0.7304,0.744,0.7391,0.6943,0.7101,0.7297,0.7382,0.7268,0.7248,0.7378,0.7346,0.7378,0.7517,0.7764,0.7998,0.8159,0.8622,0.8778,0.8778,0.8778,0.8778,0.8778,0.9246,0.9402,0.9402,0.9786,1.0019,1.0019,1.0253,1.0224,0.9963,0.9613,0.9255,0.9014,0.8454,0.8218,0.8218,0.8218,0.8579,0.9013,0.9013,0.9446,0.9951,0.9951,0.9663,0.9115,0.8178,0.7905,0.7724,0.6774,0.6719,0.7054,0.7054,0.7054,0.7121,0.7522,0.7588,0.7655,0.7784,0.8123,0.8523,0.9056,0.9455,0.9721,0.9927,1.0127,1.0259,1.0459,1.0459,1.0525,1.0651,1.0591,1.0399,1.0247,1.03,1.0215,0.9997,0.9849,0.9822,0.9822,0.9822,0.9822,0.9822,0.9822,0.9822,0.9822,0.9822,0.9822,0.9822,0.9822,0.9822,0.9822,0.9822,0.9822,1.0199,1.0453,1.0717,1.0717,1.0717,1.0514,0.9707,0.9449,0.915,0.835,0.8056,0.8029,0.8157,0.8065,0.8129,0.869,0.8318,0.7922,0.7801,0.7635,0.7424,0.7055,0.715,0.7276,0.7317,0.7219,0.7203,0.7313,0.7252,0.7305,0.7513,0.7842,0.808,0.808,0.8388,0.8544,0.8544,0.8544,0.8544,0.8544,0.9012,0.9324,0.9402,0.9942,1.0175,1.033,1.0641,1.0498,1.0155,1.0214,1.0041,0.957,0.9402,0.9302,0.9302,0.9302,0.9518,0.9879,0.9879,1.0167,1.0527,1.0527,1.0095,0.9402,0.8529,0.8253,0.807,0.7179,0.7316,0.7717,0.7717,0.7717,0.7851,0.8451,0.859,0.8717,0.905,0.9117,0.925,0.9728,0.9994,1.0193,1.0259,1.0518,1.0717,1.0717,1.0717,1.0717,1.0717,1.0717,1.0677,1.0555,1.0385,1.0215,0.9997,0.9849,0.9822,0.9822,0.9822,0.9822,0.9822,0.9822,0.9822,0.9822,0.9822,0.9822,0.9822,0.9822,0.9822,0.9822,0.9822,0.9822,1.0561,1.069,1.0717,1.0717,1.0717,1.0588,1.0163,0.9733,0.9239,0.875,0.8271,0.8157,0.8703,0.8536,0.8508,0.8928,0.8477,0.7899,0.7416,0.7458,0.7413,0.7034,0.715,0.7325,0.7484,0.735,0.7321,0.7488,0.7493,0.7501,0.7525,0.7525,0.7525,0.7525,0.7603,0.7603,0.7603,0.7603,0.7603,0.7603,0.8466,0.9012,0.9402,1.0175,1.0796,1.1184,1.1184,1.0954,1.0522,1.0363,1.0041,0.957,0.9402,0.9302,0.9302,0.9302,0.9518,0.9879,0.9879,1.0167,1.0527,1.0527,1.0455,1.0263,0.9579,0.9365,0.9245,0.8588,0.8456,0.8518,0.8518,0.8518,0.8523,0.859,0.859,0.8717,0.905,0.9117,0.9316,0.9994,1.0193,1.0326,1.0585,1.0651,1.0717,1.0717,1.0717,1.0717,1.0717,1.0717,1.0717,1.0704,1.0446,1.0215,0.9997,0.9849,0.9822,0.9822,0.9822,0.9822,0.9822,0.9822,0.9822,0.9822,0.9822,0.9822,0.9822,0.9822,0.9822,0.9822,0.9822,0.9822,0.9937,1.031,1.0717,1.0717,1.0717,1.0534,0.9808,0.951,0.9178,0.8452,0.8116,0.8062,0.8298,0.8242,0.8188,0.8353,0.8187,0.7935,0.7757,0.7656,0.7566,0.7473,0.7415,0.7346,0.7366,0.7256,0.7211,0.728,0.7337,0.7415,0.7521,0.7525,0.7525,0.7525,0.7525,0.7603,0.792,0.792,0.8154,0.8618,0.9241,0.9708,1.0175,1.0719,1.1107,1.134,1.1572,1.1195,1.0605,1.1148,1.0913,1.0278,1.0599,1.0678,1.0678,1.0678,1.0822,1.0894,1.0894,1.1038,1.1181,1.1181,1.1123,1.087,0.984,0.9504,0.9383,0.8789,0.8917,0.925,0.925,0.9582,0.9788,0.9383,0.9582,0.9921,1.0054,1.0054,1.012,1.0452,1.0525,1.0518,1.0651,1.0717,1.0717,1.0717,1.0717,1.0717,1.0717,1.0717,1.0717,1.0717,1.046,1.0256,1.0195,0.9964,0.9822,0.9822,0.9822,0.9822,0.9822,0.9822,0.9822,0.9822,0.9822,0.9822,0.9822,0.9822,0.9822,0.9822,0.9822,0.9822,0.9673,1.0175,1.0717,1.0717,1.0622,1.0324,0.9557,0.9245,0.8899,0.8133,0.7887,0.7874,0.7914,0.7921,0.7978,0.8114,0.8078,0.802,0.799,0.7799,0.7668,0.7681,0.754,0.7469,0.7337,0.728,0.7319,0.7544,0.7684,0.7855,0.8219,0.8228,0.7994,0.7525,0.7525,0.7764,0.8393,0.8393,0.8778,0.9553,1.0019,1.0352,1.0779,1.1284,1.1503,1.1625,1.1908,1.1593,1.0914,1.1777,1.1586,1.09,1.1416,1.1619,1.1619,1.1619,1.1619,1.1619,1.1619,1.1619,1.1619,1.1619,1.1518,1.1221,1.031,0.9965,0.9817,0.9381,0.9582,0.9981,0.9981,1.0319,1.0585,1.0114,1.0386,1.0717,1.0717,1.0717,1.0717,1.0717,1.0717,1.0717,1.0717,1.0717,1.0717,1.0717,1.0717,1.0717,1.0717,1.0717,1.0717,1.0717,1.0493,1.0324,1.0283,1.0039,0.9869,0.9822,0.9822,0.9822,0.9822,0.9822,0.9822,0.9822,0.9822,0.9822,0.9822,0.9822,0.9822,0.9822,0.9822,0.9822,1.0066,1.0493,1.0717,1.0717,1.0321,0.9876,0.9483,0.892,0.8364,0.7909,0.7699,0.7645,0.7787,0.7814,0.7909,0.8327,0.822,0.8026,0.7924,0.7977,0.7844,0.7327,0.7451,0.7602,0.7497,0.7521,0.7833,0.8696,0.8774,0.9163,0.9942,0.9942,0.9241,0.7525,0.7525,0.7916,0.8778,0.8778,0.9168,1.0019,1.0408,1.0744,1.1116,1.1689,1.203,1.2304,1.2457,1.2162,1.164,1.1938,1.1701,1.1192,1.1497,1.1619,1.1619,1.1619,1.1619,1.1619,1.1619,1.1619,1.1619,1.1619,1.1518,1.1362,1.1212,1.1063,1.0853,1.0698,1.0651,1.0717,1.0717,1.0717,1.0717,1.0717,1.0717,1.0717,1.0717,1.0717,1.0717,1.0717,1.0717,1.0717,1.0717,1.0717,1.0717,1.0717,1.0717,1.0717,1.0717,1.0717,1.0717,1.0717,1.0582,1.0432,1.029,1.0134,0.9923,0.9829,0.9822,0.9822,0.9822,0.9822,0.9822,0.9822,0.9822,0.9822,0.9822,0.9822,0.9822,0.9822,0.9822,0.9822,0.8988,0.9422,0.9808,0.9808,0.97,0.9449,0.8893,0.8621,0.833,0.778,0.7631,0.7645,0.7787,0.7814,0.7959,0.8375,0.8412,0.8485,0.8752,0.8778,0.8881,0.8914,0.9101,0.9203,0.9231,0.9101,0.9152,0.962,0.9484,0.9616,1.0014,1.0019,0.9786,0.9241,0.9241,0.9475,1.0019,1.0019,1.0486,1.134,1.1417,1.1504,1.1623,1.2069,1.2181,1.2004,1.2305,1.2169,1.164,1.1938,1.1708,1.1261,1.1497,1.1619,1.1619,1.1619,1.1619,1.1619,1.1619,1.1619,1.1619,1.1619,1.1443,1.1226,1.1179,1.1063,1.0847,1.0765,1.0717,1.0717,1.0717,1.0717,1.0717,1.0717,1.0717,1.0717,1.0717,1.0717,1.0717,1.0717,1.0717,1.0717,1.0717,1.0717,1.0717,1.0717,1.0717,1.0717,1.0717,1.0717,1.0717,1.0717,1.0677,1.0588,1.0439,1.0195,0.9963,0.9916,0.9876,0.9822,0.9822,0.9822,0.9822,0.9822,0.9822,0.9822,0.9822,0.9822,0.9822,0.9822,0.9822,0.9822,0.8404,0.8838,0.9225,0.9279,0.9171,0.8947,0.8567,0.8309,0.8031,0.7604,0.7645,0.776,0.7733,0.7916,0.813,0.8269,0.8579,0.8883,0.8988,0.9234,0.9472,0.9552,0.9644,0.9796,1.0008,0.9883,1.0009,1.0474,1.0338,1.0474,1.094,1.0952,1.0952,1.0952,1.033,1.0253,1.0874,1.0874,1.1262,1.2114,1.2114,1.2112,1.199,1.2374,1.2333,1.2004,1.2381,1.223,0.0,1.1986,1.1775,1.1355,1.1545,1.1619,1.1619,1.1619,1.1619,1.1619,1.1619,1.1619,1.1613,1.1552,1.1328,1.107,1.1016,1.0934,1.0846,1.0744,1.0717,1.0717,1.0717,1.0717,1.0717,1.0717,1.0717,1.0717,1.0717,1.0717,1.0717,1.0717,1.0717,1.0717,1.0717,1.0717,1.0717,1.0717,1.0717,1.0717,1.0717,1.0717,1.0717,1.0717,1.0717,1.0683,1.0588,1.0358,1.0105,0.9997,0.9896,0.9883,0.9822,0.9822,0.9822,0.9822,0.9822,0.9822,0.9822,0.9822,0.9822,0.9822,0.9822,0.9822,0.0,0.8608,0.8872,0.9064,0.8784,0.8418,0.8404,0.7977,0.0,0.7441,0.776,0.7928,0.7712,0.8153,0.8465,0.8103,0.8788,0.92,0.88,0.9349,0.971,0.9521,0.949,0.9719,1.0109,1.0158,1.0486,1.134,1.1417,1.1727,1.2424,1.2501,1.2501,1.2501,1.1029,1.0563,1.1417,1.1417,1.1714,1.2454,1.2488,1.2402,1.2233,1.2436,1.2409,1.2297,1.245,1.2325,1.2135,1.2047,1.1877,1.1619,1.1619,1.1619,1.1619,1.1619,1.1619,1.1619,1.1619,1.1619,1.1592,1.143,1.1185,1.0853,1.0765,1.0717,1.0717,1.0717,1.0717,1.0717,1.0717,1.0717,1.0717,1.0717,1.0717,1.0717,1.0717,1.0717,1.0717,1.0717,1.0717,1.0717,1.0717,1.0717,1.0717,1.0717,1.0717,1.0717,1.0717,1.0717,1.0717,1.0717,1.0717,1.0717,1.0717,1.0582,1.0378,1.0038,1.0011,0.9943,0.9863,0.9842,0.9836,0.9836,0.9829,0.9822,0.9822,0.9822,0.9822,0.9822,0.9822,0.9822,0.7361,0.0,0.7923,0.7957,0.7889,0.7773,0.0,0.7569,0.7509,0.7821,0.8058,0.8228,0.8269,0.8859,0.9211,0.8737,0.9225,0.9539,0.92,0.989,1.0389,1.037,1.1213,1.1644,1.1418,1.1689,1.2037,1.2192,1.2192,1.2269,1.2501,1.2501,1.2501,1.2501,1.2114,1.2037,1.2192,1.2192,1.2096,1.1993,1.2338,1.2162,1.1489,1.2217,1.2257,1.1923,1.2189,1.2237,1.2054,1.1932,1.1782,1.1619,1.1619,1.1619,1.1619,1.1619,1.1619,1.1619,1.1619,1.1619,1.1572,1.1307,1.1097,1.0853,1.0765,1.0717,1.0717,1.0717,1.0717,1.0717,1.0717,1.0717,1.0717,1.0717,1.0717,1.0717,1.0717,1.0717,1.0717,1.0717,1.0717,1.0717,1.0717,1.0717,1.0717,1.0717,1.0717,1.0717,1.0717,1.0717,1.0717,1.0717,1.0717,1.0717,1.0717,1.0582,1.046,1.0392,1.0283,1.0209,1.0175,1.0059,0.993,0.993,0.9883,0.9822,0.9822,0.9822,0.9822,0.9822,0.9822,0.9822,0.7098,0.722,0.7475,0.7821,0.7699,0.7543,0.7787,0.7617,0.7495,0.7894,0.816,0.8368,0.8459,0.8872,0.9144,0.8912,0.9148,0.9498,0.9724,1.0241,1.0657,1.0766,1.1457,1.187,1.1837,1.2237,1.2501,1.2501,1.2501,1.2501,1.2501,1.2501,1.2501,1.2501,1.2501,1.2501,1.2501,1.2501,1.2277,1.1837,1.2284,1.2135,1.1491,1.2189,1.2372,1.2135,1.2094,1.2074,1.204,1.1748,1.1626,1.1619,1.1619,1.1619,1.1619,1.1619,1.1619,1.1619,1.1619,1.1531,1.1382,1.1219,1.1016,1.0759,1.0744,1.0717,1.0717,1.0717,1.0717,1.0717,1.0717,1.0717,1.0717,1.0717,1.0717,1.0651,1.0525,1.0459,1.0452,1.0259,1.0259,1.0259,1.0259,1.0259,1.0259,1.0259,1.0392,1.0459,1.0459,1.0585,1.0717,1.0717,1.0717,1.0717,1.0717,1.0643,1.0568,1.0493,1.0419,1.0351,1.0283,1.0134,0.9957,0.9883,0.9863,0.9822,0.9822,0.9822,0.9822,0.9822,0.9822,0.9822,0.7098,0.7112,0.7346,0.8058,0.778,0.7495,0.8099,0.7767,0.7502,0.8092,0.8336,0.8486,0.8628,0.8927,0.911,0.8905,0.8959,0.934,1.0107,1.0527,1.0785,1.0799,1.1151,1.1463,1.1796,1.2237,1.2501,1.2501,1.2501,1.2501,1.2501,1.2501,1.2501,1.2501,1.2501,1.2501,1.2501,1.2501,1.2277,1.1837,1.2284,1.2264,1.1843,1.2298,1.2488,1.2447,1.204,1.1925,1.1993,1.1592,1.1504,1.1619,1.1619,1.1619,1.1619,1.1619,1.1619,1.1613,1.1592,1.1402,1.1158,1.1138,1.0948,1.0717,1.0717,1.0717,1.0717,1.0717,1.0717,1.0717,1.0717,1.0717,1.0717,1.0717,1.0717,1.0591,1.0259,1.0193,1.0127,0.9794,0.9728,0.9728,0.9728,0.9728,0.9728,0.9728,0.9994,1.0193,1.0193,1.0518,1.0717,1.0717,1.0717,1.0717,1.0717,1.0717,1.0663,1.0534,1.0527,1.0453,1.029,1.0154,0.9943,0.9822,0.9822,0.9822,0.9822,0.9822,0.9822,0.9822,0.9822,0.9822,0.7098,0.7238,0.7455,0.795,0.7577,0.7287,0.7887,0.7564,0.7522,0.873,0.9103,0.9259,0.9408,1.0385,1.0683,0.9128,0.9303,0.9734,0.9869,1.048,1.0759,1.0588,1.1484,1.204,1.185,1.2237,1.2501,1.2501,1.2501,1.2501,1.2501,1.2501,1.2501,1.2501,1.2501,1.2501,1.2501,1.2501,1.2277,1.1837,1.2284,1.2264,1.1843,1.2298,1.2433,1.2311,1.2115,1.1965,1.185,1.166,1.1599,1.1619,1.1619,1.1619,1.1619,1.1619,1.1619,1.1599,1.147,1.1307,1.1145,1.1023,1.086,1.0717,1.0717,1.0717,1.0717,1.0717,1.0717,1.0717,1.0717,1.0717,1.0717,1.0717,1.0717,1.0591,1.0259,1.0193,1.0127,0.9794,0.9728,0.9728,0.9728,0.9728,0.9728,0.9728,0.9994,1.0193,1.0193,1.0518,1.0717,1.0717,1.0717,1.0717,1.0717,1.0717,1.0711,1.0683,1.0683,1.0561,1.029,1.0256,1.0114,0.9829,0.9822,0.9822,0.9822,0.9822,0.9822,0.9822,0.9822,0.9822,0.7098,0.7146,0.7455,0.8258,0.7961,0.7739,0.8824,0.8298,0.7982,0.9469,0.9171,0.8872,0.9591,0.9971,1.0005,0.9496,1.0188,1.0649,1.0243,1.0557,1.0853,1.086,1.1416,1.1736,1.1537,1.1934,1.2114,1.1882,1.1882,1.1882,1.1882,1.2037,1.2192,1.2192,1.2424,1.2424,1.2192,1.2424,1.2277,1.1837,1.2284,1.2264,1.1843,1.2298,1.2427,1.2271,1.1959,1.1823,1.1809,1.1497,1.147,1.1619,1.1619,1.1619,1.1619,1.1619,1.1619,1.1599,1.1443,1.1294,1.1138,1.0717,1.0638,1.0658,1.0452,1.0591,1.0717,1.0717,1.0717,1.0651,1.0452,1.0452,1.0452,1.0452,1.0259,1.0127,0.9994,0.9788,0.9522,0.9189,0.9123,0.9123,0.9123,0.9123,0.9123,0.9123,0.9389,0.9588,0.9588,0.9921,1.0259,1.0392,1.0452,1.0525,1.0651,1.0717,1.0717,1.0717,1.0717,1.0588,1.029,1.0283,1.0134,0.9829,0.9822,0.9822,0.9822,0.9822,0.9822,0.9822,0.9822,0.9822,0.7098,0.7125,0.7402,0.8513,0.8241,0.8119,0.9633,0.8925,0.8431,1.0005,0.9334,0.8723,0.9836,0.9544,0.9283,0.9937,1.0806,1.1233,1.0724,1.088,1.1077,1.122,1.1362,1.1456,1.127,1.165,1.1727,1.134,1.1417,1.1417,1.134,1.165,1.1882,1.1727,1.2037,1.2037,1.1727,1.2192,1.2172,1.1844,1.2262,1.2305,1.1952,1.2222,1.2199,1.2012,1.1597,1.1497,1.161,1.1268,1.1339,1.1619,1.1619,1.1619,1.1619,1.1476,1.1527,1.1545,1.1177,1.1031,1.0946,1.0393,1.0344,1.0392,1.0193,1.0326,1.0591,1.0518,1.0525,1.0525,1.0259,1.0127,1.006,1.006,0.9861,0.9661,0.9594,0.9322,0.8984,0.8656,0.859,0.859,0.859,0.859,0.859,0.859,0.8917,0.9117,0.9117,0.9455,0.9794,1.006,1.006,1.0193,1.0518,1.0651,1.0717,1.0717,1.0717,1.0588,1.029,1.0283,1.0134,0.9829,0.9822,0.9822,0.9822,0.9822,0.9822,0.9822,0.9822,0.9822,0.7098,0.7244,0.7555,0.816,0.7855,0.7868,0.9586,0.8844,0.833,1.0114,1.0059,0.989,1.0534,1.0161,0.9958,1.0555,1.0731,1.086,1.1084,1.1253,1.1307,1.1179,1.1538,1.1643,1.1431,1.1708,1.1727,1.134,1.165,1.1727,1.134,1.165,1.1727,1.134,1.134,1.134,1.134,1.1727,1.1947,1.1914,1.2333,1.2413,1.2257,1.1911,1.1616,1.135,1.0951,1.0875,1.1057,1.1025,1.124,1.1619,1.1619,1.1619,1.1548,1.1188,1.1174,1.1318,1.0468,1.0322,1.0386,0.9917,0.9734,0.9794,0.9728,0.9994,1.0193,0.9861,0.9994,1.0259,1.0193,0.9994,0.9728,0.9728,0.9728,0.9594,0.925,0.9117,0.8984,0.8656,0.859,0.859,0.859,0.859,0.859,0.859,0.8917,0.9117,0.9117,0.9455,0.9728,0.9728,0.9728,0.9861,1.0193,1.0525,1.0717,1.0717,1.0717,1.0588,1.029,1.0283,1.0134,0.9829,0.9822,0.9822,0.9822,0.9822,0.9822,0.9822,0.9822,0.9822,0.7098,0.7326,0.7726,0.8654,0.8422,0.835,0.9958,0.9523,0.9245,1.086,1.0317,0.9618,0.9849,1.0236,1.053,1.0759,1.1097,1.1253,1.1241,1.1212,1.1226,1.1241,1.1314,1.1259,1.0927,1.1058,1.0972,1.0437,1.0595,1.0641,1.0486,1.0874,1.1029,1.0874,1.1184,1.1142,1.0827,1.1447,1.1632,1.1321,1.202,1.2139,1.1773,1.1622,1.1363,1.0951,1.0737,1.0809,1.0972,1.0972,1.126,1.1619,1.1619,1.1619,1.1548,1.1116,1.1025,1.1017,1.0316,1.0104,1.0029,0.9497,0.9522,0.9661,0.9389,0.9588,0.9861,0.9728,0.9588,0.9516,0.9516,0.9455,0.9322,0.9322,0.9189,0.9056,0.9117,0.8917,0.8717,0.8656,0.859,0.859,0.859,0.859,0.859,0.859,0.8717,0.8784,0.8784,0.8923,0.9123,0.9322,0.9721,1.006,1.0193,1.0525,1.0717,1.0717,1.0717,1.0588,1.029,1.0283,1.0134,0.9829,0.9822,0.9822,0.9822,0.9822,0.9822,0.9822,0.9822,0.9822,0.7227,0.7475,0.7896,0.8845,0.8676,0.8676,1.0215,0.9951,0.9768,1.1124,1.0704,1.0032,0.9842,1.0392,1.0806,1.0806,1.1131,1.1294,1.1179,1.1234,1.1124,1.1036,1.1104,1.1021,1.0504,1.062,1.0479,0.9851,0.9938,1.0064,0.9911,1.0295,1.0443,1.0295,1.0602,1.0632,1.0393,1.1075,1.1239,1.0804,1.1645,1.1788,1.1392,1.1169,1.0798,1.045,1.0304,1.0402,1.0678,1.0678,1.0966,1.1404,1.1404,1.1404,1.1332,1.0966,1.0779,1.0537,0.995,0.9668,0.9569,0.9079,0.9123,0.9322,0.905,0.9189,0.9455,0.9395,0.9256,0.905,0.8984,0.8917,0.8917,0.8917,0.8784,0.8656,0.8917,0.8784,0.859,0.859,0.859,0.859,0.859,0.859,0.859,0.859,0.859,0.859,0.859,0.859,0.8717,0.8917,0.9522,0.9854,0.9854,1.0253,1.0518,1.0518,1.0651,1.0609,1.0358,1.0304,1.0161,0.9897,0.9842,0.9822,0.9822,0.9822,0.9822,0.9822,0.9822,0.9822,0.7563,0.7712,0.7997,0.8696,0.8608,0.871,1.0337,1.0025,0.9686,1.0664,1.1301,1.143,1.0826,1.0724,1.0724,1.0724,1.0724,1.0833,1.1193,1.1234,1.105,1.0758,1.0982,1.0942,1.0248,1.0426,1.0343,0.973,1.0041,1.0116,0.9746,1.0047,1.0116,0.9746,0.9671,0.9891,1.0191,1.064,1.0792,1.0584,1.1024,1.1317,1.1244,1.0437,1.0,0.9879,0.9446,0.9518,0.9879,0.9879,1.0317,1.0972,1.0972,1.0972,1.0972,1.0599,1.0355,0.9989,0.9157,0.8995,0.905,0.8717,0.859,0.859,0.859,0.8851,0.905,0.8717,0.8851,0.905,0.8651,0.859,0.859,0.859,0.859,0.859,0.859,0.859,0.859,0.859,0.859,0.859,0.859,0.859,0.859,0.859,0.859,0.859,0.859,0.859,0.859,0.859,0.8917,0.9117,0.9117,0.9788,1.0193,1.0193,1.0525,1.0649,1.05,1.0358,1.0209,0.999,0.9897,0.9822,0.9822,0.9822,0.9822,0.9822,0.9822,0.9822,0.8194,0.8262,0.8289,0.8927,0.915,0.934,0.9829,0.989,1.0059,1.0732,1.0988,1.0995,1.05,1.0928,1.1246,1.0867,1.1145,1.1348,1.1328,1.1233,1.109,1.09,1.086,1.0711,1.0378,1.0364,1.0149,0.9764,0.9865,0.9822,0.9671,0.9822,0.9822,0.9671,0.9671,0.9703,0.9689,1.0133,1.0284,1.0082,1.0227,1.0299,1.0299,1.0082,0.9914,0.9879,0.9446,0.9663,1.0311,1.0606,1.0828,1.1044,1.1332,1.126,1.0959,1.05,1.007,0.9631,0.9062,0.8788,0.8717,0.8651,0.859,0.859,0.859,0.8656,0.8717,0.8651,0.8656,0.8717,0.8651,0.859,0.859,0.859,0.859,0.859,0.859,0.859,0.859,0.859,0.859,0.859,0.859,0.859,0.859,0.859,0.859,0.859,0.859,0.859,0.859,0.859,0.8917,0.9117,0.9117,0.9588,0.9861,0.9861,0.9927,1.0128,1.05,1.0358,1.0209,0.999,0.9897,0.9822,0.9822,0.9822,0.9822,0.9822,0.9822,0.9822,0.8723,0.8798,0.8899,0.9673,0.9734,0.9659,0.9836,1.0012,1.0344,1.1002,1.1143,1.1131,1.086,1.1253,1.1531,1.119,1.1443,1.1565,1.1409,1.1314,1.1199,1.105,1.0955,1.0819,1.056,1.0308,1.0102,0.9867,0.9657,0.9525,0.9525,0.9525,0.9525,0.9525,0.9525,0.956,0.9635,0.9921,0.996,0.9879,0.9879,0.9807,0.9663,0.9807,0.9951,1.0095,0.9735,0.9735,1.0023,1.0389,1.0678,1.0822,1.1038,1.1038,1.0737,1.0244,0.976,0.9209,0.8881,0.8687,0.859,0.859,0.859,0.859,0.859,0.859,0.859,0.859,0.859,0.859,0.859,0.859,0.859,0.859,0.859,0.859,0.859,0.859,0.859,0.859,0.859,0.859,0.859,0.859,0.859,0.859,0.859,0.859,0.859,0.859,0.859,0.859,0.8784,0.8917,0.8917,0.9256,0.9455,0.9455,0.9594,0.9889,1.0392,1.0252,1.0169,1.0141,0.9992,0.9883,0.9822,0.9822,0.9822,0.9822,0.9822,0.9822,0.9178,0.9364,0.9612,1.0516,1.0215,0.9747,1.0283,1.0371,1.0582,1.1443,1.1586,1.1572,1.1613,1.1619,1.1619,1.1619,1.1619,1.1572,1.143,1.1402,1.1341,1.1199,1.1241,1.108,1.0863,1.0466,1.0096,0.9928,0.9513,0.9302,0.9302,0.9302,0.9302,0.9302,0.9302,0.9446,0.9807,0.9879,0.9879,0.9879,0.9879,0.9663,0.9446,0.9735,1.0095,1.0455,1.0095,0.9735,0.9302,0.9735,1.0095,1.0455,1.0455,1.0449,1.0353,0.9871,0.9321,0.8847,0.8796,0.8682,0.859,0.859,0.859,0.859,0.859,0.859,0.859,0.859,0.859,0.859,0.859,0.859,0.859,0.859,0.859,0.859,0.859,0.859,0.859,0.859,0.859,0.859,0.859,0.859,0.859,0.859,0.859,0.859,0.859,0.859,0.859,0.859,0.859,0.859,0.859,0.8851,0.905,0.905,0.9389,0.9728,1.006,1.0051,1.011,1.0304,1.0071,0.9923,0.9842,0.9768,0.9761,0.9822,0.9822,0.9822,0.9659,0.9625,0.9462,0.9808,0.9754,0.991,1.107,1.1056,1.0962,1.1504,1.1341,1.113,1.1552,1.1619,1.1619,1.1619,1.1619,1.1606,1.1572,1.1463,1.1382,1.1348,1.124,1.1179,1.1136,1.055,1.0201,1.0161,0.9612,0.9302,0.9302,0.9302,0.9302,0.9302,0.9302,0.9374,0.9446,0.9446,0.9446,0.9446,0.9446,0.9735,1.0239,1.0023,0.9951,1.0023,1.0239,0.9951,0.9302,0.9735,0.9951,1.0095,1.0383,1.0251,0.9865,0.9596,0.9256,0.8791,0.8671,0.8611,0.859,0.859,0.859,0.859,0.859,0.859,0.859,0.859,0.859,0.859,0.859,0.859,0.859,0.859,0.859,0.859,0.859,0.859,0.859,0.859,0.859,0.859,0.859,0.859,0.859,0.859,0.859,0.859,0.859,0.859,0.859,0.859,0.859,0.859,0.859,0.8656,0.8717,0.8717,0.879,0.8989,0.9316,0.9783,1.0156,1.0446,0.9936,0.9784,0.9936,0.9577,0.9518,0.9822,0.9822,0.9822,0.9585,0.9713,0.9788,1.0161,1.0412,1.0697,1.1185,1.1287,1.1264,1.1572,1.143,1.1341,1.1579,1.1619,1.1619,1.1619,1.1619,1.1619,1.1619,1.1552,1.1497,1.1497,1.143,1.1312,1.11,1.067,1.028,1.0066,0.9557,0.9302,0.9302,0.9302,0.9735,1.0587,0.9807,0.9735,1.0659,0.9729,0.9302,0.9302,0.9302,0.959,1.0239,1.0534,1.0527,1.0167,1.0383,1.0023,0.9302,0.9735,0.9879,0.9951,1.0095,1.0019,0.9683,0.9346,0.901,0.8753,0.8628,0.859,0.859,0.859,0.859,0.859,0.859,0.859,0.859,0.859,0.859,0.859,0.859,0.859,0.859,0.859,0.859,0.859,0.859,0.859,0.859,0.859,0.859,0.859,0.859,0.859,0.859,0.859,0.859,0.859,0.859,0.859,0.859,0.859,0.859,0.859,0.859,0.859,0.859,0.859,0.859,0.8717,0.9117,0.9384,0.9776,1.0234,1.0088,0.9943,0.9804,0.9539,0.9468,0.9579,0.9579,0.964,0.9273,0.9673,1.0195,1.0732,1.1172,1.1335,1.1049,1.1294,1.1525,1.1606,1.1619,1.1619,1.1619,1.1619,1.1619,1.1619,1.1619,1.1619,1.1619,1.1619,1.1619,1.1619,1.1619,1.1476,1.1116,1.075,1.0383,1.0023,0.959,0.9446,0.9735,0.9807,1.0659,1.2509,1.1084,1.1012,1.258,1.1084,1.0299,1.0299,1.0017,0.9879,0.9951,1.0966,1.1038,1.0383,1.0383,0.9951,0.9302,0.9663,0.9807,0.9807,0.9784,0.9704,0.9507,0.9034,0.8845,0.8725,0.8622,0.859,0.859,0.859,0.859,0.859,0.859,0.859,0.859,0.859,0.859,0.859,0.859,0.859,0.859,0.859,0.859,0.859,0.859,0.859,0.859,0.859,0.859,0.859,0.859,0.859,0.859,0.859,0.859,0.859,0.859,0.859,0.859,0.859,0.859,0.859,0.859,0.859,0.859,0.859,0.859,0.8723,0.8984,0.905,0.9329,0.9817,1.0182,1.005,0.9563,0.9518,0.9435,0.9252,0.9226,0.9396,0.8939,0.9451,1.0132,1.0732,1.0704,1.0649,1.1369,1.1204,1.1076,1.1538,1.1619,1.1619,1.1619,1.1619,1.1619,1.1619,1.1619,1.1619,1.1619,1.1619,1.1619,1.1619,1.1619,1.1548,1.1548,1.0894,1.0455,1.0455,0.9735,1.0017,1.1657,1.1729,1.258,1.4557,1.4344,1.4344,1.4628,1.4344,1.4273,1.4202,1.2866,1.1449,0.9951,1.0455,1.0383,0.9951,0.9951,0.9735,0.9302,0.9374,0.9374,0.9368,0.9264,0.9155,0.8959,0.884,0.8715,0.8611,0.8595,0.859,0.859,0.859,0.859,0.859,0.859,0.859,0.859,0.859,0.859,0.859,0.859,0.859,0.859,0.859,0.859,0.859,0.859,0.859,0.859,0.859,0.859,0.859,0.859,0.859,0.859,0.859,0.859,0.859,0.859,0.859,0.859,0.859,0.859,0.859,0.859,0.859,0.859,0.859,0.859,0.859,0.8656,0.8917,0.9111,0.9226,0.9514,0.9571,0.9398,0.9235,0.9112,0.9026,0.8971,0.8976,0.9195,0.9551,0.9944,1.105,1.0799,1.0514,1.1416,1.1274,1.1008,1.1525,1.1619,1.1619,1.1619,1.1619,1.1619,1.1619,1.1619,1.1619,1.1619,1.1619,1.1619,1.1619,1.1619,1.1476,1.126,1.0966,1.0606,1.0167,1.0671,1.124,1.2087,1.2937,1.4353,1.6474,1.5548,1.5477,1.6545,1.5557,1.4415,1.3357,1.2723,1.1377,0.959,0.9735,0.9879,0.9879,0.9879,0.9663,0.9302,0.9302,0.9264,0.9204,0.9155,0.9019,0.8845,0.8791,0.8693,0.859,0.859,0.859,0.859,0.859,0.859,0.859,0.859,0.859,0.859,0.859,0.859,0.859,0.859,0.859,0.859,0.859,0.859,0.859,0.859,0.859,0.859,0.859,0.859,0.859,0.859,0.859,0.859,0.859,0.859,0.859,0.859,0.859,0.859,0.859,0.859,0.859,0.859,0.859,0.859,0.859,0.859,0.859,0.859,0.8717,0.8851,0.8851,0.9534,0.9664,0.9128,0.9273,0.9182,0.885,0.8791,0.8887,0.9313,0.9435,0.9585,1.0894,1.0629,1.027,1.109,1.1023,1.0907,1.1355,1.1538,1.1619,1.1619,1.1619,1.1619,1.1619,1.1619,1.1619,1.1619,1.1619,1.1619,1.1619,1.1619,1.1476,1.1188,1.1044,1.075,1.0095,1.139,1.2388,1.2794,1.4282,1.6202,1.8471,1.7188,1.7117,1.8541,1.7188,1.5486,1.3571,1.308,1.1872,1.0017,0.9518,0.9446,0.9735,0.9735,0.959,0.9302,0.9302,0.9237,0.9133,0.903,0.8959,0.8764,0.8736,0.8666,0.859,0.859,0.859,0.859,0.859,0.859,0.859,0.859,0.859,0.859,0.859,0.859,0.859,0.859,0.859,0.859,0.859,0.859,0.859,0.859,0.859,0.859,0.859,0.859,0.859,0.859,0.859,0.859,0.859,0.859,0.859,0.859,0.859,0.859,0.859,0.859,0.859,0.859,0.859,0.859,0.859,0.859,0.859,0.859,0.859,0.859,0.859,0.9455,0.954,0.8853,0.9145,0.908,0.8601,0.8567,0.8678,0.8757,0.8919,0.9094,0.9876,0.9774,0.9591,1.0209,1.0331,1.0439,1.0826,1.1321,1.1619,1.1619,1.1619,1.1619,1.1619,1.1619,1.1619,1.1619,1.1619,1.1619,1.1619,1.1619,1.1619,1.1548,1.1188,1.0822,1.0527,1.1534,1.2952,1.477,1.6333,1.818,2.0457,2.0457,2.0457,2.0527,2.0457,1.946,1.7479,1.5698,1.3855,1.1872,1.0089,0.9302,0.9302,0.9302,0.9302,0.9302,0.9302,0.9237,0.9052,0.8938,0.8883,0.8758,0.8638,0.8595,0.859,0.859,0.859,0.859,0.859,0.859,0.859,0.859,0.859,0.859,0.859,0.859,0.859,0.859,0.859,0.859,0.859,0.859,0.859,0.859,0.859,0.859,0.859,0.859,0.859,0.859,0.859,0.859,0.859,0.859,0.859,0.859,0.859,0.859,0.859,0.859,0.859,0.859,0.859,0.859,0.859,0.859,0.859,0.859,0.859,0.859,0.859,0.8984,0.8984,0.8645,0.8799,0.8736,0.8405,0.8291,0.8236,0.8723,0.873,0.8737,0.9666,0.9422,0.9157,0.9951,1.0209,1.0324,1.0487,1.1104,1.1531,1.124,1.1423,1.1619,1.1619,1.1619,1.1619,1.1619,1.1619,1.1619,1.1619,1.1619,1.1619,1.1619,1.1476,1.1541,1.1893,1.3006,1.4475,1.6385,1.7686,1.9027,2.0653,2.0665,2.0665,2.0665,2.0665,1.9738,1.776,1.591,1.3998,1.2015,1.0161,0.9302,0.9374,1.0587,1.0946,1.0868,1.191,1.2127,1.176,1.1603,1.0914,0.9977,0.9994,0.9383,0.859,0.859,0.859,0.859,0.859,0.859,0.859,0.859,0.859,0.859,0.859,0.859,0.859,0.859,0.925,0.9975,0.9975,0.925,0.859,0.859,0.859,0.859,0.859,0.859,0.859,0.859,0.859,0.859,0.859,0.859,0.859,0.859,0.859,0.859,0.859,0.859,0.859,0.859,0.859,0.859,0.859,0.859,0.859,0.859,0.859,0.859,0.859,0.8717,0.8723,0.859,0.8878,0.8855,0.8524,0.8481,0.8459,0.8474,0.8418,0.837,0.9117,0.8967,0.8804,0.939,0.9951,1.0283,1.0283,1.0995,1.1525,1.1157,1.1416,1.1619,1.1619,1.1619,1.1619,1.1619,1.1619,1.1619,1.1619,1.1619,1.1619,1.1619,1.1619,1.19,1.261,1.3894,1.5362,1.7238,1.8437,1.9637,2.0653,2.0665,2.0665,2.0665,2.0665,2.0028,1.8751,1.6836,1.492,1.3009,1.1084,1.0233,1.0371,1.2223,1.2479,1.1575,1.3364,1.3733,1.3162,1.3049,1.2363,1.1424,1.1424,1.0829,1.0035,1.0035,0.9709,0.9316,0.9316,0.8984,0.859,0.859,0.859,0.859,0.859,0.859,0.8717,0.9183,0.9975,1.0704,1.0704,0.9643,0.859,0.859,0.859,0.859,0.859,0.859,0.859,0.859,0.859,0.859,0.859,0.859,0.859,0.859,0.859,0.859,0.859,0.859,0.859,0.859,0.859,0.859,0.859,0.859,0.859,0.859,0.859,0.859,0.859,0.859,0.859,0.859,0.8851,0.8784,0.859,0.859,0.859,0.0,0.0,0.0,0.8228,0.837,0.8513,0.8669,0.951,1.0256,1.0256,1.0975,1.1599,1.1599,1.1613,1.1619,1.1619,1.1619,1.1619,1.1619,1.1619,1.1619,1.1619,1.1619,1.1619,1.1619,1.1619,1.19,1.2681,1.4156,1.5707,1.7258,1.8821,1.9959,2.0665,2.0665,2.0665,2.0665,2.0665,2.0665,2.0665,1.8751,1.6836,1.4982,1.308,1.2158,1.2294,1.4202,1.3671,1.1495,1.344,1.3788,1.3135,1.3135,1.302,1.2865,1.2865,1.2865,1.28,1.28,1.1878,1.077,1.077,0.9775,0.8656,0.8656,0.8651,0.859,0.859,0.859,0.8917,1.0373,1.077,1.077,1.0836,0.9775,0.8717,0.8717,0.8717,0.8656,0.859,0.859,0.859,0.859,0.859,0.859,0.859,0.859,0.859,0.859,0.859,0.859,0.859,0.859,0.859,0.859,0.859,0.859,0.859,0.859,0.859,0.859,0.859,0.859,0.859,0.859,0.859,0.859,0.859,0.859,0.859,0.859,0.859,0.7988,0.0,0.0,0.0,0.0,0.0,0.8513,0.911,0.9659,0.9774,1.0507,1.1062,1.1062,1.1402,1.1619,1.1619,1.1619,1.1619,1.1619,1.1619,1.1619,1.1619,1.1619,1.1619,1.1619,1.1619,1.2402,1.4244,1.4492,1.5874,1.8798,1.9889,2.0457,2.0665,2.0665,2.0665,2.0665,2.0665,2.0665,2.0665,1.8751,1.7549,1.6977,1.5062,1.4202,1.4273,1.5752,1.5722,1.4841,1.6702,1.6954,1.6145,1.5974,1.5221,1.4315,1.4315,1.3652,1.28,1.28,1.2537,1.2208,1.2208,1.1292,1.0107,1.0107,0.9383,0.859,0.859,0.859,0.9183,1.1615,1.2208,1.2471,1.353,1.2668,1.1615,1.1615,1.0829,0.9842,0.8784,0.859,0.859,0.859,0.859,0.859,0.859,0.859,0.859,0.859,0.859,0.859,0.859,0.859,0.859,0.859,0.859,0.859,0.859,0.859,0.859,0.859,0.859,0.859,0.859,0.859,0.859,0.859,0.859,0.859,0.859,0.859,0.859,0.7988,0.7988,0.7988,0.7988,0.0,0.0,0.8465,0.9144,0.9781,0.9869,1.0602,1.1103,1.0914,1.1096,1.1341,1.1341,1.1287,1.1307,1.1497,1.1525,1.1497,1.1436,1.143,1.143,1.143,1.1484,1.223,1.4065,1.4458,1.6107,1.9367,2.011,2.0527,2.0665,2.0665,2.0665,2.0665,2.0665,2.0665,2.0665,1.9529,1.8611,1.776,1.6685,1.6004,1.585,1.657,1.6889,1.6871,1.7962,1.7962,1.7206,1.7066,1.6483,1.5759,1.5759,1.5229,1.4567,1.4567,1.4175,1.3652,1.3652,1.2734,1.149,1.0902,1.0107,0.9383,0.8784,0.9576,1.1087,1.3316,1.3905,1.4045,1.4707,1.3849,1.28,1.28,1.2142,1.116,0.9775,0.8984,0.859,0.859,0.859,0.859,0.859,0.859,0.859,0.859,0.859,0.859,0.859,0.859,0.859,0.859,0.859,0.859,0.859,0.859,0.8656,0.8784,0.8784,0.8923,0.9056,0.9056,0.8989,0.8784,0.8656,0.859,0.859,0.859,0.859,0.7995,0.7988,0.7988,0.7988,0.8248,0.0,0.8479,0.9327,1.0127,1.0195,1.0839,1.1287,1.0847,1.0793,1.0799,1.0786,1.0751,1.0826,1.128,1.1355,1.1301,1.1131,1.1214,1.1234,1.1234,1.1287,1.1931,1.327,1.47,1.6644,1.939,1.9901,2.0249,2.0665,2.0665,2.0665,2.0665,2.0665,2.0665,2.0665,2.0665,1.982,1.811,1.8019,1.7753,1.7348,1.7159,1.7463,1.8027,1.7928,1.7522,1.7001,1.7001,1.7001,1.7001,1.7001,1.7001,1.7001,1.7001,1.6159,1.5108,1.5108,1.4184,1.28,1.1556,1.1028,1.0704,0.9443,1.1285,1.3849,1.5089,1.5544,1.5554,1.5229,1.4175,1.3325,1.3325,1.3259,1.28,1.149,1.0107,0.8984,0.8656,0.8784,0.8851,0.8651,0.859,0.859,0.859,0.859,0.859,0.859,0.859,0.859,0.859,0.8651,0.8656,0.8656,0.8656,0.8784,0.9183,0.9117,0.9322,0.9661,0.9728,0.9528,0.9183,0.8851,0.8651,0.859,0.859,0.859,0.8022,0.7988,0.7988,0.7988,0.8174,0.0,0.8459,0.8757,0.9157,0.9639,0.9876,1.0046,1.0132,1.0324,1.0371,1.0179,1.0304,1.0521,1.0975,1.1138,1.1111,1.0839,1.1016,1.1234,1.1234,1.1192,1.2288,1.4779,1.7296,1.8982,1.9541,1.9901,2.0249,2.0665,2.0665,2.0665,2.0665,2.0665,2.0665,2.0665,2.0665,2.0527,2.0098,1.9599,1.9621,1.9959,1.9009,1.8645,1.8738,1.8193,1.7562,1.7001,1.7001,1.7001,1.7001,1.7001,1.7001,1.7001,1.7001,1.6807,1.6613,1.6613,1.5629,1.4446,1.4184,1.3259,1.2405,1.2405,1.3849,1.5414,1.5414,1.6203,1.7001,1.6678,1.6613,1.6613,1.6613,1.5879,1.5219,1.4958,1.3521,1.1549,0.905,0.9769,1.0233,0.8784,0.859,0.859,0.859,0.859,0.859,0.859,0.859,0.859,0.859,0.8851,0.8984,0.8984,0.8984,0.9183,0.9594,0.9256,0.9322,0.9661,0.9728,0.9661,0.9594,0.9183,0.8851,0.859,0.859,0.859,0.8174,0.8099,0.7988,0.7988,0.8208,0.0,0.0,0.8832,0.9245,0.9551,0.9788,0.9917,0.9842,0.9829,0.9836,0.9829,0.9768,0.9849,1.0229,1.0595,1.0799,1.0731,1.0853,1.0941,1.0941,1.1009,1.217,1.4909,1.642,1.7865,1.946,1.975,2.011,2.0665,2.0665,2.0665,2.0665,2.0873,2.0943,2.0943,2.0943,2.1081,2.1207,2.0593,2.0262,2.0117,1.9639,1.9125,1.8476,1.8542,1.8098,1.7453,1.713,1.7001,1.7001,1.7001,1.7001,1.7001,1.7001,1.7001,1.7001,1.7001,1.6548,1.5824,1.5108,1.4045,1.3259,1.4306,1.5349,1.6322,1.6861,1.7389,1.7723,1.7518,1.7529,1.7529,1.7723,1.7324,1.6721,1.6073,1.5944,1.4958,1.1739,1.1929,1.2192,1.1344,1.0426,0.9902,0.9902,0.9117,0.859,0.859,0.859,0.859,0.859,0.8784,0.8851,0.8851,0.8851,0.9123,0.9661,0.9522,0.9655,1.0193,1.0193,1.0127,0.9927,0.9721,0.9383,0.8851,0.8851,0.8851,0.8241,0.816,0.8035,0.8035,0.8333,0.865,0.0,0.0,0.0,0.9652,0.9949,1.0026,0.951,0.9361,0.932,0.9381,0.9232,0.9205,0.9483,0.9958,1.0324,1.0446,1.0514,1.0548,1.0548,1.1003,1.2195,1.4526,1.5039,1.647,1.9311,1.9518,1.9959,2.0665,2.0665,2.0665,2.0665,2.1012,2.1207,2.1207,2.1276,2.1459,2.1671,2.0984,2.0386,1.9706,1.9952,1.9382,1.8483,1.9072,1.888,1.8162,1.7453,1.713,1.7001,1.7001,1.7001,1.7001,1.7001,1.7001,1.7001,1.7001,1.7001,1.6807,1.5629,1.4772,1.4502,1.5944,1.6656,1.7238,1.8302,1.8366,1.8098,1.8033,1.7852,1.7787,1.8045,1.8162,1.7905,1.6721,1.7711,1.7636,1.4353,1.4092,1.4223,1.3831,1.2521,1.1607,1.1607,1.03,0.931,0.905,0.8984,0.8917,0.8656,0.8656,0.8717,0.8717,0.8717,0.8989,0.9661,0.9728,1.006,1.0717,1.0717,1.0591,1.0326,1.0326,0.9921,0.9183,0.9183,0.9183,0.814,0.8153,0.8241,0.8241,0.8733,0.9256,0.945,0.0,1.0202,0.9868,0.0,0.9642,0.8955,0.0,0.0,0.8648,0.8811,0.9022,0.9241,0.9381,0.9517,0.953,0.9761,0.9924,0.9924,1.1497,1.3021,1.4191,1.5835,1.7517,1.9141,1.9496,1.9959,2.0665,2.0665,2.0665,2.0665,2.1012,2.1207,2.1207,2.1553,2.1632,2.131,2.0709,2.0567,2.0799,2.031,1.9979,1.989,1.9954,1.9571,1.888,1.8162,1.7518,1.7001,1.7001,1.7001,1.7001,1.7001,1.7001,1.7001,1.7001,1.7001,1.6936,1.6807,1.7066,1.7507,1.7711,1.8291,1.8752,1.8635,1.8571,1.8442,1.8098,1.8238,1.8507,1.8507,1.8764,1.8944,1.8752,1.888,1.7958,1.4418,1.5135,1.5664,1.4027,1.3382,1.3062,1.3062,1.2602,1.1813,1.0571,1.0439,0.9975,0.8717,0.8851,0.905,0.905,0.905,0.9256,0.9661,0.9994,1.0326,1.0717,1.0717,1.0651,1.0651,1.0651,1.0259,0.9661,0.9661,0.9661,1.0638,1.0932,1.0762,0.9211,0.9709,1.0508,1.0085,1.0012,1.0109,1.0296,0.0,0.0,0.0,0.0,0.0,0.0,0.9807,0.9781,0.9557,0.9588,0.9645,0.9657,0.9747,0.989,1.0073,1.0655,1.1901,1.3908,1.4762,1.6297,1.8919,1.9243,1.9807,2.0665,2.0873,2.1012,2.1012,2.1553,2.1829,2.1829,2.1868,2.1862,2.1934,2.1093,2.0758,2.0695,2.0656,2.0462,2.0144,2.0526,2.0272,1.9635,1.9316,1.8547,1.7518,1.713,1.7001,1.7001,1.7001,1.7001,1.7001,1.7001,1.7001,1.7001,1.7001,1.7453,1.7969,1.7969,1.8559,1.9072,1.8956,1.8764,1.8635,1.8623,1.8623,1.8635,1.8828,1.9008,1.9072,1.9072,1.9072,1.8612,1.7098,1.7496,1.77,1.6721,1.5544,1.4763,1.4558,1.3513,1.2602,1.201,1.116,1.077,1.1021,0.9643,0.9183,0.9975,0.9449,0.9256,0.9661,0.9994,1.0392,1.0717,1.0717,1.0717,1.0717,1.0717,1.0591,1.0259,1.006,0.9994,1.3574,1.3966,1.3638,1.1433,1.1614,1.2148,1.1313,1.0779,1.0522,1.0899,1.097,0.0,0.0,0.0,1.058,1.0661,0.0,1.0417,1.0062,1.0006,0.9988,0.9818,0.9884,1.003,1.026,1.0026,1.0865,1.3483,1.387,1.5341,1.8622,1.9271,1.9908,2.0792,2.1151,2.1346,2.1346,2.1966,2.2271,2.2193,2.212,2.207,2.2164,2.1476,2.0993,2.0644,2.0948,2.0843,2.0399,2.0919,2.0792,2.0335,2.0144,1.9507,1.8483,1.784,1.7453,1.726,1.726,1.713,1.7001,1.7001,1.7001,1.7001,1.7001,1.7389,1.7905,1.7969,1.8495,1.8956,1.9072,1.8956,1.8828,1.9008,1.8956,1.8956,1.9072,1.9264,1.9328,1.9136,1.92,1.92,1.9008,1.8944,1.8892,1.8635,1.7324,1.6278,1.6009,1.4763,1.3783,1.339,1.2479,1.2084,1.2734,1.0955,1.0167,1.1226,1.0565,1.0107,1.012,1.0319,1.0518,1.0591,1.0591,1.0591,1.0591,1.0651,1.0651,1.0591,1.0392,1.0326,1.6433,1.6547,1.6439,1.5364,1.4703,1.4112,1.3386,1.2598,1.1933,1.1638,1.1573,1.1409,1.0806,1.0688,1.0623,1.0506,1.0628,0.0,0.0,1.0582,1.0429,0.9846,1.0072,1.0265,1.0273,1.0017,1.0725,1.2964,1.3876,1.5529,1.8442,1.9645,2.0537,2.1138,2.1553,2.1772,2.1772,2.2104,2.2167,2.1906,2.2217,2.2124,2.1641,2.1563,2.139,2.1059,2.1109,2.1109,2.1046,2.1109,2.1109,2.0982,2.0335,2.0081,1.9954,1.9264,1.8559,1.7969,1.7969,1.7518,1.7001,1.7001,1.7001,1.7001,1.7001,1.7271,1.7594,1.7905,1.8302,1.8699,1.9008,1.9072,1.9072,1.9072,1.9328,1.9456,1.92,1.9596,1.9851,1.92,1.9392,1.9392,1.8699,1.8635,1.8635,1.8571,1.7927,1.7464,1.74,1.7066,1.6343,1.4977,1.4782,1.425,1.2931,1.2734,1.2668,1.2734,1.2734,1.2208,1.1167,1.1167,1.0843,1.0259,1.0193,1.0193,1.0193,1.0518,1.0518,1.0193,1.0518,1.0651,1.8613,1.9185,1.9122,1.7008,1.678,1.6864,1.6042,1.4301,1.3194,1.4234,1.3186,1.2327,1.2925,1.2382,1.1819,1.1747,1.1792,1.171,0.0,1.1256,1.1236,1.1017,1.0738,1.0626,1.0797,1.1273,1.2086,1.3394,1.4542,1.6031,1.7792,1.9096,2.0051,2.0734,2.1603,2.2104,2.2104,2.2264,2.2309,2.2217,2.1965,2.1815,2.1614,2.1349,2.1203,2.1109,2.1109,2.1109,2.1109,2.1109,2.1109,2.1109,2.0856,2.0779,2.0666,1.952,1.8944,1.8688,1.8162,1.784,1.7582,1.713,1.7001,1.7001,1.7001,1.7206,1.7594,1.7905,1.8302,1.8699,1.9008,1.9072,1.9072,1.9072,1.92,1.9328,1.9392,1.9584,1.9711,1.9456,1.9507,1.9392,1.8699,1.8378,1.8109,1.7927,1.7669,1.74,1.7206,1.7066,1.6807,1.6353,1.5434,1.5108,1.5554,1.4707,1.3783,1.2865,1.28,1.2734,1.2618,1.2618,1.2618,1.2626,1.2626,1.2626,1.2626,1.2758,1.2758,1.2626,1.2758,1.2561,2.1162,2.1727,2.1648,1.9524,1.9139,1.9075,1.8287,1.6492,1.54,1.665,1.5693,1.4781,1.5243,1.4314,1.3402,1.3073,1.2654,1.2273,0.0,1.1891,1.1891,1.1891,1.1466,1.1195,1.1247,1.1707,1.2451,1.3745,1.4751,1.6033,1.7742,1.9134,2.0157,2.063,2.1867,2.2516,2.2516,2.243,2.2365,2.2258,2.1777,2.1561,2.139,2.1203,2.1109,2.1109,2.1109,2.1109,2.1109,2.1109,2.1109,2.1109,2.1109,2.1109,2.0982,2.0157,1.9647,1.9328,1.8623,1.8355,1.8302,1.7582,1.7389,1.7324,1.7066,1.7141,1.74,1.784,1.8109,1.8378,1.8944,1.902,1.8956,1.9072,1.92,1.9328,1.9571,1.9775,1.9903,1.9647,1.9571,1.9328,1.8495,1.8045,1.7723,1.7529,1.74,1.7271,1.7001,1.7001,1.7001,1.7001,1.6213,1.6019,1.6936,1.6148,1.5229,1.4371,1.4306,1.4184,1.3866,1.3866,1.3836,1.3839,1.3713,1.3713,1.3839,1.391,1.3809,1.3678,1.3809,1.3932]}]]